GEFSMA_prec_meanprecacc_144.txt.gz
Total_Precipitation_Accumulation
2.04 2.12 1.84 1.73 1.68 1.84 2.09 2.09 1.97 2.08 2.22 2.23 2.05 1.92 1.74 1.47 1.37 1.28 1.35 1.68 1.68 1.70 1.92 1.92 1.84 1.73 1.58 1.38 1.27 1.17 1.10 1.01 0.87 0.70 0.63 0.53 0.42 0.34 0.23 0.16 0.13 0.11 0.09
1.97 1.84 1.82 1.81 1.72 1.82 1.88 1.93 1.99 2.19 2.30 2.40 2.13 1.95 1.80 1.67 1.55 1.48 1.40 1.66 1.71 1.62 1.75 2.01 2.08 2.03 2.00 1.81 1.61 1.50 1.36 1.26 1.05 0.77 0.68 0.63 0.52 0.44 0.36 0.28 0.24 0.17 0.12
1.91 1.87 1.78 1.64 1.68 1.76 1.85 1.89 1.95 2.06 1.98 2.06 2.04 1.97 1.87 1.75 1.69 1.56 1.47 1.44 1.33 1.49 1.68 1.87 2.02 2.06 2.14 2.07 2.01 1.92 1.69 1.44 1.19 0.88 0.68 0.64 0.57 0.48 0.42 0.38 0.37 0.29 0.22
1.66 1.67 1.53 1.48 1.57 1.47 1.48 1.56 1.53 1.59 1.65 1.79 1.83 1.71 1.65 1.64 1.56 1.55 1.47 1.35 1.32 1.13 1.45 1.81 1.92 1.82 1.98 2.18 2.36 2.41 2.04 1.58 1.26 1.02 0.80 0.67 0.62 0.51 0.40 0.35 0.34 0.35 0.27
1.15 1.18 1.14 1.17 1.20 1.17 1.17 1.10 1.29 1.35 1.45 1.56 1.57 1.46 1.37 1.46 1.45 1.42 1.38 1.19 1.27 1.19 1.18 1.36 1.63 1.60 1.84 2.22 2.56 2.68 2.46 1.95 1.48 1.27 1.11 0.95 0.87 0.70 0.50 0.41 0.35 0.32 0.26
1.00 0.94 0.91 0.91 0.86 0.89 0.95 0.98 1.07 1.09 1.11 1.18 1.18 1.18 1.17 1.06 1.16 1.20 1.12 1.11 1.05 0.90 0.92 1.08 1.37 1.25 1.60 1.98 2.29 2.46 2.57 2.45 2.02 1.63 1.44 1.39 1.32 1.05 0.67 0.52 0.44 0.38 0.29
0.85 0.85 0.75 0.73 0.67 0.68 0.70 0.70 0.78 0.81 0.80 0.86 1.00 1.03 0.90 0.79 0.82 0.83 0.87 0.96 0.88 0.88 0.96 1.05 1.17 1.21 1.18 1.33 1.51 1.85 2.33 2.54 2.38 2.00 1.71 1.53 1.49 1.30 0.90 0.70 0.56 0.52 0.47
0.65 0.62 0.63 0.59 0.57 0.60 0.63 0.63 0.63 0.63 0.63 0.68 0.79 0.88 0.78 0.71 0.64 0.54 0.66 0.66 0.69 0.89 0.94 0.93 0.98 1.16 1.12 1.28 1.05 1.23 1.80 2.24 2.52 2.41 2.09 1.73 1.53 1.31 1.06 0.89 0.71 0.60 0.55
0.49 0.50 0.50 0.51 0.54 0.54 0.57 0.58 0.53 0.53 0.54 0.53 0.59 0.74 0.73 0.65 0.56 0.49 0.51 0.55 0.66 0.77 0.81 0.95 0.92 0.91 0.93 1.14 1.28 1.21 1.34 1.57 2.17 2.61 2.56 2.10 1.59 1.24 1.12 1.09 1.00 0.83 0.68
0.46 0.44 0.42 0.41 0.43 0.45 0.54 0.48 0.49 0.51 0.52 0.45 0.44 0.49 0.54 0.58 0.60 0.59 0.52 0.53 0.61 0.66 0.70 0.72 0.76 0.86 1.00 1.11 1.22 1.19 1.02 1.13 1.58 2.13 2.47 2.34 1.91 1.47 1.20 1.19 1.36 1.31 1.03
0.58 0.49 0.49 0.44 0.40 0.38 0.40 0.41 0.51 0.53 0.51 0.45 0.42 0.43 0.46 0.47 0.48 0.53 0.47 0.45 0.50 0.46 0.50 0.58 0.70 0.77 0.85 1.04 1.26 1.13 0.92 0.84 1.03 1.42 1.78 1.95 1.92 1.65 1.36 1.29 1.57 1.78 1.60
0.66 0.56 0.52 0.50 0.44 0.39 0.35 0.35 0.44 0.49 0.54 0.53 0.46 0.40 0.45 0.46 0.46 0.49 0.40 0.33 0.37 0.32 0.33 0.39 0.52 0.66 0.79 0.94 0.96 0.95 0.98 0.91 0.90 0.98 1.15 1.35 1.54 1.56 1.48 1.52 1.74 1.97 2.04
0.56 0.51 0.49 0.47 0.41 0.39 0.40 0.40 0.40 0.42 0.47 0.51 0.48 0.43 0.41 0.39 0.45 0.46 0.39 0.33 0.38 0.37 0.49 0.47 0.52 0.70 0.75 0.96 0.94 0.96 0.95 0.95 0.81 0.74 0.78 0.87 1.01 1.20 1.37 1.47 1.65 1.85 2.02
0.59 0.59 0.53 0.45 0.42 0.43 0.42 0.46 0.40 0.37 0.40 0.43 0.41 0.49 0.47 0.35 0.42 0.44 0.45 0.52 0.52 0.55 0.61 0.57 0.64 0.87 1.08 1.11 1.12 1.03 0.84 0.82 0.72 0.66 0.60 0.61 0.67 0.78 0.90 1.03 1.18 1.29 1.42
0.68 0.71 0.61 0.50 0.50 0.52 0.52 0.52 0.45 0.43 0.43 0.42 0.45 0.55 0.54 0.48 0.48 0.47 0.51 0.62 0.71 0.64 0.64 0.71 0.81 0.90 1.01 1.04 1.05 0.96 0.81 0.77 0.68 0.60 0.54 0.51 0.52 0.56 0.63 0.68 0.72 0.80 0.87
0.69 0.73 0.66 0.55 0.55 0.55 0.56 0.57 0.51 0.53 0.54 0.54 0.58 0.63 0.66 0.63 0.63 0.61 0.61 0.68 0.82 0.80 0.75 0.74 0.82 0.84 0.86 0.73 0.73 0.72 0.70 0.71 0.62 0.56 0.53 0.50 0.47 0.47 0.49 0.54 0.58 0.59 0.61
0.75 0.71 0.67 0.62 0.57 0.55 0.58 0.61 0.60 0.60 0.57 0.60 0.62 0.65 0.67 0.74 0.80 0.80 0.83 0.81 0.84 0.94 0.89 0.76 0.86 0.95 0.89 0.72 0.62 0.61 0.60 0.61 0.59 0.58 0.54 0.51 0.49 0.47 0.45 0.43 0.47 0.51 0.50
0.76 0.74 0.71 0.65 0.56 0.53 0.60 0.65 0.65 0.65 0.65 0.65 0.69 0.77 0.75 0.76 0.83 0.88 0.98 0.97 0.98 1.12 1.09 0.96 0.99 1.07 0.98 0.85 0.72 0.63 0.52 0.50 0.51 0.57 0.55 0.54 0.52 0.49 0.46 0.43 0.41 0.40 0.40
0.81 0.76 0.74 0.68 0.62 0.59 0.61 0.63 0.68 0.75 0.77 0.80 0.82 0.88 0.89 0.92 0.92 0.95 1.01 1.02 1.07 1.22 1.26 1.18 1.16 1.26 1.28 1.08 0.88 0.70 0.57 0.58 0.50 0.53 0.56 0.56 0.54 0.51 0.47 0.46 0.46 0.42 0.37
0.85 0.88 0.88 0.88 0.84 0.80 0.74 0.71 0.74 0.77 0.80 0.85 0.91 0.91 0.90 0.97 1.03 1.08 1.14 1.24 1.31 1.39 1.47 1.43 1.43 1.53 1.56 1.42 1.19 0.91 0.80 0.75 0.65 0.55 0.58 0.58 0.56 0.52 0.47 0.43 0.41 0.40 0.39
1.06 1.16 1.17 1.12 1.07 0.99 0.86 0.86 0.83 0.80 0.86 0.81 0.84 0.89 0.89 0.93 0.99 1.08 1.12 1.25 1.41 1.57 1.73 1.79 1.79 1.92 1.86 1.68 1.43 1.10 0.96 0.86 0.77 0.67 0.62 0.55 0.52 0.48 0.45 0.43 0.40 0.39 0.37
1.32 1.37 1.30 1.26 1.24 1.05 1.05 1.01 0.94 0.96 0.99 0.97 0.98 1.02 0.99 0.94 0.93 0.97 1.04 1.14 1.28 1.46 1.67 1.86 1.96 2.03 2.05 1.89 1.67 1.38 1.04 0.82 0.73 0.68 0.68 0.61 0.53 0.50 0.44 0.39 0.42 0.39 0.36
1.28 1.32 1.30 1.25 1.17 1.12 1.04 0.89 0.86 0.87 0.94 1.00 1.01 1.03 0.94 0.85 0.89 0.86 0.89 0.93 0.98 1.07 1.19 1.39 1.58 1.66 1.81 1.90 1.75 1.44 1.16 0.95 0.78 0.72 0.72 0.62 0.58 0.54 0.47 0.43 0.48 0.40 0.36
1.47 1.44 1.36 1.30 1.30 1.24 1.10 0.95 0.92 0.87 0.90 0.92 0.93 0.95 0.94 0.86 0.82 0.84 0.84 0.80 0.73 0.73 0.78 0.86 1.00 1.22 1.42 1.63 1.69 1.58 1.47 1.21 0.94 0.77 0.74 0.66 0.55 0.51 0.49 0.47 0.49 0.45 0.40
1.52 1.51 1.51 1.49 1.50 1.47 1.34 1.12 1.02 0.98 1.04 1.01 0.98 0.97 0.96 0.86 0.83 0.72 0.72 0.70 0.67 0.65 0.64 0.69 0.78 0.96 1.19 1.36 1.54 1.53 1.43 1.30 1.08 0.83 0.71 0.66 0.55 0.50 0.47 0.42 0.41 0.43 0.41
1.38 1.36 1.37 1.43 1.45 1.46 1.42 1.13 0.97 0.90 0.96 0.98 1.02 1.01 0.97 0.85 0.81 0.71 0.73 0.75 0.70 0.64 0.64 0.63 0.66 0.74 0.83 1.06 1.28 1.30 1.23 1.18 1.05 0.84 0.65 0.59 0.51 0.49 0.49 0.38 0.32 0.33 0.34

GEFSMA_prec_meanprecacc_150.txt.gz
Total_Precipitation_Accumulation
2.06 2.14 1.87 1.78 1.71 1.87 2.12 2.12 2.00 2.11 2.24 2.25 2.07 1.93 1.76 1.49 1.38 1.29 1.37 1.69 1.70 1.73 1.97 1.95 1.86 1.74 1.59 1.40 1.28 1.18 1.12 1.03 0.88 0.71 0.64 0.54 0.42 0.36 0.25 0.17 0.14 0.12 0.09
1.99 1.86 1.84 1.85 1.76 1.87 1.92 1.96 2.02 2.22 2.34 2.45 2.16 1.97 1.83 1.69 1.57 1.51 1.42 1.69 1.74 1.66 1.81 2.07 2.13 2.07 2.03 1.84 1.64 1.52 1.40 1.30 1.07 0.79 0.70 0.64 0.53 0.45 0.37 0.31 0.27 0.20 0.14
1.94 1.90 1.82 1.68 1.72 1.80 1.89 1.94 2.00 2.12 2.03 2.11 2.10 2.02 1.93 1.79 1.72 1.60 1.50 1.48 1.37 1.53 1.71 1.91 2.07 2.11 2.19 2.11 2.05 1.97 1.76 1.49 1.22 0.91 0.70 0.65 0.59 0.49 0.44 0.41 0.40 0.32 0.24
1.69 1.71 1.57 1.54 1.63 1.52 1.54 1.63 1.59 1.66 1.72 1.86 1.89 1.78 1.72 1.70 1.60 1.58 1.50 1.39 1.37 1.18 1.51 1.85 1.95 1.86 2.03 2.22 2.39 2.46 2.09 1.62 1.29 1.04 0.82 0.69 0.64 0.52 0.42 0.36 0.36 0.37 0.30
1.19 1.23 1.20 1.25 1.27 1.24 1.24 1.15 1.35 1.42 1.53 1.63 1.62 1.53 1.44 1.53 1.51 1.46 1.41 1.22 1.32 1.24 1.23 1.40 1.65 1.63 1.87 2.26 2.61 2.73 2.51 1.99 1.52 1.30 1.14 0.98 0.90 0.72 0.52 0.43 0.38 0.34 0.28
1.04 0.98 0.96 0.98 0.92 0.97 1.04 1.08 1.16 1.18 1.18 1.26 1.23 1.23 1.23 1.10 1.21 1.26 1.17 1.15 1.10 0.93 0.96 1.13 1.42 1.28 1.62 2.00 2.33 2.50 2.62 2.51 2.07 1.67 1.48 1.43 1.36 1.08 0.69 0.53 0.46 0.39 0.31
0.89 0.89 0.79 0.78 0.74 0.76 0.79 0.80 0.87 0.89 0.88 0.95 1.10 1.11 0.95 0.82 0.85 0.86 0.91 1.01 0.93 0.93 1.00 1.11 1.24 1.27 1.22 1.35 1.54 1.88 2.37 2.58 2.42 2.04 1.75 1.56 1.52 1.33 0.92 0.71 0.58 0.53 0.48
0.70 0.66 0.67 0.64 0.63 0.68 0.72 0.71 0.71 0.72 0.71 0.76 0.89 0.99 0.86 0.77 0.68 0.56 0.69 0.70 0.73 0.93 0.98 0.96 1.03 1.22 1.17 1.34 1.09 1.25 1.82 2.26 2.55 2.45 2.12 1.76 1.55 1.34 1.07 0.90 0.73 0.61 0.56
0.55 0.54 0.55 0.57 0.60 0.59 0.64 0.67 0.61 0.64 0.65 0.62 0.67 0.83 0.81 0.72 0.62 0.52 0.52 0.58 0.69 0.81 0.85 0.99 0.96 0.96 0.99 1.21 1.33 1.24 1.35 1.58 2.20 2.65 2.60 2.12 1.61 1.25 1.13 1.10 1.01 0.85 0.69
0.53 0.48 0.49 0.47 0.49 0.50 0.61 0.55 0.55 0.59 0.62 0.54 0.50 0.54 0.59 0.63 0.67 0.65 0.55 0.53 0.62 0.70 0.74 0.76 0.80 0.92 1.06 1.17 1.28 1.22 1.03 1.14 1.61 2.17 2.51 2.39 1.93 1.49 1.22 1.21 1.38 1.33 1.04
0.66 0.54 0.54 0.50 0.46 0.43 0.48 0.49 0.58 0.60 0.58 0.53 0.48 0.49 0.51 0.51 0.52 0.58 0.53 0.48 0.51 0.47 0.52 0.61 0.74 0.82 0.89 1.08 1.31 1.17 0.93 0.86 1.05 1.44 1.82 1.99 1.96 1.69 1.39 1.31 1.59 1.81 1.64
0.76 0.65 0.59 0.56 0.50 0.44 0.41 0.44 0.53 0.56 0.61 0.61 0.55 0.46 0.51 0.51 0.50 0.54 0.45 0.38 0.40 0.33 0.34 0.40 0.53 0.68 0.81 0.97 0.98 0.97 0.99 0.93 0.92 1.00 1.16 1.37 1.58 1.61 1.52 1.55 1.77 2.01 2.08
0.67 0.60 0.55 0.53 0.47 0.45 0.47 0.50 0.49 0.49 0.53 0.59 0.57 0.50 0.47 0.44 0.49 0.50 0.44 0.38 0.42 0.39 0.50 0.48 0.53 0.71 0.77 0.99 0.98 0.99 0.98 0.98 0.83 0.76 0.80 0.90 1.04 1.23 1.40 1.50 1.69 1.89 2.07
0.67 0.67 0.63 0.53 0.50 0.51 0.49 0.54 0.48 0.45 0.48 0.50 0.46 0.57 0.54 0.40 0.45 0.48 0.50 0.59 0.57 0.59 0.64 0.59 0.65 0.88 1.10 1.14 1.15 1.06 0.88 0.85 0.74 0.68 0.62 0.63 0.69 0.80 0.92 1.05 1.21 1.32 1.44
0.77 0.80 0.70 0.59 0.59 0.61 0.61 0.62 0.54 0.52 0.52 0.50 0.52 0.63 0.62 0.54 0.53 0.51 0.56 0.69 0.79 0.71 0.69 0.76 0.85 0.92 1.04 1.07 1.07 0.99 0.83 0.79 0.70 0.62 0.56 0.53 0.54 0.59 0.65 0.70 0.75 0.81 0.88
0.76 0.79 0.72 0.64 0.64 0.63 0.65 0.69 0.61 0.62 0.62 0.61 0.65 0.71 0.74 0.70 0.68 0.66 0.66 0.74 0.88 0.88 0.83 0.79 0.86 0.87 0.88 0.75 0.76 0.75 0.73 0.73 0.64 0.57 0.55 0.52 0.49 0.49 0.51 0.56 0.59 0.60 0.62
0.81 0.76 0.73 0.70 0.67 0.66 0.69 0.73 0.73 0.71 0.67 0.70 0.70 0.71 0.74 0.81 0.86 0.85 0.88 0.87 0.91 1.04 1.00 0.84 0.92 1.00 0.92 0.75 0.66 0.64 0.62 0.64 0.60 0.60 0.56 0.54 0.51 0.49 0.47 0.45 0.50 0.53 0.53
0.82 0.80 0.78 0.74 0.65 0.63 0.72 0.77 0.76 0.76 0.76 0.74 0.78 0.85 0.82 0.82 0.90 0.94 1.04 1.03 1.05 1.22 1.23 1.08 1.08 1.14 1.04 0.90 0.77 0.67 0.55 0.52 0.53 0.59 0.58 0.57 0.54 0.51 0.48 0.46 0.44 0.44 0.43
0.87 0.82 0.81 0.76 0.70 0.67 0.70 0.73 0.80 0.85 0.87 0.89 0.91 0.96 0.99 1.04 1.03 1.04 1.09 1.10 1.15 1.31 1.39 1.31 1.28 1.36 1.36 1.15 0.96 0.77 0.64 0.64 0.54 0.57 0.60 0.61 0.59 0.56 0.51 0.50 0.51 0.47 0.42
0.93 0.97 0.97 0.97 0.94 0.89 0.84 0.81 0.85 0.89 0.91 0.95 1.03 1.03 1.03 1.11 1.18 1.24 1.27 1.36 1.43 1.52 1.60 1.55 1.53 1.63 1.65 1.52 1.30 1.03 0.91 0.84 0.73 0.62 0.65 0.66 0.64 0.60 0.54 0.49 0.46 0.46 0.44
1.14 1.25 1.26 1.20 1.16 1.10 0.98 0.97 0.94 0.90 0.97 0.92 0.97 1.02 0.99 1.03 1.10 1.23 1.27 1.39 1.55 1.71 1.86 1.91 1.91 2.05 1.99 1.81 1.56 1.22 1.08 0.97 0.86 0.75 0.69 0.61 0.58 0.53 0.50 0.48 0.46 0.44 0.41
1.37 1.42 1.36 1.32 1.30 1.13 1.17 1.15 1.07 1.09 1.13 1.11 1.12 1.15 1.11 1.06 1.05 1.10 1.19 1.30 1.45 1.62 1.84 2.02 2.11 2.17 2.19 2.02 1.79 1.50 1.16 0.92 0.82 0.75 0.75 0.68 0.61 0.57 0.51 0.46 0.50 0.47 0.43
1.31 1.36 1.35 1.29 1.22 1.20 1.13 1.01 1.01 1.02 1.08 1.13 1.14 1.16 1.05 0.95 0.99 0.96 1.01 1.06 1.11 1.21 1.32 1.53 1.72 1.80 1.94 2.00 1.85 1.53 1.24 1.03 0.86 0.80 0.80 0.72 0.67 0.64 0.57 0.54 0.59 0.50 0.44
1.49 1.47 1.39 1.33 1.33 1.27 1.14 1.00 1.00 0.95 0.98 1.01 1.04 1.06 1.05 0.97 0.93 0.95 0.95 0.91 0.85 0.84 0.89 0.95 1.08 1.30 1.51 1.72 1.77 1.65 1.54 1.28 1.02 0.84 0.80 0.74 0.65 0.61 0.58 0.55 0.57 0.52 0.46
1.54 1.54 1.54 1.52 1.53 1.51 1.39 1.16 1.07 1.06 1.13 1.11 1.10 1.10 1.10 1.01 1.00 0.87 0.85 0.82 0.77 0.74 0.71 0.76 0.84 1.02 1.25 1.42 1.60 1.59 1.48 1.36 1.14 0.90 0.78 0.73 0.63 0.57 0.53 0.48 0.47 0.48 0.45
1.40 1.38 1.39 1.44 1.47 1.51 1.48 1.16 1.00 0.94 1.02 1.05 1.10 1.11 1.09 0.97 0.97 0.88 0.88 0.89 0.82 0.75 0.73 0.71 0.73 0.81 0.89 1.12 1.34 1.36 1.29 1.24 1.12 0.92 0.72 0.65 0.57 0.55 0.56 0.44 0.36 0.37 0.39

GEFSMA_prec_meanprecacc_156.txt.gz
Total_Precipitation_Accumulation
2.16 2.23 1.96 1.87 1.79 1.93 2.17 2.17 2.03 2.15 2.28 2.27 2.08 1.94 1.77 1.51 1.40 1.31 1.39 1.71 1.71 1.74 1.98 1.96 1.87 1.75 1.60 1.40 1.28 1.18 1.13 1.03 0.90 0.72 0.65 0.54 0.43 0.37 0.26 0.19 0.16 0.14 0.11
2.06 1.93 1.90 1.92 1.84 1.94 1.99 2.00 2.05 2.25 2.37 2.48 2.18 1.99 1.85 1.71 1.58 1.51 1.45 1.71 1.75 1.66 1.81 2.08 2.14 2.08 2.04 1.84 1.64 1.53 1.41 1.31 1.09 0.81 0.72 0.66 0.54 0.46 0.39 0.32 0.28 0.21 0.15
1.99 1.96 1.88 1.73 1.76 1.85 1.96 1.99 2.03 2.16 2.07 2.14 2.13 2.04 1.95 1.80 1.72 1.61 1.54 1.53 1.39 1.54 1.72 1.92 2.07 2.13 2.20 2.12 2.06 1.99 1.78 1.51 1.24 0.92 0.71 0.67 0.61 0.50 0.45 0.42 0.41 0.33 0.26
1.74 1.78 1.63 1.59 1.68 1.56 1.59 1.68 1.63 1.69 1.75 1.88 1.91 1.80 1.74 1.72 1.61 1.60 1.53 1.44 1.43 1.23 1.54 1.86 1.96 1.88 2.05 2.24 2.41 2.49 2.11 1.63 1.30 1.05 0.83 0.70 0.65 0.53 0.43 0.38 0.37 0.39 0.32
1.22 1.28 1.26 1.32 1.32 1.28 1.28 1.19 1.39 1.47 1.58 1.67 1.65 1.56 1.45 1.55 1.53 1.47 1.43 1.25 1.37 1.29 1.29 1.44 1.67 1.65 1.89 2.28 2.63 2.76 2.53 2.01 1.54 1.32 1.15 1.00 0.91 0.73 0.53 0.44 0.39 0.36 0.31
1.08 1.03 1.01 1.03 0.98 1.03 1.11 1.16 1.25 1.25 1.24 1.31 1.26 1.29 1.25 1.12 1.23 1.27 1.18 1.17 1.13 0.96 1.01 1.20 1.46 1.30 1.63 2.02 2.35 2.52 2.64 2.53 2.09 1.69 1.50 1.46 1.39 1.10 0.71 0.55 0.48 0.41 0.33
0.95 0.96 0.86 0.86 0.79 0.82 0.85 0.85 0.94 0.97 0.95 1.01 1.17 1.20 1.02 0.86 0.89 0.89 0.92 1.04 0.95 0.95 1.04 1.17 1.29 1.31 1.24 1.37 1.56 1.91 2.39 2.61 2.46 2.07 1.77 1.59 1.55 1.36 0.95 0.73 0.59 0.54 0.49
0.75 0.73 0.76 0.72 0.69 0.76 0.79 0.79 0.80 0.82 0.81 0.83 0.96 1.10 0.99 0.90 0.76 0.60 0.71 0.71 0.75 0.95 1.01 1.00 1.07 1.27 1.21 1.38 1.11 1.27 1.85 2.28 2.58 2.47 2.15 1.79 1.57 1.35 1.09 0.91 0.73 0.61 0.57
0.62 0.60 0.61 0.63 0.67 0.65 0.73 0.77 0.70 0.76 0.78 0.72 0.74 0.93 0.95 0.90 0.76 0.58 0.54 0.59 0.71 0.84 0.88 1.03 1.00 1.00 1.01 1.24 1.38 1.27 1.37 1.60 2.23 2.68 2.63 2.14 1.62 1.26 1.14 1.11 1.02 0.86 0.71
0.61 0.53 0.53 0.52 0.55 0.55 0.69 0.61 0.64 0.70 0.74 0.64 0.60 0.62 0.68 0.75 0.82 0.76 0.62 0.58 0.66 0.73 0.77 0.79 0.85 0.98 1.11 1.21 1.33 1.25 1.06 1.16 1.63 2.20 2.54 2.41 1.96 1.51 1.23 1.22 1.39 1.34 1.06
0.72 0.61 0.61 0.56 0.52 0.49 0.56 0.56 0.70 0.70 0.69 0.64 0.58 0.57 0.62 0.60 0.61 0.68 0.66 0.57 0.58 0.50 0.54 0.64 0.80 0.90 0.96 1.13 1.35 1.20 0.96 0.87 1.06 1.47 1.84 2.02 2.00 1.72 1.42 1.34 1.62 1.84 1.66
0.84 0.74 0.69 0.66 0.58 0.53 0.53 0.53 0.64 0.67 0.72 0.73 0.64 0.55 0.61 0.60 0.58 0.64 0.56 0.46 0.48 0.36 0.37 0.44 0.56 0.71 0.86 1.03 1.04 1.02 1.04 0.96 0.93 1.02 1.18 1.39 1.60 1.64 1.56 1.59 1.82 2.05 2.13
0.75 0.69 0.66 0.64 0.55 0.55 0.59 0.63 0.62 0.63 0.66 0.71 0.65 0.58 0.56 0.52 0.56 0.58 0.53 0.47 0.50 0.44 0.54 0.51 0.57 0.78 0.84 1.09 1.10 1.09 1.04 1.02 0.86 0.79 0.83 0.91 1.05 1.25 1.42 1.53 1.73 1.94 2.13
0.74 0.74 0.73 0.64 0.61 0.62 0.59 0.68 0.59 0.55 0.60 0.60 0.54 0.67 0.63 0.47 0.52 0.56 0.60 0.70 0.70 0.68 0.71 0.65 0.71 0.94 1.15 1.21 1.25 1.15 0.94 0.90 0.79 0.72 0.65 0.66 0.72 0.82 0.93 1.07 1.23 1.36 1.49
0.84 0.89 0.81 0.70 0.73 0.75 0.75 0.78 0.66 0.63 0.65 0.60 0.60 0.72 0.72 0.61 0.60 0.59 0.65 0.79 0.92 0.84 0.80 0.87 0.93 1.00 1.11 1.15 1.16 1.05 0.90 0.86 0.75 0.64 0.58 0.55 0.56 0.60 0.67 0.72 0.76 0.83 0.90
0.84 0.88 0.83 0.75 0.75 0.76 0.79 0.84 0.75 0.75 0.76 0.73 0.77 0.84 0.85 0.78 0.76 0.74 0.74 0.82 0.99 1.01 0.94 0.89 0.95 0.95 0.95 0.82 0.83 0.80 0.78 0.79 0.68 0.60 0.57 0.53 0.50 0.50 0.52 0.58 0.61 0.61 0.63
0.89 0.83 0.81 0.81 0.77 0.78 0.83 0.89 0.86 0.84 0.78 0.81 0.81 0.83 0.85 0.90 0.97 0.96 0.99 0.98 1.02 1.16 1.12 0.94 1.01 1.09 1.01 0.82 0.71 0.69 0.67 0.67 0.63 0.64 0.60 0.57 0.54 0.51 0.48 0.46 0.51 0.55 0.55
0.89 0.88 0.86 0.81 0.72 0.74 0.86 0.91 0.87 0.87 0.86 0.84 0.87 0.94 0.91 0.92 1.01 1.07 1.17 1.14 1.17 1.34 1.35 1.19 1.17 1.23 1.13 0.98 0.84 0.74 0.61 0.57 0.57 0.65 0.65 0.62 0.58 0.54 0.50 0.48 0.47 0.46 0.47
0.95 0.91 0.88 0.81 0.76 0.73 0.80 0.85 0.90 0.97 0.98 1.00 1.03 1.07 1.08 1.14 1.13 1.15 1.20 1.19 1.24 1.40 1.48 1.41 1.38 1.46 1.45 1.22 1.05 0.86 0.73 0.74 0.63 0.64 0.67 0.65 0.62 0.59 0.54 0.54 0.54 0.50 0.46
0.97 1.01 1.02 1.02 0.99 0.94 0.90 0.90 0.94 0.98 1.02 1.07 1.17 1.19 1.18 1.24 1.30 1.34 1.36 1.45 1.53 1.63 1.71 1.66 1.64 1.74 1.75 1.61 1.41 1.12 1.01 0.93 0.82 0.69 0.71 0.70 0.67 0.62 0.56 0.51 0.50 0.49 0.48
1.17 1.29 1.30 1.25 1.22 1.16 1.04 1.06 1.04 1.00 1.09 1.05 1.11 1.18 1.15 1.18 1.24 1.34 1.37 1.51 1.67 1.84 1.99 2.03 2.03 2.16 2.09 1.91 1.65 1.32 1.19 1.08 0.96 0.83 0.76 0.67 0.62 0.57 0.53 0.52 0.50 0.49 0.47
1.41 1.47 1.41 1.37 1.35 1.17 1.22 1.21 1.13 1.16 1.22 1.20 1.21 1.25 1.20 1.15 1.14 1.20 1.28 1.40 1.54 1.73 1.96 2.15 2.24 2.29 2.30 2.13 1.89 1.60 1.26 1.02 0.91 0.83 0.82 0.75 0.66 0.61 0.54 0.50 0.55 0.52 0.49
1.35 1.39 1.38 1.33 1.26 1.24 1.17 1.05 1.05 1.07 1.16 1.21 1.22 1.25 1.13 1.02 1.06 1.03 1.09 1.14 1.19 1.29 1.43 1.64 1.84 1.90 2.04 2.09 1.93 1.61 1.32 1.10 0.92 0.85 0.85 0.78 0.73 0.70 0.63 0.60 0.66 0.56 0.50
1.51 1.49 1.41 1.35 1.36 1.30 1.15 1.02 1.03 0.99 1.04 1.07 1.10 1.13 1.13 1.05 1.01 1.04 1.03 1.00 0.93 0.92 0.97 1.02 1.16 1.38 1.57 1.79 1.84 1.72 1.61 1.35 1.07 0.87 0.83 0.77 0.68 0.64 0.62 0.60 0.63 0.58 0.53
1.56 1.56 1.55 1.53 1.54 1.53 1.40 1.17 1.08 1.07 1.15 1.14 1.12 1.13 1.15 1.07 1.08 0.97 0.95 0.94 0.88 0.84 0.81 0.84 0.91 1.08 1.30 1.47 1.65 1.64 1.54 1.41 1.19 0.94 0.81 0.76 0.66 0.61 0.56 0.51 0.50 0.52 0.50
1.41 1.39 1.40 1.45 1.49 1.52 1.49 1.17 1.01 0.95 1.03 1.07 1.12 1.13 1.12 1.02 1.05 0.97 0.98 1.02 0.95 0.86 0.83 0.80 0.82 0.89 0.96 1.19 1.40 1.41 1.34 1.30 1.18 0.97 0.76 0.70 0.62 0.59 0.60 0.48 0.39 0.40 0.42

GEFSMA_prec_meanprecacc_162.txt.gz
Total_Precipitation_Accumulation
2.22 2.25 1.98 1.89 1.81 1.95 2.20 2.19 2.06 2.19 2.32 2.31 2.12 1.99 1.81 1.54 1.43 1.33 1.40 1.73 1.72 1.75 1.98 1.97 1.88 1.76 1.61 1.41 1.30 1.19 1.13 1.04 0.91 0.73 0.66 0.55 0.44 0.37 0.27 0.20 0.16 0.14 0.12
2.09 1.95 1.92 1.95 1.88 1.98 2.03 2.02 2.07 2.27 2.40 2.51 2.21 2.01 1.88 1.73 1.61 1.54 1.47 1.73 1.78 1.68 1.83 2.09 2.16 2.10 2.06 1.87 1.66 1.54 1.43 1.33 1.10 0.82 0.72 0.67 0.55 0.47 0.40 0.33 0.28 0.22 0.16
2.02 2.00 1.91 1.76 1.80 1.89 1.99 2.02 2.06 2.18 2.10 2.17 2.16 2.06 1.97 1.82 1.75 1.63 1.56 1.54 1.40 1.56 1.74 1.94 2.10 2.15 2.23 2.14 2.07 2.00 1.80 1.53 1.25 0.93 0.72 0.68 0.61 0.51 0.46 0.43 0.42 0.34 0.26
1.77 1.81 1.66 1.62 1.71 1.58 1.61 1.70 1.66 1.73 1.80 1.94 1.96 1.84 1.78 1.77 1.66 1.63 1.56 1.46 1.45 1.24 1.55 1.88 1.98 1.90 2.07 2.26 2.44 2.51 2.13 1.64 1.31 1.06 0.84 0.71 0.66 0.54 0.44 0.39 0.38 0.40 0.32
1.27 1.31 1.29 1.35 1.36 1.31 1.30 1.21 1.42 1.51 1.62 1.72 1.70 1.60 1.50 1.61 1.59 1.51 1.47 1.28 1.40 1.31 1.31 1.45 1.69 1.66 1.91 2.32 2.68 2.80 2.56 2.03 1.56 1.34 1.17 1.02 0.93 0.75 0.54 0.45 0.40 0.37 0.32
1.13 1.07 1.04 1.07 1.02 1.07 1.15 1.19 1.29 1.29 1.28 1.35 1.30 1.34 1.32 1.18 1.29 1.32 1.22 1.22 1.17 0.98 1.03 1.21 1.47 1.31 1.65 2.06 2.40 2.58 2.70 2.57 2.12 1.71 1.52 1.48 1.41 1.12 0.73 0.57 0.49 0.43 0.35
1.01 1.01 0.90 0.91 0.85 0.87 0.89 0.89 0.97 1.01 0.99 1.06 1.23 1.25 1.09 0.93 0.95 0.94 0.97 1.09 1.00 1.00 1.08 1.21 1.31 1.33 1.26 1.40 1.60 1.97 2.47 2.67 2.51 2.11 1.81 1.61 1.58 1.39 0.97 0.75 0.61 0.55 0.50
0.83 0.78 0.80 0.77 0.73 0.82 0.84 0.82 0.83 0.85 0.84 0.87 1.01 1.14 1.02 0.94 0.81 0.64 0.76 0.76 0.80 1.02 1.08 1.07 1.12 1.31 1.25 1.42 1.15 1.32 1.92 2.35 2.65 2.54 2.21 1.83 1.60 1.38 1.11 0.93 0.74 0.62 0.57
0.68 0.66 0.67 0.68 0.71 0.69 0.76 0.79 0.72 0.78 0.82 0.76 0.77 0.97 1.00 0.95 0.80 0.61 0.58 0.66 0.79 0.92 0.97 1.12 1.09 1.08 1.08 1.32 1.47 1.35 1.43 1.65 2.28 2.73 2.68 2.17 1.64 1.27 1.16 1.13 1.04 0.87 0.72
0.66 0.57 0.56 0.56 0.59 0.59 0.72 0.64 0.66 0.73 0.77 0.68 0.63 0.65 0.74 0.80 0.85 0.78 0.65 0.63 0.74 0.83 0.87 0.90 0.98 1.11 1.22 1.31 1.45 1.38 1.13 1.20 1.68 2.25 2.60 2.46 1.99 1.52 1.25 1.24 1.42 1.38 1.09
0.78 0.66 0.65 0.60 0.57 0.55 0.60 0.59 0.74 0.75 0.73 0.67 0.62 0.62 0.67 0.64 0.63 0.71 0.68 0.61 0.63 0.57 0.62 0.72 0.92 1.05 1.12 1.28 1.52 1.35 1.08 0.96 1.12 1.51 1.89 2.08 2.06 1.76 1.46 1.38 1.67 1.89 1.71
0.90 0.81 0.77 0.73 0.64 0.59 0.57 0.56 0.68 0.73 0.79 0.78 0.69 0.63 0.67 0.65 0.62 0.67 0.58 0.49 0.51 0.41 0.42 0.49 0.65 0.79 0.92 1.14 1.23 1.21 1.16 1.07 1.02 1.09 1.24 1.44 1.66 1.70 1.62 1.65 1.87 2.10 2.17
0.80 0.75 0.73 0.70 0.60 0.59 0.65 0.70 0.70 0.70 0.73 0.78 0.72 0.66 0.64 0.57 0.61 0.63 0.57 0.50 0.54 0.47 0.57 0.56 0.64 0.86 0.94 1.18 1.21 1.19 1.13 1.12 0.96 0.87 0.88 0.96 1.10 1.30 1.48 1.59 1.80 2.00 2.19
0.80 0.80 0.78 0.70 0.66 0.68 0.68 0.79 0.68 0.64 0.68 0.69 0.61 0.73 0.70 0.52 0.59 0.62 0.67 0.77 0.75 0.71 0.74 0.68 0.77 1.04 1.27 1.31 1.35 1.24 1.02 0.99 0.88 0.80 0.71 0.71 0.77 0.87 0.97 1.11 1.27 1.39 1.52
0.90 0.95 0.86 0.75 0.78 0.81 0.82 0.86 0.74 0.71 0.74 0.68 0.68 0.80 0.79 0.68 0.66 0.64 0.72 0.87 0.99 0.89 0.84 0.91 0.98 1.05 1.20 1.26 1.29 1.16 1.00 0.96 0.84 0.72 0.64 0.61 0.61 0.65 0.70 0.74 0.78 0.85 0.91
0.88 0.93 0.88 0.79 0.79 0.80 0.84 0.89 0.79 0.80 0.82 0.80 0.84 0.90 0.91 0.83 0.81 0.78 0.79 0.89 1.07 1.09 1.01 0.95 1.01 1.01 1.01 0.89 0.94 0.89 0.87 0.88 0.77 0.69 0.64 0.60 0.56 0.56 0.57 0.62 0.65 0.64 0.66
0.93 0.87 0.86 0.86 0.81 0.83 0.88 0.94 0.91 0.89 0.84 0.87 0.87 0.89 0.90 0.96 1.02 1.02 1.06 1.07 1.12 1.27 1.22 1.02 1.07 1.16 1.09 0.91 0.82 0.80 0.77 0.74 0.69 0.70 0.67 0.64 0.61 0.57 0.54 0.52 0.55 0.58 0.58
0.94 0.93 0.91 0.86 0.76 0.77 0.90 0.95 0.93 0.93 0.91 0.88 0.93 1.02 0.99 1.00 1.09 1.14 1.26 1.25 1.27 1.45 1.45 1.28 1.25 1.32 1.24 1.10 0.97 0.86 0.71 0.65 0.64 0.72 0.71 0.67 0.62 0.57 0.54 0.52 0.50 0.49 0.50
1.00 0.96 0.93 0.85 0.79 0.76 0.83 0.88 0.94 1.02 1.04 1.06 1.10 1.15 1.14 1.23 1.22 1.25 1.31 1.29 1.34 1.50 1.60 1.51 1.47 1.56 1.56 1.32 1.14 0.95 0.83 0.82 0.71 0.72 0.74 0.71 0.67 0.62 0.57 0.57 0.57 0.53 0.48
1.02 1.05 1.06 1.06 1.03 0.97 0.93 0.94 1.01 1.05 1.08 1.13 1.22 1.24 1.25 1.33 1.40 1.45 1.47 1.55 1.63 1.75 1.85 1.79 1.77 1.87 1.87 1.71 1.49 1.19 1.10 1.02 0.89 0.75 0.78 0.76 0.72 0.67 0.60 0.55 0.53 0.53 0.52
1.22 1.34 1.34 1.29 1.25 1.20 1.07 1.10 1.10 1.06 1.15 1.11 1.17 1.23 1.22 1.26 1.33 1.44 1.47 1.61 1.79 1.96 2.11 2.16 2.16 2.31 2.23 2.03 1.76 1.41 1.29 1.18 1.04 0.89 0.81 0.71 0.66 0.60 0.57 0.55 0.53 0.52 0.50
1.47 1.52 1.46 1.42 1.39 1.21 1.26 1.25 1.17 1.21 1.26 1.24 1.27 1.31 1.27 1.21 1.18 1.24 1.34 1.46 1.61 1.79 2.03 2.24 2.34 2.41 2.43 2.26 2.03 1.74 1.39 1.12 0.99 0.89 0.87 0.79 0.69 0.64 0.57 0.52 0.58 0.55 0.52
1.38 1.43 1.43 1.37 1.29 1.27 1.21 1.08 1.09 1.10 1.19 1.25 1.25 1.28 1.17 1.06 1.10 1.06 1.14 1.20 1.24 1.35 1.49 1.71 1.93 2.00 2.15 2.20 2.05 1.73 1.43 1.18 0.99 0.92 0.91 0.83 0.77 0.72 0.65 0.63 0.69 0.59 0.53
1.55 1.53 1.44 1.37 1.37 1.32 1.18 1.05 1.06 1.02 1.07 1.10 1.11 1.15 1.15 1.06 1.04 1.07 1.08 1.04 0.97 0.98 1.04 1.09 1.23 1.46 1.67 1.89 1.94 1.81 1.69 1.43 1.15 0.95 0.89 0.84 0.74 0.69 0.66 0.63 0.68 0.62 0.57
1.63 1.61 1.58 1.55 1.55 1.55 1.42 1.19 1.10 1.08 1.17 1.16 1.15 1.15 1.16 1.08 1.10 1.00 0.98 0.97 0.92 0.88 0.88 0.93 1.01 1.18 1.40 1.57 1.75 1.74 1.64 1.51 1.28 1.02 0.88 0.83 0.73 0.67 0.63 0.56 0.56 0.57 0.54
1.48 1.46 1.45 1.48 1.50 1.53 1.52 1.20 1.02 0.96 1.04 1.08 1.14 1.14 1.13 1.04 1.07 0.99 1.00 1.04 0.97 0.89 0.88 0.86 0.89 0.97 1.04 1.27 1.50 1.51 1.44 1.40 1.28 1.07 0.85 0.79 0.72 0.69 0.70 0.55 0.44 0.44 0.45

GEFSMA_prec_meanprecacc_168.txt.gz
Total_Precipitation_Accumulation
2.22 2.25 1.98 1.89 1.82 1.96 2.20 2.20 2.07 2.21 2.34 2.33 2.14 2.00 1.84 1.56 1.44 1.34 1.42 1.76 1.76 1.77 2.01 1.99 1.90 1.78 1.63 1.43 1.31 1.21 1.16 1.07 0.93 0.75 0.68 0.57 0.46 0.38 0.28 0.21 0.17 0.15 0.14
2.09 1.95 1.93 1.96 1.90 2.00 2.03 2.03 2.10 2.30 2.42 2.53 2.23 2.02 1.90 1.75 1.63 1.55 1.49 1.76 1.83 1.72 1.85 2.11 2.19 2.13 2.08 1.88 1.68 1.57 1.46 1.36 1.12 0.84 0.74 0.68 0.57 0.49 0.42 0.36 0.30 0.23 0.17
2.04 2.01 1.93 1.78 1.82 1.91 2.00 2.03 2.08 2.22 2.13 2.21 2.18 2.08 1.99 1.85 1.78 1.65 1.57 1.55 1.43 1.60 1.78 1.97 2.13 2.18 2.26 2.17 2.11 2.03 1.83 1.55 1.27 0.95 0.74 0.69 0.62 0.52 0.47 0.45 0.43 0.36 0.28
1.81 1.84 1.68 1.63 1.72 1.60 1.62 1.71 1.66 1.75 1.83 1.98 2.00 1.88 1.83 1.81 1.70 1.67 1.58 1.47 1.46 1.26 1.59 1.92 2.04 1.95 2.12 2.31 2.50 2.55 2.16 1.67 1.32 1.07 0.85 0.72 0.68 0.56 0.45 0.40 0.39 0.41 0.33
1.35 1.36 1.32 1.38 1.39 1.34 1.33 1.24 1.44 1.52 1.64 1.75 1.73 1.64 1.56 1.65 1.62 1.53 1.49 1.30 1.42 1.33 1.32 1.49 1.75 1.72 1.98 2.39 2.74 2.85 2.60 2.07 1.58 1.35 1.18 1.03 0.95 0.77 0.55 0.46 0.41 0.38 0.34
1.21 1.13 1.09 1.12 1.07 1.11 1.19 1.24 1.33 1.32 1.31 1.39 1.35 1.39 1.38 1.22 1.32 1.35 1.24 1.23 1.19 1.00 1.05 1.23 1.50 1.35 1.72 2.13 2.47 2.66 2.77 2.63 2.17 1.75 1.55 1.50 1.44 1.16 0.76 0.59 0.51 0.44 0.36
1.11 1.10 0.97 0.96 0.88 0.90 0.93 0.95 1.03 1.04 1.02 1.10 1.27 1.29 1.12 0.96 0.97 0.96 0.99 1.12 1.03 1.03 1.12 1.25 1.36 1.36 1.31 1.47 1.68 2.06 2.56 2.77 2.61 2.18 1.86 1.66 1.63 1.43 1.00 0.77 0.62 0.56 0.51
0.91 0.85 0.86 0.82 0.77 0.86 0.89 0.88 0.88 0.89 0.88 0.91 1.04 1.18 1.05 0.94 0.82 0.66 0.78 0.78 0.83 1.05 1.12 1.12 1.19 1.37 1.30 1.46 1.21 1.39 2.01 2.46 2.77 2.65 2.29 1.90 1.65 1.42 1.13 0.95 0.76 0.63 0.58
0.79 0.74 0.72 0.74 0.77 0.74 0.81 0.84 0.76 0.81 0.85 0.80 0.81 1.00 1.02 0.96 0.80 0.62 0.59 0.68 0.81 0.94 1.00 1.16 1.13 1.12 1.13 1.38 1.53 1.41 1.49 1.74 2.39 2.86 2.80 2.26 1.69 1.31 1.19 1.16 1.06 0.89 0.73
0.79 0.69 0.64 0.62 0.66 0.66 0.79 0.70 0.70 0.76 0.80 0.71 0.66 0.67 0.76 0.80 0.86 0.78 0.66 0.63 0.75 0.84 0.89 0.94 1.03 1.17 1.28 1.38 1.52 1.46 1.22 1.28 1.76 2.36 2.72 2.57 2.08 1.58 1.28 1.28 1.47 1.43 1.13
0.90 0.77 0.73 0.66 0.65 0.64 0.69 0.69 0.82 0.79 0.76 0.70 0.64 0.65 0.70 0.65 0.64 0.72 0.68 0.62 0.64 0.57 0.63 0.75 0.97 1.11 1.18 1.33 1.58 1.42 1.15 1.03 1.19 1.58 1.99 2.19 2.17 1.86 1.54 1.44 1.73 1.96 1.77
0.98 0.88 0.85 0.81 0.75 0.70 0.67 0.65 0.76 0.81 0.84 0.82 0.74 0.68 0.71 0.68 0.64 0.69 0.60 0.50 0.52 0.42 0.43 0.52 0.68 0.84 0.98 1.19 1.27 1.26 1.22 1.15 1.10 1.18 1.31 1.52 1.75 1.79 1.71 1.73 1.96 2.18 2.24
0.85 0.80 0.79 0.76 0.67 0.68 0.74 0.79 0.79 0.78 0.81 0.84 0.79 0.72 0.70 0.62 0.65 0.66 0.59 0.52 0.55 0.48 0.59 0.59 0.66 0.88 0.97 1.22 1.25 1.24 1.19 1.19 1.02 0.94 0.96 1.03 1.16 1.36 1.54 1.66 1.87 2.07 2.27
0.83 0.85 0.82 0.74 0.71 0.73 0.73 0.84 0.73 0.69 0.74 0.75 0.68 0.82 0.78 0.59 0.66 0.69 0.71 0.81 0.77 0.72 0.75 0.70 0.78 1.05 1.29 1.33 1.39 1.31 1.08 1.05 0.92 0.83 0.76 0.76 0.83 0.94 1.04 1.17 1.33 1.44 1.58
0.93 0.99 0.91 0.80 0.80 0.85 0.86 0.90 0.77 0.74 0.78 0.73 0.74 0.88 0.87 0.75 0.75 0.72 0.79 0.93 1.04 0.92 0.85 0.92 1.00 1.08 1.24 1.31 1.37 1.25 1.08 1.04 0.90 0.77 0.70 0.67 0.68 0.73 0.78 0.81 0.85 0.92 0.99
0.90 0.96 0.92 0.83 0.83 0.84 0.88 0.93 0.83 0.84 0.85 0.83 0.88 0.95 0.96 0.91 0.90 0.86 0.87 0.96 1.13 1.14 1.04 0.97 1.04 1.06 1.10 1.01 1.09 1.03 1.00 1.02 0.88 0.79 0.74 0.70 0.65 0.65 0.66 0.72 0.74 0.73 0.74
0.94 0.89 0.89 0.90 0.86 0.87 0.93 0.97 0.94 0.92 0.87 0.90 0.90 0.92 0.93 1.00 1.06 1.08 1.13 1.14 1.18 1.32 1.27 1.06 1.12 1.25 1.22 1.06 0.97 0.94 0.91 0.88 0.82 0.83 0.78 0.74 0.70 0.65 0.61 0.59 0.62 0.65 0.63
0.96 0.96 0.96 0.90 0.80 0.82 0.96 0.99 0.96 0.95 0.94 0.90 0.95 1.04 1.00 1.02 1.11 1.18 1.31 1.31 1.33 1.52 1.52 1.33 1.32 1.39 1.31 1.19 1.08 0.99 0.87 0.80 0.77 0.84 0.80 0.75 0.69 0.63 0.61 0.58 0.55 0.54 0.54
1.04 1.01 0.97 0.88 0.82 0.81 0.87 0.92 0.98 1.05 1.08 1.09 1.13 1.18 1.17 1.27 1.26 1.29 1.36 1.34 1.41 1.59 1.69 1.59 1.54 1.63 1.63 1.40 1.24 1.07 0.96 0.95 0.83 0.83 0.83 0.78 0.73 0.68 0.63 0.62 0.61 0.57 0.52
1.05 1.08 1.08 1.09 1.06 1.00 0.97 0.99 1.05 1.07 1.10 1.16 1.26 1.28 1.29 1.37 1.44 1.49 1.51 1.60 1.70 1.83 1.94 1.88 1.85 1.94 1.94 1.79 1.57 1.29 1.20 1.13 1.01 0.88 0.90 0.85 0.80 0.74 0.67 0.61 0.57 0.57 0.56
1.26 1.38 1.39 1.34 1.30 1.24 1.12 1.16 1.15 1.11 1.19 1.14 1.21 1.27 1.25 1.29 1.36 1.49 1.52 1.66 1.83 2.01 2.16 2.21 2.22 2.37 2.30 2.11 1.84 1.51 1.42 1.32 1.18 1.02 0.93 0.82 0.76 0.68 0.64 0.62 0.60 0.58 0.56
1.52 1.56 1.50 1.46 1.44 1.27 1.33 1.33 1.26 1.30 1.34 1.30 1.32 1.36 1.31 1.25 1.24 1.29 1.38 1.50 1.64 1.82 2.05 2.26 2.37 2.44 2.47 2.31 2.10 1.83 1.50 1.25 1.13 1.02 0.98 0.90 0.78 0.72 0.64 0.59 0.65 0.61 0.57
1.42 1.47 1.46 1.41 1.33 1.32 1.27 1.16 1.17 1.17 1.25 1.30 1.31 1.32 1.20 1.09 1.13 1.08 1.15 1.21 1.25 1.37 1.50 1.73 1.95 2.03 2.18 2.25 2.12 1.82 1.53 1.30 1.11 1.04 1.03 0.95 0.87 0.82 0.73 0.70 0.76 0.65 0.58
1.60 1.57 1.50 1.43 1.42 1.36 1.22 1.08 1.09 1.04 1.10 1.13 1.16 1.19 1.18 1.08 1.05 1.09 1.09 1.04 0.98 0.99 1.06 1.12 1.27 1.50 1.70 1.93 2.00 1.89 1.79 1.53 1.25 1.04 0.99 0.94 0.84 0.79 0.75 0.72 0.77 0.70 0.63
1.66 1.65 1.64 1.62 1.62 1.60 1.46 1.22 1.12 1.10 1.18 1.18 1.18 1.18 1.19 1.11 1.12 1.02 1.00 0.98 0.93 0.89 0.89 0.95 1.03 1.21 1.44 1.61 1.80 1.81 1.73 1.62 1.38 1.11 0.96 0.92 0.83 0.80 0.77 0.70 0.69 0.69 0.62
1.52 1.52 1.52 1.57 1.58 1.61 1.58 1.24 1.05 0.98 1.07 1.10 1.17 1.18 1.19 1.09 1.11 1.03 1.04 1.07 0.99 0.91 0.89 0.87 0.90 0.98 1.06 1.30 1.54 1.55 1.49 1.47 1.35 1.15 0.93 0.89 0.83 0.83 0.85 0.70 0.58 0.55 0.54

GEFSMA_prec_meanprecacc_174.txt.gz
Total_Precipitation_Accumulation
2.24 2.27 2.00 1.91 1.84 1.99 2.23 2.23 2.10 2.23 2.36 2.34 2.15 2.02 1.86 1.58 1.46 1.35 1.44 1.79 1.80 1.81 2.04 2.01 1.92 1.82 1.65 1.43 1.32 1.23 1.18 1.09 0.94 0.76 0.69 0.58 0.47 0.39 0.28 0.21 0.18 0.16 0.15
2.12 1.97 1.95 1.99 1.92 2.02 2.06 2.06 2.12 2.32 2.45 2.54 2.24 2.05 1.93 1.77 1.64 1.56 1.50 1.79 1.86 1.75 1.88 2.14 2.22 2.17 2.12 1.90 1.71 1.60 1.48 1.37 1.14 0.85 0.75 0.69 0.58 0.49 0.42 0.39 0.33 0.25 0.19
2.07 2.04 1.96 1.82 1.85 1.94 2.04 2.07 2.12 2.25 2.17 2.24 2.22 2.12 2.03 1.88 1.80 1.67 1.59 1.59 1.48 1.63 1.81 2.00 2.17 2.21 2.30 2.21 2.14 2.06 1.86 1.58 1.29 0.96 0.74 0.70 0.63 0.53 0.47 0.46 0.45 0.37 0.29
1.85 1.89 1.73 1.68 1.76 1.63 1.67 1.76 1.72 1.80 1.89 2.04 2.06 1.93 1.89 1.87 1.73 1.68 1.60 1.49 1.51 1.32 1.64 1.96 2.07 1.98 2.15 2.36 2.55 2.60 2.20 1.70 1.35 1.09 0.86 0.73 0.68 0.56 0.46 0.41 0.40 0.42 0.34
1.40 1.41 1.38 1.44 1.43 1.39 1.38 1.27 1.49 1.59 1.72 1.83 1.80 1.71 1.62 1.73 1.69 1.57 1.51 1.32 1.45 1.38 1.39 1.55 1.80 1.76 2.02 2.43 2.79 2.90 2.64 2.10 1.61 1.37 1.20 1.05 0.96 0.78 0.57 0.48 0.42 0.39 0.34
1.30 1.21 1.15 1.20 1.13 1.17 1.27 1.31 1.42 1.42 1.41 1.49 1.40 1.43 1.43 1.27 1.35 1.38 1.28 1.27 1.23 1.03 1.08 1.27 1.58 1.40 1.75 2.17 2.52 2.72 2.83 2.68 2.21 1.79 1.58 1.53 1.47 1.18 0.78 0.61 0.52 0.45 0.37
1.22 1.22 1.06 1.06 0.97 0.99 1.03 1.03 1.12 1.14 1.13 1.20 1.36 1.35 1.16 0.99 1.00 0.99 1.02 1.14 1.07 1.08 1.17 1.32 1.45 1.44 1.37 1.52 1.73 2.10 2.62 2.85 2.69 2.25 1.91 1.70 1.67 1.47 1.03 0.79 0.64 0.58 0.53
1.00 0.93 0.96 0.92 0.88 0.97 0.99 0.97 0.97 0.97 0.96 1.01 1.15 1.28 1.13 1.01 0.85 0.67 0.80 0.81 0.86 1.09 1.17 1.17 1.24 1.45 1.35 1.51 1.25 1.43 2.07 2.55 2.89 2.75 2.37 1.96 1.71 1.46 1.17 0.99 0.79 0.66 0.60
0.86 0.82 0.80 0.84 0.88 0.82 0.90 0.94 0.85 0.89 0.94 0.89 0.89 1.10 1.12 1.04 0.87 0.65 0.61 0.69 0.83 0.96 1.03 1.18 1.15 1.15 1.17 1.43 1.60 1.46 1.54 1.79 2.48 2.98 2.92 2.37 1.78 1.38 1.25 1.23 1.13 0.94 0.78
0.86 0.77 0.72 0.70 0.74 0.73 0.88 0.78 0.78 0.84 0.89 0.80 0.74 0.74 0.85 0.89 0.94 0.83 0.69 0.66 0.77 0.86 0.91 0.95 1.04 1.18 1.31 1.42 1.57 1.50 1.26 1.33 1.83 2.45 2.82 2.68 2.19 1.67 1.36 1.35 1.53 1.49 1.19
1.00 0.85 0.83 0.75 0.74 0.72 0.77 0.76 0.92 0.88 0.83 0.78 0.74 0.73 0.78 0.74 0.71 0.77 0.74 0.66 0.67 0.60 0.65 0.77 0.98 1.13 1.21 1.37 1.62 1.46 1.18 1.07 1.24 1.66 2.09 2.30 2.29 1.98 1.64 1.53 1.81 2.04 1.85
1.06 0.96 0.92 0.89 0.82 0.76 0.75 0.73 0.85 0.89 0.92 0.91 0.84 0.77 0.80 0.77 0.72 0.77 0.67 0.56 0.57 0.45 0.46 0.54 0.70 0.86 1.01 1.22 1.30 1.28 1.25 1.19 1.16 1.25 1.39 1.61 1.84 1.88 1.79 1.83 2.06 2.28 2.34
0.90 0.87 0.85 0.83 0.73 0.74 0.80 0.87 0.87 0.87 0.91 0.94 0.88 0.81 0.78 0.70 0.75 0.76 0.68 0.57 0.58 0.50 0.62 0.61 0.67 0.89 0.99 1.25 1.30 1.29 1.23 1.24 1.09 1.02 1.04 1.11 1.23 1.42 1.61 1.74 1.96 2.18 2.39
0.87 0.89 0.88 0.80 0.76 0.79 0.78 0.90 0.80 0.76 0.81 0.82 0.75 0.90 0.87 0.67 0.74 0.77 0.80 0.89 0.82 0.76 0.79 0.73 0.80 1.06 1.31 1.36 1.45 1.38 1.15 1.14 1.01 0.91 0.83 0.83 0.90 1.01 1.11 1.24 1.40 1.52 1.67
0.96 1.02 0.95 0.84 0.85 0.90 0.92 0.96 0.83 0.80 0.85 0.80 0.81 0.96 0.95 0.84 0.84 0.81 0.87 1.03 1.14 1.01 0.93 0.97 1.04 1.10 1.27 1.34 1.42 1.31 1.15 1.13 0.99 0.85 0.77 0.74 0.76 0.80 0.86 0.88 0.92 0.99 1.06
0.93 1.00 0.96 0.88 0.87 0.89 0.93 0.97 0.88 0.90 0.91 0.89 0.95 1.03 1.05 0.98 0.98 0.94 0.95 1.05 1.23 1.24 1.12 1.02 1.09 1.10 1.14 1.05 1.15 1.09 1.07 1.10 0.96 0.87 0.82 0.78 0.74 0.73 0.73 0.77 0.79 0.79 0.80
0.97 0.92 0.94 0.94 0.89 0.91 0.97 1.01 0.98 0.97 0.91 0.95 0.95 0.97 0.99 1.07 1.14 1.15 1.20 1.21 1.25 1.39 1.33 1.11 1.17 1.28 1.26 1.11 1.03 1.01 0.99 0.95 0.90 0.92 0.86 0.82 0.77 0.72 0.66 0.64 0.68 0.71 0.70
0.98 0.99 1.00 0.94 0.84 0.86 1.01 1.05 1.00 1.00 0.98 0.95 0.99 1.09 1.05 1.08 1.18 1.24 1.38 1.37 1.40 1.59 1.60 1.41 1.37 1.43 1.36 1.25 1.15 1.07 0.94 0.88 0.85 0.93 0.87 0.82 0.75 0.70 0.67 0.65 0.62 0.62 0.62
1.08 1.04 1.01 0.92 0.87 0.86 0.92 0.97 1.03 1.10 1.12 1.13 1.17 1.22 1.23 1.34 1.33 1.36 1.42 1.41 1.47 1.66 1.78 1.66 1.60 1.69 1.68 1.46 1.31 1.14 1.02 1.02 0.89 0.89 0.90 0.86 0.80 0.76 0.70 0.69 0.70 0.65 0.60
1.11 1.14 1.15 1.15 1.13 1.06 1.02 1.04 1.10 1.13 1.15 1.21 1.31 1.33 1.35 1.43 1.49 1.55 1.56 1.66 1.76 1.91 2.02 1.95 1.90 1.99 1.99 1.85 1.63 1.34 1.25 1.18 1.07 0.95 0.98 0.95 0.91 0.84 0.77 0.70 0.67 0.66 0.64
1.35 1.48 1.47 1.41 1.37 1.30 1.17 1.21 1.22 1.19 1.28 1.23 1.27 1.32 1.29 1.34 1.41 1.54 1.56 1.70 1.90 2.07 2.22 2.26 2.26 2.41 2.34 2.16 1.89 1.55 1.45 1.36 1.22 1.07 0.98 0.89 0.85 0.79 0.76 0.75 0.72 0.71 0.68
1.57 1.63 1.58 1.54 1.50 1.30 1.37 1.37 1.33 1.39 1.42 1.39 1.39 1.41 1.35 1.30 1.29 1.35 1.43 1.54 1.69 1.87 2.10 2.30 2.40 2.48 2.50 2.34 2.13 1.86 1.53 1.29 1.18 1.07 1.05 0.98 0.88 0.83 0.75 0.70 0.78 0.74 0.69
1.47 1.52 1.52 1.46 1.38 1.36 1.31 1.20 1.22 1.24 1.33 1.38 1.39 1.40 1.26 1.13 1.16 1.11 1.19 1.24 1.28 1.38 1.52 1.75 1.97 2.05 2.20 2.28 2.15 1.86 1.58 1.35 1.17 1.12 1.11 1.03 0.95 0.89 0.81 0.78 0.86 0.75 0.68
1.65 1.63 1.55 1.48 1.47 1.40 1.26 1.12 1.13 1.09 1.15 1.18 1.20 1.23 1.21 1.12 1.08 1.11 1.12 1.07 1.00 1.00 1.07 1.13 1.28 1.52 1.72 1.96 2.03 1.93 1.83 1.57 1.29 1.09 1.03 0.99 0.88 0.83 0.79 0.77 0.84 0.78 0.71
1.72 1.70 1.68 1.67 1.68 1.67 1.53 1.28 1.18 1.15 1.23 1.22 1.21 1.21 1.21 1.13 1.15 1.05 1.03 1.01 0.95 0.91 0.90 0.96 1.04 1.22 1.46 1.63 1.83 1.84 1.76 1.65 1.42 1.13 0.99 0.95 0.86 0.82 0.81 0.75 0.74 0.75 0.69
1.59 1.58 1.57 1.60 1.63 1.68 1.69 1.37 1.16 1.06 1.12 1.15 1.20 1.22 1.22 1.12 1.15 1.07 1.07 1.11 1.03 0.94 0.92 0.89 0.92 1.00 1.08 1.32 1.57 1.58 1.52 1.51 1.39 1.18 0.95 0.91 0.86 0.86 0.89 0.74 0.62 0.61 0.62

GEFSMA_prec_meanprecacc_180.txt.gz
Total_Precipitation_Accumulation
2.30 2.33 2.07 1.99 1.89 2.03 2.27 2.28 2.13 2.25 2.37 2.35 2.15 2.02 1.87 1.58 1.46 1.36 1.45 1.80 1.80 1.82 2.05 2.02 1.93 1.83 1.65 1.44 1.33 1.24 1.19 1.09 0.95 0.76 0.69 0.59 0.48 0.39 0.29 0.22 0.18 0.17 0.16
2.19 2.05 2.03 2.06 1.96 2.06 2.09 2.11 2.17 2.35 2.46 2.55 2.25 2.05 1.93 1.77 1.65 1.57 1.53 1.81 1.86 1.75 1.89 2.15 2.24 2.18 2.13 1.90 1.71 1.61 1.49 1.37 1.14 0.85 0.75 0.69 0.58 0.50 0.43 0.39 0.34 0.27 0.20
2.13 2.11 2.04 1.88 1.90 1.97 2.06 2.11 2.17 2.28 2.20 2.26 2.23 2.12 2.03 1.88 1.80 1.69 1.63 1.63 1.51 1.65 1.82 2.01 2.18 2.22 2.32 2.24 2.16 2.07 1.87 1.59 1.30 0.96 0.75 0.70 0.63 0.53 0.48 0.47 0.45 0.38 0.29
1.88 1.94 1.79 1.75 1.83 1.68 1.71 1.81 1.76 1.83 1.93 2.07 2.10 1.96 1.91 1.89 1.75 1.72 1.64 1.55 1.58 1.37 1.67 1.97 2.08 2.00 2.17 2.39 2.59 2.63 2.23 1.72 1.36 1.09 0.87 0.74 0.69 0.57 0.47 0.42 0.41 0.42 0.34
1.43 1.45 1.43 1.51 1.49 1.44 1.43 1.31 1.55 1.64 1.79 1.89 1.83 1.76 1.65 1.77 1.73 1.60 1.56 1.36 1.51 1.45 1.44 1.58 1.82 1.77 2.03 2.46 2.83 2.94 2.69 2.15 1.64 1.39 1.22 1.07 0.98 0.80 0.58 0.49 0.43 0.39 0.34
1.35 1.26 1.21 1.27 1.20 1.25 1.34 1.38 1.51 1.49 1.47 1.55 1.45 1.50 1.48 1.31 1.39 1.41 1.32 1.31 1.29 1.08 1.14 1.34 1.65 1.44 1.78 2.19 2.54 2.74 2.87 2.72 2.25 1.82 1.62 1.56 1.50 1.20 0.80 0.62 0.54 0.46 0.38
1.27 1.28 1.12 1.16 1.06 1.09 1.12 1.11 1.20 1.23 1.21 1.27 1.46 1.46 1.24 1.05 1.05 1.03 1.07 1.21 1.14 1.14 1.23 1.39 1.52 1.52 1.42 1.55 1.74 2.14 2.67 2.90 2.75 2.31 1.97 1.75 1.72 1.51 1.05 0.82 0.66 0.60 0.54
1.04 0.99 1.05 1.02 0.98 1.09 1.11 1.08 1.09 1.09 1.06 1.10 1.26 1.44 1.27 1.13 0.93 0.73 0.87 0.87 0.92 1.15 1.24 1.22 1.29 1.52 1.41 1.57 1.29 1.46 2.11 2.60 2.95 2.83 2.45 2.03 1.77 1.52 1.22 1.03 0.83 0.69 0.64
0.91 0.89 0.87 0.93 1.00 0.96 1.05 1.08 0.97 1.01 1.05 1.01 1.01 1.26 1.31 1.22 1.01 0.74 0.68 0.76 0.87 1.00 1.06 1.21 1.17 1.18 1.21 1.49 1.67 1.50 1.56 1.82 2.52 3.02 2.97 2.42 1.83 1.43 1.30 1.28 1.18 0.99 0.82
0.92 0.86 0.80 0.80 0.86 0.83 1.01 0.89 0.92 0.99 1.03 0.92 0.86 0.87 0.99 1.06 1.13 0.98 0.78 0.71 0.80 0.90 0.93 0.97 1.07 1.23 1.35 1.46 1.62 1.53 1.28 1.36 1.86 2.49 2.86 2.73 2.24 1.71 1.41 1.42 1.61 1.57 1.26
1.06 0.92 0.90 0.84 0.84 0.80 0.87 0.85 1.04 1.02 0.96 0.89 0.87 0.87 0.91 0.88 0.86 0.94 0.87 0.77 0.75 0.65 0.71 0.84 1.05 1.19 1.25 1.41 1.65 1.48 1.22 1.10 1.26 1.69 2.11 2.33 2.34 2.03 1.70 1.60 1.89 2.12 1.92
1.11 1.01 0.98 0.97 0.89 0.84 0.83 0.81 0.94 0.99 1.03 1.03 0.97 0.88 0.93 0.89 0.86 0.93 0.81 0.69 0.68 0.51 0.53 0.66 0.81 0.92 1.05 1.26 1.36 1.34 1.30 1.26 1.21 1.28 1.41 1.65 1.89 1.93 1.85 1.89 2.13 2.35 2.43
0.93 0.92 0.90 0.90 0.80 0.81 0.88 0.95 0.94 0.95 0.99 1.03 0.98 0.91 0.88 0.79 0.85 0.88 0.80 0.67 0.68 0.57 0.69 0.67 0.72 0.93 1.03 1.30 1.38 1.39 1.30 1.30 1.14 1.06 1.08 1.15 1.27 1.47 1.67 1.80 2.02 2.24 2.47
0.90 0.91 0.91 0.84 0.81 0.84 0.85 1.00 0.88 0.83 0.88 0.90 0.81 0.99 0.97 0.77 0.85 0.87 0.91 1.00 0.91 0.84 0.88 0.78 0.84 1.10 1.37 1.45 1.53 1.46 1.21 1.20 1.06 0.95 0.86 0.87 0.94 1.06 1.17 1.30 1.45 1.57 1.72
0.99 1.05 1.00 0.90 0.90 0.96 0.99 1.04 0.91 0.87 0.94 0.88 0.89 1.05 1.03 0.93 0.94 0.91 1.00 1.15 1.24 1.09 1.01 1.04 1.09 1.15 1.34 1.40 1.48 1.37 1.21 1.21 1.05 0.89 0.82 0.79 0.81 0.86 0.91 0.92 0.96 1.03 1.10
0.99 1.08 1.05 0.95 0.93 0.96 1.00 1.05 0.95 0.97 0.99 0.97 1.02 1.12 1.13 1.07 1.08 1.04 1.05 1.15 1.33 1.32 1.19 1.07 1.15 1.16 1.20 1.10 1.20 1.13 1.12 1.17 1.02 0.93 0.89 0.85 0.81 0.80 0.79 0.82 0.83 0.82 0.83
1.05 1.03 1.03 1.01 0.97 1.00 1.06 1.10 1.05 1.04 0.99 1.02 1.02 1.05 1.06 1.15 1.22 1.22 1.28 1.30 1.34 1.49 1.40 1.15 1.21 1.32 1.31 1.14 1.07 1.05 1.03 1.01 0.97 1.00 0.94 0.90 0.85 0.78 0.72 0.68 0.72 0.74 0.74
1.03 1.05 1.06 1.00 0.90 0.95 1.08 1.12 1.06 1.08 1.07 1.02 1.05 1.15 1.11 1.14 1.25 1.31 1.45 1.43 1.48 1.69 1.68 1.47 1.43 1.48 1.40 1.30 1.20 1.11 0.98 0.92 0.92 1.01 0.95 0.88 0.80 0.74 0.71 0.69 0.66 0.66 0.66
1.13 1.09 1.06 0.98 0.93 0.93 0.98 1.03 1.09 1.17 1.19 1.20 1.23 1.27 1.27 1.38 1.37 1.41 1.48 1.47 1.53 1.73 1.87 1.74 1.66 1.74 1.72 1.50 1.37 1.20 1.07 1.07 0.93 0.93 0.95 0.90 0.85 0.80 0.74 0.74 0.74 0.70 0.65
1.18 1.21 1.21 1.22 1.21 1.13 1.10 1.11 1.16 1.19 1.22 1.26 1.35 1.37 1.38 1.46 1.52 1.59 1.61 1.71 1.82 1.98 2.11 2.03 1.96 2.03 2.04 1.89 1.70 1.40 1.30 1.23 1.11 0.97 1.01 0.98 0.94 0.87 0.80 0.74 0.71 0.71 0.70
1.40 1.54 1.53 1.47 1.44 1.37 1.23 1.27 1.28 1.24 1.33 1.27 1.32 1.36 1.33 1.38 1.45 1.57 1.59 1.75 1.95 2.14 2.30 2.33 2.32 2.46 2.39 2.21 1.94 1.60 1.51 1.42 1.29 1.12 1.02 0.92 0.87 0.81 0.78 0.77 0.75 0.75 0.73
1.62 1.68 1.62 1.57 1.55 1.34 1.41 1.42 1.37 1.43 1.47 1.44 1.44 1.46 1.39 1.34 1.33 1.38 1.46 1.58 1.73 1.92 2.17 2.37 2.46 2.52 2.54 2.39 2.17 1.91 1.58 1.34 1.23 1.12 1.11 1.03 0.91 0.86 0.77 0.72 0.80 0.78 0.73
1.53 1.58 1.56 1.50 1.42 1.39 1.35 1.24 1.24 1.26 1.37 1.42 1.43 1.44 1.29 1.16 1.20 1.15 1.23 1.28 1.31 1.41 1.56 1.80 2.02 2.09 2.24 2.31 2.19 1.89 1.61 1.38 1.21 1.16 1.17 1.07 1.00 0.94 0.84 0.81 0.89 0.78 0.72
1.71 1.69 1.61 1.55 1.54 1.45 1.30 1.15 1.15 1.11 1.19 1.23 1.25 1.28 1.27 1.16 1.12 1.15 1.15 1.11 1.03 1.04 1.11 1.16 1.31 1.55 1.76 2.00 2.06 1.96 1.87 1.61 1.33 1.12 1.07 1.02 0.92 0.87 0.83 0.81 0.87 0.80 0.74
1.79 1.77 1.75 1.76 1.77 1.73 1.58 1.31 1.22 1.19 1.28 1.28 1.27 1.27 1.28 1.18 1.18 1.07 1.05 1.04 0.98 0.94 0.93 0.98 1.06 1.24 1.48 1.66 1.86 1.87 1.80 1.69 1.46 1.17 1.02 0.99 0.90 0.86 0.84 0.77 0.76 0.78 0.71
1.67 1.69 1.66 1.71 1.71 1.74 1.75 1.41 1.20 1.09 1.18 1.22 1.28 1.29 1.29 1.17 1.18 1.09 1.10 1.13 1.05 0.96 0.94 0.91 0.95 1.02 1.10 1.34 1.59 1.60 1.56 1.56 1.44 1.22 0.99 0.95 0.90 0.89 0.92 0.77 0.64 0.63 0.63

GEFSMA_prec_meanprecacc_186.txt.gz
Total_Precipitation_Accumulation
2.36 2.39 2.14 2.04 1.94 2.09 2.32 2.32 2.15 2.27 2.41 2.40 2.18 2.05 1.90 1.63 1.49 1.39 1.47 1.82 1.81 1.83 2.07 2.03 1.94 1.83 1.66 1.45 1.34 1.25 1.20 1.10 0.96 0.77 0.70 0.60 0.50 0.40 0.30 0.23 0.20 0.18 0.17
2.22 2.07 2.08 2.11 2.01 2.14 2.15 2.13 2.19 2.39 2.52 2.60 2.29 2.09 1.97 1.80 1.68 1.60 1.55 1.82 1.88 1.77 1.91 2.17 2.27 2.20 2.14 1.91 1.72 1.61 1.50 1.38 1.15 0.86 0.76 0.70 0.59 0.50 0.43 0.40 0.35 0.28 0.21
2.16 2.14 2.07 1.93 1.94 2.02 2.11 2.15 2.21 2.33 2.26 2.31 2.28 2.17 2.07 1.92 1.84 1.72 1.66 1.65 1.52 1.67 1.83 2.02 2.20 2.25 2.35 2.26 2.18 2.08 1.88 1.59 1.30 0.97 0.75 0.71 0.64 0.53 0.48 0.47 0.47 0.39 0.30
1.92 1.97 1.82 1.78 1.87 1.72 1.76 1.87 1.81 1.90 1.99 2.13 2.14 2.00 1.96 1.94 1.81 1.78 1.69 1.58 1.61 1.40 1.70 1.99 2.11 2.02 2.21 2.44 2.63 2.67 2.25 1.74 1.38 1.10 0.87 0.74 0.70 0.58 0.47 0.42 0.42 0.43 0.35
1.50 1.52 1.47 1.54 1.52 1.46 1.47 1.35 1.60 1.70 1.85 1.95 1.89 1.84 1.71 1.83 1.78 1.66 1.63 1.42 1.56 1.52 1.51 1.64 1.87 1.82 2.09 2.50 2.87 2.99 2.73 2.19 1.67 1.41 1.24 1.08 1.00 0.81 0.59 0.50 0.44 0.40 0.35
1.42 1.32 1.25 1.31 1.24 1.29 1.38 1.42 1.56 1.56 1.52 1.60 1.49 1.57 1.55 1.38 1.46 1.48 1.38 1.37 1.34 1.13 1.20 1.39 1.69 1.50 1.85 2.25 2.58 2.79 2.92 2.78 2.32 1.88 1.68 1.62 1.54 1.24 0.82 0.64 0.56 0.49 0.41
1.31 1.32 1.16 1.22 1.12 1.14 1.17 1.17 1.24 1.27 1.23 1.31 1.50 1.51 1.29 1.12 1.12 1.10 1.14 1.29 1.21 1.22 1.32 1.48 1.57 1.56 1.47 1.60 1.78 2.17 2.72 2.97 2.83 2.39 2.05 1.83 1.78 1.56 1.10 0.86 0.70 0.63 0.57
1.08 1.02 1.10 1.08 1.03 1.13 1.16 1.14 1.14 1.13 1.09 1.14 1.31 1.50 1.33 1.22 1.01 0.80 0.95 0.96 1.01 1.25 1.34 1.35 1.40 1.59 1.47 1.62 1.34 1.51 2.15 2.65 3.01 2.89 2.52 2.10 1.83 1.57 1.27 1.07 0.86 0.72 0.67
0.96 0.95 0.92 0.97 1.04 1.00 1.11 1.13 1.04 1.05 1.09 1.06 1.07 1.32 1.37 1.27 1.06 0.80 0.75 0.83 0.95 1.09 1.15 1.33 1.34 1.34 1.32 1.57 1.74 1.56 1.60 1.86 2.57 3.08 3.03 2.48 1.88 1.48 1.34 1.31 1.21 1.02 0.85
0.97 0.90 0.84 0.84 0.90 0.89 1.06 0.92 0.96 1.03 1.08 0.98 0.93 0.93 1.04 1.11 1.16 1.00 0.81 0.75 0.86 0.95 1.01 1.06 1.17 1.35 1.48 1.58 1.73 1.62 1.35 1.41 1.92 2.57 2.95 2.81 2.30 1.77 1.46 1.46 1.66 1.62 1.30
1.12 0.97 0.94 0.87 0.87 0.84 0.90 0.89 1.09 1.07 1.00 0.94 0.92 0.93 0.98 0.95 0.92 0.97 0.90 0.80 0.79 0.70 0.76 0.89 1.12 1.28 1.36 1.53 1.80 1.64 1.36 1.22 1.35 1.77 2.20 2.44 2.43 2.10 1.77 1.67 1.97 2.19 1.97
1.18 1.06 1.02 1.00 0.92 0.88 0.86 0.85 0.99 1.04 1.06 1.06 1.00 0.93 0.98 0.94 0.91 0.99 0.86 0.73 0.70 0.54 0.56 0.71 0.90 1.02 1.13 1.34 1.47 1.49 1.44 1.38 1.33 1.40 1.52 1.74 1.97 2.01 1.93 2.00 2.24 2.45 2.51
0.96 0.95 0.94 0.95 0.84 0.86 0.94 1.02 1.01 1.00 1.04 1.07 1.01 0.94 0.90 0.82 0.89 0.92 0.84 0.70 0.71 0.59 0.70 0.69 0.76 0.99 1.12 1.42 1.50 1.52 1.42 1.39 1.21 1.14 1.16 1.22 1.34 1.54 1.75 1.89 2.12 2.35 2.57
0.93 0.95 0.96 0.89 0.84 0.88 0.90 1.06 0.94 0.91 0.95 0.96 0.86 1.03 0.99 0.80 0.90 0.94 0.97 1.06 0.96 0.87 0.91 0.81 0.86 1.14 1.42 1.52 1.64 1.59 1.30 1.27 1.11 1.00 0.92 0.94 1.01 1.14 1.25 1.38 1.54 1.66 1.80
1.03 1.09 1.04 0.96 0.95 1.00 1.03 1.10 0.98 0.95 1.02 0.95 0.94 1.10 1.07 0.96 0.99 0.97 1.06 1.22 1.29 1.13 1.05 1.07 1.12 1.18 1.36 1.44 1.53 1.43 1.27 1.28 1.12 0.96 0.88 0.85 0.88 0.94 0.99 1.00 1.03 1.09 1.14
1.03 1.11 1.09 1.00 0.98 1.01 1.05 1.11 1.01 1.03 1.05 1.03 1.09 1.21 1.20 1.13 1.14 1.11 1.11 1.21 1.39 1.38 1.22 1.09 1.17 1.18 1.22 1.12 1.23 1.16 1.17 1.25 1.12 1.02 0.98 0.93 0.88 0.87 0.87 0.89 0.90 0.88 0.87
1.09 1.08 1.07 1.05 1.01 1.04 1.09 1.14 1.10 1.10 1.07 1.11 1.12 1.15 1.14 1.22 1.28 1.27 1.34 1.36 1.40 1.53 1.43 1.17 1.24 1.35 1.33 1.17 1.10 1.08 1.06 1.05 1.04 1.09 1.04 1.00 0.92 0.85 0.77 0.74 0.77 0.80 0.78
1.05 1.08 1.09 1.04 0.94 0.99 1.12 1.16 1.11 1.14 1.15 1.12 1.16 1.25 1.19 1.21 1.31 1.36 1.50 1.49 1.53 1.74 1.72 1.50 1.46 1.52 1.43 1.32 1.23 1.16 1.02 0.96 0.97 1.08 1.02 0.95 0.86 0.79 0.76 0.74 0.71 0.70 0.69
1.15 1.10 1.08 0.99 0.95 0.97 1.03 1.08 1.14 1.23 1.27 1.27 1.31 1.36 1.35 1.45 1.44 1.47 1.53 1.53 1.60 1.80 1.93 1.80 1.72 1.79 1.78 1.55 1.42 1.23 1.10 1.10 0.96 0.99 1.01 0.95 0.90 0.85 0.79 0.79 0.78 0.73 0.67
1.20 1.23 1.23 1.24 1.23 1.17 1.13 1.15 1.22 1.26 1.29 1.34 1.42 1.42 1.44 1.52 1.59 1.65 1.66 1.76 1.88 2.05 2.18 2.10 2.01 2.08 2.10 1.94 1.73 1.43 1.33 1.26 1.14 1.00 1.05 1.03 0.98 0.92 0.84 0.77 0.74 0.73 0.72
1.42 1.56 1.55 1.51 1.51 1.44 1.29 1.33 1.35 1.31 1.41 1.35 1.39 1.42 1.38 1.43 1.50 1.61 1.63 1.78 1.99 2.19 2.35 2.39 2.36 2.50 2.43 2.25 1.97 1.63 1.54 1.45 1.31 1.14 1.04 0.94 0.90 0.83 0.80 0.79 0.77 0.77 0.76
1.65 1.71 1.65 1.60 1.58 1.38 1.47 1.51 1.47 1.54 1.57 1.52 1.51 1.53 1.46 1.40 1.38 1.43 1.51 1.63 1.78 1.98 2.22 2.42 2.50 2.57 2.59 2.42 2.20 1.94 1.60 1.35 1.24 1.13 1.12 1.04 0.93 0.88 0.78 0.73 0.82 0.80 0.76
1.56 1.62 1.61 1.56 1.46 1.43 1.40 1.30 1.31 1.32 1.44 1.50 1.51 1.51 1.37 1.23 1.27 1.21 1.30 1.35 1.38 1.48 1.60 1.84 2.06 2.12 2.28 2.35 2.22 1.91 1.63 1.39 1.22 1.17 1.18 1.08 1.01 0.95 0.85 0.82 0.90 0.80 0.74
1.74 1.73 1.66 1.61 1.59 1.51 1.37 1.23 1.23 1.17 1.24 1.29 1.32 1.34 1.33 1.23 1.20 1.23 1.23 1.17 1.08 1.08 1.16 1.20 1.33 1.57 1.79 2.03 2.09 1.98 1.89 1.63 1.34 1.13 1.08 1.03 0.93 0.88 0.84 0.83 0.89 0.83 0.77
1.82 1.81 1.80 1.82 1.84 1.81 1.67 1.40 1.29 1.26 1.35 1.35 1.33 1.32 1.34 1.24 1.25 1.15 1.12 1.09 1.02 0.97 0.97 1.02 1.09 1.26 1.50 1.69 1.89 1.90 1.82 1.71 1.47 1.18 1.03 1.00 0.91 0.87 0.86 0.79 0.78 0.81 0.75
1.71 1.74 1.71 1.78 1.78 1.80 1.82 1.50 1.27 1.16 1.24 1.27 1.33 1.34 1.37 1.27 1.30 1.22 1.22 1.23 1.13 1.02 0.98 0.94 0.97 1.04 1.12 1.36 1.62 1.63 1.58 1.58 1.46 1.24 1.00 0.97 0.91 0.91 0.94 0.78 0.66 0.66 0.68

GEFSMA_prec_meanprecacc_192.txt.gz
Total_Precipitation_Accumulation
2.37 2.40 2.15 2.05 1.95 2.11 2.34 2.34 2.17 2.29 2.44 2.42 2.20 2.07 1.93 1.66 1.51 1.40 1.49 1.85 1.85 1.86 2.10 2.07 1.97 1.85 1.67 1.46 1.35 1.26 1.21 1.11 0.97 0.78 0.71 0.62 0.52 0.42 0.31 0.25 0.21 0.20 0.19
2.24 2.09 2.12 2.13 2.02 2.15 2.16 2.15 2.22 2.42 2.54 2.62 2.31 2.10 1.99 1.83 1.70 1.60 1.56 1.85 1.93 1.82 1.96 2.22 2.31 2.23 2.17 1.93 1.73 1.62 1.50 1.39 1.16 0.87 0.77 0.72 0.61 0.52 0.45 0.42 0.37 0.29 0.22
2.19 2.16 2.10 1.97 1.97 2.04 2.13 2.17 2.24 2.37 2.29 2.33 2.30 2.19 2.11 1.95 1.86 1.74 1.67 1.66 1.55 1.72 1.90 2.09 2.26 2.30 2.41 2.31 2.21 2.10 1.89 1.61 1.32 0.98 0.76 0.72 0.65 0.54 0.49 0.49 0.48 0.41 0.32
1.96 2.02 1.85 1.82 1.90 1.77 1.80 1.90 1.85 1.94 2.03 2.16 2.19 2.05 2.01 1.99 1.86 1.81 1.71 1.60 1.64 1.43 1.74 2.06 2.18 2.10 2.30 2.53 2.72 2.72 2.29 1.78 1.40 1.12 0.89 0.76 0.72 0.59 0.48 0.44 0.43 0.44 0.36
1.56 1.58 1.52 1.59 1.57 1.53 1.55 1.39 1.64 1.75 1.89 1.98 1.92 1.87 1.75 1.88 1.83 1.70 1.66 1.44 1.59 1.55 1.54 1.69 1.94 1.91 2.17 2.60 2.99 3.10 2.83 2.27 1.74 1.46 1.28 1.13 1.04 0.85 0.62 0.52 0.46 0.43 0.37
1.47 1.39 1.33 1.38 1.29 1.35 1.46 1.50 1.61 1.60 1.55 1.63 1.52 1.59 1.58 1.42 1.50 1.52 1.42 1.41 1.38 1.17 1.23 1.44 1.76 1.57 1.94 2.36 2.69 2.90 3.05 2.92 2.43 1.96 1.75 1.69 1.61 1.30 0.88 0.69 0.61 0.54 0.45
1.35 1.37 1.22 1.29 1.18 1.20 1.22 1.24 1.30 1.31 1.27 1.34 1.53 1.53 1.31 1.14 1.15 1.14 1.18 1.34 1.27 1.27 1.37 1.52 1.62 1.61 1.52 1.65 1.85 2.26 2.83 3.11 2.96 2.49 2.13 1.91 1.86 1.62 1.15 0.91 0.76 0.69 0.63
1.13 1.08 1.17 1.15 1.10 1.18 1.21 1.19 1.19 1.18 1.12 1.17 1.34 1.54 1.37 1.25 1.04 0.82 0.97 0.99 1.05 1.29 1.39 1.41 1.45 1.64 1.51 1.67 1.40 1.58 2.25 2.79 3.16 3.02 2.63 2.19 1.91 1.64 1.32 1.12 0.92 0.78 0.73
1.01 1.01 1.01 1.04 1.12 1.07 1.15 1.17 1.08 1.10 1.13 1.09 1.11 1.37 1.39 1.29 1.08 0.81 0.77 0.86 0.97 1.11 1.17 1.37 1.39 1.39 1.37 1.62 1.79 1.62 1.69 1.95 2.68 3.20 3.16 2.60 1.98 1.56 1.41 1.37 1.27 1.06 0.89
1.01 0.96 0.93 0.92 0.97 0.95 1.10 0.96 0.99 1.07 1.12 1.01 0.96 0.96 1.06 1.13 1.18 1.02 0.83 0.77 0.88 0.97 1.02 1.08 1.21 1.40 1.53 1.63 1.78 1.67 1.40 1.44 1.97 2.65 3.05 2.94 2.44 1.91 1.58 1.57 1.75 1.70 1.37
1.17 1.03 1.02 0.95 0.93 0.89 0.94 0.94 1.14 1.11 1.05 0.98 0.96 0.98 1.03 0.99 0.96 1.00 0.93 0.82 0.81 0.72 0.78 0.92 1.15 1.32 1.39 1.57 1.84 1.69 1.42 1.27 1.40 1.82 2.27 2.53 2.54 2.23 1.90 1.80 2.09 2.31 2.09
1.24 1.11 1.07 1.05 0.96 0.92 0.90 0.89 1.04 1.09 1.12 1.11 1.05 0.98 1.04 0.99 0.95 1.03 0.92 0.78 0.73 0.55 0.58 0.73 0.92 1.05 1.17 1.39 1.52 1.53 1.50 1.44 1.38 1.46 1.58 1.81 2.05 2.09 2.02 2.10 2.38 2.60 2.64
1.00 1.00 0.99 0.99 0.88 0.89 0.98 1.07 1.07 1.06 1.09 1.10 1.04 0.97 0.94 0.85 0.91 0.95 0.86 0.74 0.74 0.61 0.72 0.70 0.77 1.01 1.15 1.45 1.53 1.55 1.44 1.42 1.25 1.18 1.20 1.28 1.39 1.60 1.83 2.01 2.26 2.53 2.77
0.97 0.99 0.99 0.94 0.91 0.92 0.93 1.10 1.01 0.96 1.00 1.00 0.92 1.07 1.02 0.82 0.92 0.97 1.00 1.09 0.98 0.88 0.92 0.81 0.87 1.15 1.44 1.55 1.67 1.62 1.33 1.31 1.15 1.03 0.95 0.96 1.05 1.18 1.30 1.45 1.66 1.82 1.99
1.06 1.12 1.07 1.00 0.99 1.04 1.09 1.16 1.06 1.04 1.09 0.99 0.99 1.15 1.11 1.00 1.02 1.00 1.09 1.24 1.32 1.15 1.05 1.08 1.13 1.19 1.38 1.45 1.55 1.45 1.29 1.32 1.17 1.00 0.91 0.88 0.91 0.98 1.05 1.08 1.14 1.22 1.28
1.08 1.15 1.13 1.05 1.06 1.09 1.14 1.21 1.11 1.13 1.14 1.09 1.14 1.25 1.24 1.16 1.18 1.15 1.15 1.25 1.43 1.40 1.24 1.11 1.19 1.19 1.23 1.13 1.25 1.18 1.19 1.28 1.15 1.07 1.03 0.98 0.94 0.93 0.94 0.98 1.00 0.97 0.96
1.14 1.13 1.12 1.10 1.07 1.10 1.16 1.21 1.17 1.17 1.13 1.16 1.17 1.19 1.18 1.26 1.32 1.31 1.38 1.39 1.43 1.56 1.45 1.19 1.25 1.36 1.35 1.19 1.13 1.11 1.09 1.08 1.07 1.12 1.07 1.05 1.00 0.93 0.86 0.82 0.86 0.86 0.83
1.08 1.12 1.14 1.08 0.98 1.04 1.18 1.21 1.17 1.18 1.20 1.17 1.21 1.31 1.25 1.27 1.36 1.42 1.56 1.54 1.58 1.79 1.76 1.53 1.49 1.55 1.46 1.35 1.26 1.18 1.05 0.99 1.00 1.12 1.06 0.99 0.92 0.86 0.82 0.79 0.75 0.73 0.72
1.17 1.13 1.10 1.01 0.98 1.00 1.07 1.12 1.19 1.28 1.31 1.32 1.36 1.41 1.42 1.53 1.51 1.55 1.62 1.62 1.68 1.88 2.01 1.86 1.77 1.84 1.80 1.57 1.44 1.26 1.13 1.13 0.99 1.02 1.06 1.00 0.95 0.90 0.83 0.83 0.83 0.78 0.71
1.23 1.26 1.25 1.26 1.26 1.20 1.17 1.20 1.26 1.30 1.33 1.37 1.45 1.46 1.48 1.57 1.64 1.71 1.73 1.83 1.96 2.12 2.26 2.18 2.09 2.15 2.15 1.98 1.76 1.46 1.36 1.29 1.17 1.05 1.11 1.08 1.03 0.96 0.87 0.80 0.77 0.77 0.76
1.44 1.59 1.58 1.54 1.54 1.47 1.32 1.36 1.38 1.34 1.44 1.39 1.44 1.48 1.44 1.49 1.57 1.68 1.69 1.84 2.05 2.25 2.43 2.47 2.44 2.57 2.49 2.31 2.02 1.68 1.59 1.50 1.37 1.19 1.10 0.98 0.94 0.86 0.82 0.81 0.79 0.78 0.77
1.67 1.74 1.68 1.65 1.63 1.42 1.50 1.54 1.51 1.57 1.61 1.56 1.56 1.60 1.56 1.49 1.47 1.51 1.57 1.68 1.83 2.02 2.27 2.47 2.55 2.63 2.67 2.50 2.28 2.01 1.67 1.41 1.28 1.16 1.15 1.06 0.95 0.90 0.80 0.75 0.84 0.81 0.77
1.58 1.65 1.65 1.62 1.52 1.47 1.44 1.35 1.35 1.36 1.47 1.53 1.54 1.55 1.43 1.33 1.34 1.27 1.36 1.40 1.42 1.52 1.66 1.89 2.12 2.18 2.35 2.42 2.29 1.98 1.69 1.44 1.24 1.19 1.20 1.11 1.02 0.96 0.87 0.85 0.93 0.82 0.75
1.76 1.76 1.70 1.66 1.63 1.54 1.41 1.27 1.28 1.20 1.26 1.31 1.35 1.37 1.37 1.28 1.26 1.30 1.29 1.21 1.12 1.14 1.22 1.26 1.39 1.63 1.85 2.09 2.15 2.03 1.93 1.66 1.36 1.15 1.10 1.06 0.95 0.89 0.86 0.84 0.91 0.85 0.79
1.87 1.86 1.84 1.86 1.87 1.84 1.71 1.45 1.34 1.30 1.39 1.39 1.38 1.38 1.38 1.28 1.30 1.20 1.17 1.13 1.06 1.03 1.03 1.08 1.15 1.33 1.56 1.73 1.93 1.93 1.85 1.74 1.50 1.20 1.06 1.02 0.92 0.89 0.87 0.81 0.81 0.85 0.79
1.76 1.78 1.75 1.82 1.81 1.83 1.86 1.54 1.32 1.21 1.31 1.36 1.42 1.42 1.43 1.31 1.34 1.27 1.26 1.27 1.18 1.09 1.06 1.03 1.06 1.12 1.18 1.42 1.66 1.67 1.62 1.62 1.49 1.27 1.03 1.00 0.93 0.93 0.96 0.80 0.68 0.68 0.70

GEFSMA_prec_meanprecacc_198.txt.gz
Total_Precipitation_Accumulation
2.43 2.46 2.22 2.12 2.00 2.14 2.38 2.39 2.21 2.33 2.48 2.46 2.22 2.09 1.95 1.67 1.52 1.41 1.52 1.88 1.89 1.89 2.13 2.12 2.03 1.92 1.70 1.47 1.37 1.28 1.24 1.13 0.98 0.79 0.73 0.63 0.53 0.43 0.33 0.26 0.22 0.21 0.20
2.30 2.18 2.19 2.21 2.08 2.19 2.20 2.21 2.28 2.47 2.60 2.67 2.35 2.13 2.01 1.85 1.71 1.63 1.60 1.89 1.96 1.86 2.00 2.27 2.39 2.32 2.21 1.95 1.76 1.64 1.52 1.41 1.18 0.88 0.79 0.74 0.62 0.53 0.47 0.43 0.38 0.30 0.24
2.26 2.24 2.17 2.04 2.04 2.10 2.20 2.25 2.31 2.45 2.34 2.37 2.33 2.22 2.14 1.98 1.88 1.75 1.69 1.69 1.57 1.75 1.94 2.14 2.34 2.41 2.47 2.36 2.26 2.13 1.90 1.62 1.34 1.00 0.79 0.74 0.66 0.55 0.51 0.50 0.50 0.42 0.33
2.04 2.09 1.92 1.89 1.97 1.83 1.87 2.00 1.96 2.04 2.11 2.22 2.23 2.08 2.04 2.03 1.88 1.82 1.72 1.61 1.66 1.45 1.77 2.08 2.22 2.17 2.38 2.61 2.80 2.79 2.35 1.83 1.44 1.15 0.92 0.79 0.74 0.61 0.50 0.46 0.45 0.46 0.38
1.60 1.65 1.59 1.67 1.65 1.60 1.62 1.46 1.73 1.86 1.98 2.05 1.97 1.91 1.80 1.94 1.88 1.73 1.68 1.46 1.61 1.57 1.58 1.71 1.96 1.95 2.22 2.67 3.07 3.18 2.93 2.35 1.80 1.51 1.33 1.17 1.08 0.88 0.65 0.55 0.49 0.46 0.40
1.50 1.45 1.41 1.47 1.38 1.43 1.56 1.61 1.73 1.70 1.65 1.72 1.56 1.63 1.63 1.46 1.54 1.56 1.45 1.44 1.41 1.19 1.26 1.48 1.81 1.61 1.96 2.40 2.76 2.99 3.14 3.00 2.51 2.03 1.81 1.74 1.66 1.35 0.93 0.73 0.63 0.57 0.49
1.39 1.44 1.28 1.37 1.27 1.29 1.31 1.34 1.40 1.40 1.35 1.43 1.61 1.59 1.36 1.17 1.18 1.17 1.22 1.39 1.31 1.30 1.40 1.56 1.66 1.67 1.56 1.69 1.90 2.32 2.91 3.20 3.05 2.56 2.19 1.96 1.91 1.66 1.19 0.94 0.79 0.74 0.70
1.20 1.15 1.24 1.22 1.18 1.28 1.31 1.29 1.30 1.27 1.20 1.25 1.44 1.64 1.44 1.29 1.07 0.85 0.99 1.02 1.08 1.31 1.41 1.43 1.47 1.69 1.56 1.73 1.44 1.62 2.31 2.88 3.27 3.13 2.71 2.26 1.96 1.68 1.36 1.15 0.96 0.83 0.78
1.05 1.08 1.08 1.10 1.19 1.16 1.26 1.28 1.18 1.20 1.23 1.19 1.20 1.47 1.48 1.35 1.14 0.85 0.80 0.89 1.00 1.15 1.21 1.40 1.41 1.43 1.41 1.67 1.85 1.65 1.72 2.01 2.78 3.32 3.27 2.70 2.05 1.61 1.45 1.42 1.32 1.12 0.95
1.05 1.00 0.99 0.98 1.05 1.04 1.22 1.06 1.08 1.20 1.26 1.14 1.06 1.04 1.15 1.20 1.26 1.08 0.88 0.80 0.91 1.01 1.08 1.12 1.25 1.44 1.56 1.67 1.81 1.70 1.42 1.47 2.03 2.72 3.14 3.03 2.52 1.97 1.65 1.64 1.83 1.79 1.47
1.20 1.06 1.06 1.02 1.04 0.99 1.04 1.03 1.23 1.21 1.14 1.08 1.04 1.06 1.11 1.09 1.06 1.10 1.03 0.92 0.88 0.78 0.84 0.96 1.20 1.37 1.43 1.60 1.88 1.71 1.45 1.30 1.43 1.86 2.33 2.60 2.62 2.31 1.98 1.88 2.17 2.39 2.20
1.27 1.14 1.10 1.08 1.02 0.99 0.98 0.98 1.14 1.17 1.20 1.19 1.13 1.04 1.11 1.09 1.07 1.14 1.02 0.88 0.82 0.63 0.64 0.78 0.96 1.08 1.20 1.42 1.55 1.56 1.52 1.46 1.40 1.49 1.62 1.86 2.11 2.16 2.10 2.18 2.46 2.68 2.74
1.03 1.03 1.02 1.03 0.93 0.97 1.05 1.14 1.15 1.14 1.18 1.18 1.11 1.04 1.02 0.92 0.98 1.02 0.92 0.79 0.80 0.67 0.76 0.73 0.79 1.02 1.17 1.48 1.57 1.58 1.46 1.44 1.27 1.21 1.24 1.31 1.43 1.64 1.89 2.08 2.34 2.61 2.88
1.00 1.02 1.03 0.98 0.96 0.99 0.99 1.17 1.09 1.05 1.08 1.08 0.98 1.14 1.10 0.88 0.98 1.04 1.07 1.16 1.03 0.94 0.96 0.84 0.89 1.16 1.45 1.56 1.69 1.64 1.35 1.34 1.19 1.07 0.99 1.00 1.08 1.21 1.34 1.50 1.72 1.88 2.07
1.08 1.15 1.11 1.06 1.05 1.10 1.14 1.22 1.12 1.12 1.17 1.06 1.05 1.20 1.16 1.05 1.07 1.06 1.14 1.31 1.39 1.21 1.10 1.11 1.16 1.20 1.39 1.46 1.57 1.47 1.32 1.34 1.20 1.04 0.95 0.92 0.95 1.02 1.09 1.12 1.20 1.29 1.37
1.12 1.19 1.17 1.12 1.13 1.14 1.20 1.26 1.17 1.20 1.19 1.13 1.17 1.28 1.28 1.21 1.23 1.20 1.19 1.29 1.48 1.46 1.29 1.15 1.22 1.21 1.24 1.14 1.27 1.20 1.22 1.30 1.17 1.09 1.06 1.02 0.98 0.99 0.99 1.04 1.06 1.04 1.03
1.19 1.18 1.17 1.16 1.13 1.16 1.21 1.26 1.21 1.20 1.15 1.18 1.19 1.21 1.21 1.30 1.36 1.35 1.42 1.44 1.48 1.61 1.50 1.22 1.28 1.40 1.38 1.22 1.15 1.14 1.11 1.10 1.09 1.14 1.10 1.08 1.03 0.97 0.91 0.87 0.91 0.93 0.89
1.14 1.18 1.20 1.14 1.04 1.09 1.23 1.26 1.21 1.22 1.22 1.19 1.23 1.34 1.28 1.31 1.41 1.46 1.60 1.58 1.62 1.84 1.81 1.59 1.55 1.61 1.51 1.40 1.29 1.21 1.07 1.00 1.01 1.14 1.09 1.03 0.97 0.89 0.85 0.81 0.78 0.77 0.75
1.22 1.19 1.15 1.06 1.02 1.04 1.10 1.15 1.22 1.31 1.34 1.35 1.39 1.45 1.48 1.59 1.57 1.61 1.67 1.67 1.72 1.93 2.08 1.93 1.84 1.91 1.86 1.62 1.48 1.29 1.16 1.15 1.00 1.05 1.09 1.03 0.98 0.93 0.86 0.86 0.86 0.80 0.73
1.27 1.30 1.29 1.30 1.28 1.22 1.20 1.22 1.29 1.33 1.36 1.41 1.51 1.52 1.54 1.62 1.69 1.77 1.79 1.88 2.01 2.19 2.33 2.25 2.15 2.20 2.20 2.03 1.81 1.49 1.39 1.32 1.19 1.06 1.14 1.12 1.07 1.00 0.91 0.84 0.81 0.80 0.78
1.47 1.61 1.61 1.56 1.55 1.48 1.34 1.39 1.42 1.38 1.48 1.42 1.48 1.51 1.47 1.54 1.62 1.73 1.73 1.89 2.11 2.32 2.49 2.54 2.51 2.63 2.54 2.36 2.07 1.73 1.63 1.54 1.40 1.22 1.13 1.02 0.98 0.90 0.87 0.86 0.83 0.82 0.80
1.68 1.75 1.69 1.66 1.63 1.42 1.52 1.56 1.54 1.61 1.64 1.59 1.60 1.63 1.58 1.52 1.49 1.53 1.61 1.72 1.87 2.06 2.32 2.52 2.61 2.67 2.71 2.55 2.34 2.07 1.73 1.48 1.34 1.21 1.20 1.11 1.00 0.95 0.86 0.80 0.89 0.85 0.80
1.60 1.66 1.66 1.64 1.54 1.49 1.47 1.38 1.39 1.40 1.50 1.56 1.58 1.58 1.46 1.36 1.38 1.31 1.41 1.45 1.47 1.57 1.69 1.93 2.16 2.22 2.39 2.48 2.36 2.04 1.74 1.49 1.29 1.24 1.24 1.14 1.06 1.00 0.90 0.88 0.97 0.86 0.79
1.78 1.77 1.72 1.69 1.65 1.56 1.45 1.31 1.33 1.24 1.29 1.34 1.37 1.40 1.40 1.31 1.30 1.35 1.35 1.28 1.18 1.19 1.27 1.29 1.42 1.67 1.90 2.15 2.22 2.10 2.00 1.72 1.42 1.20 1.14 1.10 0.99 0.93 0.90 0.89 0.97 0.90 0.84
1.88 1.88 1.87 1.88 1.90 1.87 1.76 1.50 1.39 1.34 1.42 1.43 1.42 1.41 1.41 1.31 1.34 1.25 1.22 1.20 1.13 1.09 1.09 1.13 1.20 1.38 1.63 1.81 1.99 1.99 1.92 1.81 1.57 1.26 1.11 1.08 0.97 0.93 0.91 0.85 0.85 0.89 0.84
1.79 1.81 1.78 1.85 1.84 1.87 1.90 1.58 1.37 1.25 1.34 1.39 1.45 1.47 1.49 1.37 1.40 1.32 1.30 1.32 1.23 1.15 1.12 1.09 1.12 1.18 1.24 1.49 1.75 1.76 1.71 1.71 1.58 1.36 1.10 1.07 1.00 0.99 1.01 0.83 0.71 0.71 0.73

GEFSMA_prec_meanprecacc_204.txt.gz
Total_Precipitation_Accumulation
2.53 2.57 2.30 2.19 2.04 2.20 2.44 2.47 2.26 2.37 2.51 2.48 2.25 2.11 1.97 1.70 1.55 1.44 1.55 1.90 1.90 1.90 2.15 2.14 2.05 1.93 1.72 1.49 1.38 1.29 1.24 1.13 0.99 0.81 0.74 0.64 0.55 0.45 0.34 0.27 0.23 0.21 0.20
2.39 2.25 2.27 2.29 2.14 2.24 2.25 2.25 2.31 2.51 2.63 2.69 2.37 2.15 2.04 1.87 1.74 1.67 1.65 1.95 1.99 1.87 2.02 2.31 2.42 2.34 2.23 1.96 1.77 1.65 1.53 1.42 1.18 0.89 0.80 0.75 0.63 0.54 0.48 0.44 0.39 0.31 0.25
2.35 2.33 2.27 2.13 2.12 2.17 2.26 2.30 2.36 2.50 2.39 2.41 2.37 2.25 2.18 2.02 1.91 1.79 1.74 1.76 1.61 1.77 1.96 2.16 2.38 2.46 2.51 2.38 2.28 2.14 1.91 1.64 1.35 1.01 0.80 0.74 0.67 0.56 0.52 0.52 0.51 0.44 0.35
2.10 2.19 2.04 2.01 2.07 1.91 1.94 2.08 2.04 2.12 2.18 2.28 2.28 2.11 2.06 2.07 1.92 1.85 1.75 1.66 1.73 1.50 1.79 2.09 2.26 2.25 2.42 2.63 2.82 2.81 2.38 1.84 1.45 1.16 0.93 0.80 0.75 0.62 0.51 0.47 0.47 0.48 0.40
1.65 1.73 1.68 1.76 1.73 1.68 1.71 1.56 1.85 1.97 2.08 2.14 2.00 1.93 1.81 1.98 1.94 1.77 1.72 1.51 1.67 1.63 1.63 1.75 2.00 1.99 2.24 2.68 3.09 3.22 2.96 2.39 1.83 1.53 1.34 1.18 1.09 0.90 0.67 0.56 0.50 0.47 0.41
1.54 1.51 1.47 1.53 1.45 1.52 1.66 1.71 1.86 1.84 1.77 1.82 1.62 1.70 1.69 1.51 1.59 1.61 1.51 1.50 1.48 1.24 1.33 1.57 1.90 1.66 1.99 2.42 2.79 3.03 3.19 3.05 2.55 2.08 1.85 1.77 1.69 1.38 0.94 0.74 0.64 0.59 0.50
1.45 1.50 1.34 1.45 1.35 1.38 1.40 1.43 1.51 1.52 1.47 1.55 1.73 1.71 1.45 1.23 1.24 1.24 1.30 1.47 1.39 1.38 1.47 1.69 1.81 1.79 1.64 1.73 1.94 2.38 2.97 3.26 3.11 2.63 2.26 2.03 1.97 1.71 1.22 0.97 0.81 0.76 0.71
1.26 1.21 1.31 1.30 1.25 1.37 1.40 1.39 1.41 1.39 1.30 1.35 1.57 1.79 1.56 1.39 1.15 0.90 1.04 1.07 1.14 1.38 1.49 1.53 1.59 1.81 1.67 1.83 1.51 1.66 2.35 2.92 3.32 3.19 2.78 2.31 2.01 1.72 1.40 1.19 1.00 0.87 0.82
1.10 1.13 1.15 1.16 1.24 1.22 1.36 1.39 1.28 1.30 1.34 1.29 1.32 1.62 1.64 1.51 1.27 0.92 0.85 0.94 1.05 1.21 1.28 1.48 1.49 1.53 1.51 1.81 1.96 1.74 1.78 2.05 2.84 3.41 3.37 2.79 2.13 1.67 1.51 1.47 1.37 1.17 1.01
1.07 1.02 1.02 1.02 1.11 1.11 1.31 1.14 1.18 1.31 1.36 1.24 1.17 1.16 1.27 1.32 1.38 1.18 0.95 0.86 0.96 1.06 1.14 1.19 1.32 1.52 1.64 1.76 1.92 1.79 1.50 1.54 2.11 2.81 3.24 3.14 2.63 2.08 1.75 1.72 1.90 1.85 1.52
1.22 1.07 1.08 1.07 1.10 1.05 1.10 1.09 1.31 1.28 1.23 1.18 1.15 1.16 1.21 1.19 1.17 1.21 1.14 0.99 0.94 0.82 0.88 1.02 1.26 1.42 1.49 1.68 1.98 1.80 1.53 1.36 1.48 1.90 2.38 2.68 2.70 2.39 2.06 1.95 2.23 2.45 2.27
1.30 1.16 1.12 1.12 1.08 1.04 1.03 1.02 1.19 1.22 1.26 1.28 1.21 1.12 1.20 1.18 1.17 1.24 1.11 0.97 0.90 0.66 0.67 0.81 1.00 1.12 1.24 1.47 1.62 1.63 1.58 1.52 1.43 1.51 1.65 1.91 2.17 2.22 2.16 2.24 2.52 2.75 2.81
1.06 1.07 1.06 1.07 0.98 1.01 1.10 1.19 1.20 1.19 1.23 1.25 1.18 1.11 1.09 0.98 1.05 1.13 1.02 0.88 0.88 0.74 0.82 0.77 0.81 1.04 1.19 1.51 1.62 1.62 1.50 1.48 1.30 1.23 1.27 1.34 1.46 1.67 1.93 2.13 2.41 2.69 2.97
1.02 1.05 1.08 1.03 1.00 1.04 1.04 1.23 1.13 1.09 1.13 1.12 1.03 1.21 1.16 0.94 1.06 1.13 1.17 1.27 1.14 1.05 1.06 0.89 0.91 1.17 1.47 1.60 1.74 1.70 1.39 1.38 1.22 1.09 1.00 1.02 1.11 1.24 1.36 1.53 1.76 1.94 2.14
1.11 1.17 1.16 1.12 1.11 1.16 1.23 1.30 1.19 1.18 1.22 1.11 1.10 1.27 1.22 1.10 1.13 1.13 1.24 1.41 1.49 1.31 1.20 1.19 1.21 1.22 1.41 1.51 1.63 1.53 1.37 1.40 1.25 1.07 0.97 0.93 0.96 1.04 1.10 1.14 1.23 1.32 1.41
1.15 1.23 1.23 1.18 1.21 1.22 1.28 1.34 1.24 1.26 1.25 1.18 1.22 1.34 1.34 1.25 1.28 1.26 1.27 1.39 1.59 1.57 1.40 1.25 1.29 1.25 1.28 1.17 1.31 1.24 1.26 1.34 1.20 1.12 1.08 1.04 1.00 1.01 1.02 1.07 1.09 1.07 1.06
1.24 1.23 1.23 1.21 1.18 1.21 1.26 1.32 1.26 1.25 1.22 1.23 1.23 1.25 1.26 1.35 1.42 1.40 1.48 1.51 1.57 1.70 1.58 1.32 1.37 1.47 1.44 1.28 1.21 1.18 1.16 1.15 1.13 1.17 1.12 1.10 1.05 0.99 0.93 0.89 0.93 0.96 0.92
1.18 1.23 1.25 1.19 1.09 1.14 1.27 1.30 1.24 1.26 1.28 1.23 1.27 1.39 1.32 1.36 1.46 1.51 1.65 1.63 1.68 1.91 1.90 1.68 1.63 1.68 1.57 1.46 1.36 1.27 1.11 1.04 1.05 1.17 1.11 1.05 0.98 0.91 0.87 0.83 0.80 0.79 0.78
1.26 1.23 1.19 1.11 1.08 1.09 1.14 1.18 1.25 1.35 1.39 1.40 1.44 1.50 1.52 1.63 1.61 1.65 1.71 1.71 1.77 1.99 2.16 2.02 1.91 1.97 1.91 1.67 1.54 1.34 1.20 1.20 1.04 1.08 1.12 1.06 1.00 0.94 0.88 0.88 0.88 0.83 0.75
1.31 1.35 1.35 1.36 1.34 1.26 1.23 1.26 1.32 1.36 1.39 1.44 1.55 1.56 1.57 1.66 1.72 1.81 1.83 1.92 2.05 2.23 2.40 2.32 2.23 2.27 2.26 2.08 1.85 1.54 1.43 1.36 1.23 1.10 1.17 1.14 1.10 1.03 0.94 0.87 0.83 0.82 0.80
1.50 1.66 1.65 1.61 1.60 1.53 1.37 1.42 1.46 1.41 1.50 1.45 1.51 1.54 1.51 1.57 1.65 1.76 1.76 1.92 2.15 2.36 2.54 2.60 2.58 2.69 2.60 2.42 2.11 1.77 1.68 1.59 1.46 1.27 1.18 1.08 1.04 0.97 0.93 0.90 0.86 0.84 0.82
1.71 1.78 1.72 1.68 1.66 1.44 1.54 1.58 1.56 1.63 1.68 1.64 1.64 1.66 1.61 1.55 1.52 1.56 1.63 1.74 1.89 2.09 2.35 2.57 2.66 2.73 2.76 2.60 2.38 2.12 1.79 1.54 1.42 1.30 1.29 1.20 1.08 1.02 0.91 0.84 0.93 0.90 0.85
1.63 1.68 1.69 1.66 1.56 1.51 1.48 1.38 1.40 1.42 1.53 1.59 1.62 1.62 1.49 1.39 1.42 1.35 1.45 1.48 1.49 1.59 1.72 1.97 2.20 2.26 2.44 2.53 2.41 2.09 1.79 1.54 1.35 1.32 1.34 1.24 1.13 1.06 0.95 0.93 1.03 0.92 0.85
1.81 1.80 1.74 1.71 1.68 1.58 1.46 1.33 1.35 1.26 1.31 1.37 1.41 1.44 1.45 1.37 1.36 1.41 1.39 1.31 1.20 1.21 1.29 1.33 1.46 1.71 1.95 2.21 2.27 2.16 2.07 1.79 1.50 1.30 1.25 1.19 1.06 1.00 0.96 0.95 1.04 0.97 0.90
1.92 1.91 1.90 1.92 1.93 1.91 1.79 1.53 1.43 1.36 1.45 1.46 1.46 1.45 1.46 1.35 1.38 1.29 1.25 1.23 1.16 1.13 1.14 1.18 1.25 1.45 1.71 1.89 2.06 2.05 1.98 1.87 1.63 1.35 1.20 1.15 1.05 1.02 1.01 0.94 0.93 0.96 0.89
1.84 1.86 1.83 1.89 1.88 1.91 1.94 1.61 1.40 1.28 1.37 1.41 1.47 1.49 1.51 1.39 1.42 1.35 1.32 1.34 1.26 1.17 1.15 1.13 1.16 1.22 1.30 1.55 1.79 1.79 1.75 1.76 1.64 1.42 1.17 1.14 1.08 1.07 1.09 0.90 0.76 0.75 0.76

GEFSMA_prec_meanprecacc_210.txt.gz
Total_Precipitation_Accumulation
2.56 2.60 2.33 2.22 2.08 2.26 2.49 2.52 2.31 2.43 2.57 2.54 2.30 2.15 2.02 1.77 1.62 1.48 1.60 1.94 1.93 1.93 2.17 2.16 2.06 1.94 1.73 1.50 1.39 1.30 1.25 1.14 1.00 0.81 0.75 0.66 0.56 0.46 0.35 0.28 0.24 0.22 0.22
2.41 2.28 2.29 2.31 2.17 2.28 2.30 2.30 2.35 2.55 2.69 2.75 2.43 2.21 2.09 1.93 1.78 1.71 1.70 1.98 2.02 1.89 2.05 2.35 2.45 2.37 2.26 1.98 1.79 1.66 1.54 1.43 1.19 0.90 0.81 0.76 0.64 0.56 0.50 0.46 0.40 0.32 0.26
2.37 2.35 2.29 2.15 2.15 2.21 2.31 2.37 2.41 2.54 2.43 2.47 2.42 2.29 2.22 2.07 1.96 1.83 1.79 1.79 1.63 1.79 1.98 2.21 2.44 2.50 2.55 2.41 2.30 2.16 1.93 1.66 1.36 1.03 0.81 0.76 0.68 0.57 0.53 0.53 0.52 0.45 0.36
2.13 2.23 2.07 2.04 2.11 1.97 1.99 2.14 2.09 2.15 2.22 2.33 2.33 2.15 2.11 2.12 1.97 1.90 1.79 1.70 1.77 1.54 1.83 2.14 2.33 2.30 2.47 2.68 2.87 2.86 2.42 1.88 1.47 1.19 0.95 0.82 0.76 0.63 0.52 0.48 0.48 0.49 0.40
1.69 1.76 1.73 1.81 1.80 1.76 1.79 1.63 1.92 2.02 2.13 2.17 2.04 1.97 1.86 2.05 2.01 1.84 1.77 1.55 1.72 1.69 1.69 1.81 2.07 2.07 2.30 2.75 3.17 3.31 3.06 2.46 1.88 1.57 1.38 1.22 1.13 0.93 0.69 0.58 0.51 0.48 0.42
1.59 1.55 1.52 1.60 1.54 1.59 1.72 1.78 1.92 1.90 1.85 1.87 1.65 1.74 1.76 1.57 1.65 1.68 1.59 1.57 1.54 1.31 1.42 1.66 1.98 1.72 2.05 2.50 2.88 3.13 3.29 3.15 2.63 2.14 1.90 1.83 1.75 1.42 0.99 0.78 0.68 0.62 0.52
1.50 1.55 1.39 1.51 1.41 1.44 1.45 1.48 1.58 1.58 1.54 1.62 1.78 1.77 1.50 1.28 1.28 1.30 1.39 1.58 1.49 1.44 1.54 1.79 1.93 1.88 1.71 1.79 2.01 2.46 3.07 3.37 3.21 2.72 2.35 2.12 2.05 1.78 1.27 1.02 0.86 0.80 0.75
1.29 1.24 1.35 1.33 1.29 1.42 1.44 1.42 1.47 1.46 1.37 1.40 1.61 1.84 1.60 1.43 1.19 0.95 1.10 1.12 1.20 1.44 1.55 1.60 1.69 1.92 1.79 1.91 1.59 1.75 2.45 3.02 3.43 3.31 2.88 2.40 2.09 1.80 1.47 1.26 1.06 0.93 0.89
1.12 1.16 1.17 1.18 1.27 1.25 1.38 1.42 1.31 1.35 1.39 1.34 1.36 1.65 1.68 1.55 1.31 0.97 0.89 0.97 1.10 1.26 1.32 1.53 1.57 1.63 1.62 1.92 2.06 1.83 1.85 2.12 2.93 3.51 3.48 2.89 2.23 1.77 1.60 1.54 1.44 1.23 1.07
1.08 1.04 1.04 1.04 1.12 1.13 1.33 1.17 1.20 1.35 1.41 1.28 1.20 1.19 1.32 1.39 1.45 1.25 0.99 0.91 1.01 1.09 1.17 1.23 1.39 1.61 1.74 1.86 2.01 1.89 1.58 1.60 2.18 2.91 3.37 3.25 2.74 2.18 1.85 1.81 1.99 1.92 1.58
1.25 1.09 1.11 1.09 1.12 1.07 1.13 1.11 1.34 1.32 1.26 1.21 1.18 1.20 1.26 1.26 1.25 1.29 1.19 1.05 0.99 0.86 0.91 1.05 1.31 1.47 1.55 1.75 2.05 1.86 1.62 1.46 1.57 2.01 2.48 2.77 2.81 2.50 2.16 2.04 2.32 2.55 2.36
1.32 1.18 1.15 1.14 1.10 1.07 1.05 1.04 1.21 1.24 1.29 1.31 1.25 1.16 1.25 1.24 1.22 1.28 1.16 1.02 0.93 0.69 0.69 0.83 1.02 1.15 1.29 1.54 1.68 1.70 1.68 1.64 1.55 1.62 1.74 2.00 2.27 2.32 2.26 2.35 2.64 2.87 2.93
1.08 1.09 1.10 1.10 1.00 1.03 1.12 1.21 1.22 1.22 1.25 1.28 1.20 1.13 1.12 1.00 1.08 1.16 1.07 0.91 0.91 0.76 0.84 0.79 0.84 1.07 1.22 1.55 1.66 1.67 1.56 1.57 1.38 1.30 1.33 1.42 1.55 1.79 2.03 2.22 2.49 2.77 3.07
1.05 1.08 1.11 1.06 1.04 1.07 1.08 1.27 1.17 1.12 1.16 1.15 1.05 1.24 1.19 0.97 1.08 1.15 1.20 1.30 1.17 1.07 1.09 0.92 0.93 1.20 1.50 1.62 1.76 1.74 1.42 1.42 1.26 1.14 1.06 1.09 1.18 1.32 1.45 1.61 1.82 2.00 2.21
1.13 1.20 1.18 1.15 1.15 1.22 1.29 1.36 1.25 1.23 1.26 1.13 1.13 1.31 1.26 1.13 1.16 1.15 1.27 1.46 1.53 1.35 1.23 1.22 1.24 1.26 1.44 1.53 1.67 1.56 1.40 1.45 1.32 1.16 1.05 1.00 1.03 1.10 1.16 1.20 1.27 1.37 1.46
1.18 1.25 1.25 1.20 1.24 1.28 1.36 1.41 1.30 1.33 1.31 1.23 1.27 1.39 1.37 1.27 1.30 1.28 1.29 1.41 1.63 1.61 1.43 1.28 1.32 1.28 1.32 1.21 1.37 1.29 1.30 1.40 1.26 1.17 1.13 1.09 1.05 1.06 1.07 1.12 1.14 1.12 1.12
1.26 1.26 1.26 1.24 1.22 1.26 1.33 1.38 1.31 1.29 1.26 1.28 1.27 1.29 1.30 1.38 1.44 1.42 1.50 1.54 1.60 1.73 1.61 1.35 1.40 1.49 1.47 1.31 1.26 1.24 1.21 1.20 1.18 1.22 1.16 1.13 1.08 1.02 0.96 0.92 0.96 0.99 0.96
1.21 1.26 1.29 1.23 1.13 1.19 1.31 1.33 1.27 1.29 1.31 1.27 1.31 1.43 1.37 1.40 1.50 1.54 1.68 1.65 1.71 1.93 1.92 1.70 1.66 1.72 1.60 1.50 1.41 1.32 1.16 1.10 1.11 1.23 1.16 1.09 1.01 0.94 0.90 0.86 0.83 0.81 0.80
1.29 1.26 1.23 1.14 1.12 1.14 1.18 1.22 1.29 1.38 1.42 1.43 1.47 1.54 1.57 1.68 1.64 1.67 1.73 1.73 1.79 2.01 2.19 2.04 1.93 1.99 1.94 1.70 1.59 1.38 1.24 1.25 1.09 1.13 1.17 1.10 1.04 0.98 0.91 0.91 0.91 0.85 0.77
1.34 1.38 1.38 1.40 1.39 1.33 1.30 1.32 1.38 1.42 1.45 1.49 1.58 1.59 1.61 1.69 1.75 1.84 1.86 1.95 2.08 2.26 2.42 2.34 2.27 2.31 2.30 2.12 1.90 1.57 1.46 1.39 1.25 1.12 1.20 1.18 1.14 1.07 0.99 0.91 0.87 0.85 0.83
1.56 1.69 1.69 1.66 1.67 1.62 1.45 1.50 1.55 1.49 1.57 1.51 1.56 1.58 1.54 1.60 1.69 1.80 1.80 1.95 2.19 2.41 2.58 2.63 2.62 2.75 2.65 2.47 2.16 1.82 1.72 1.62 1.48 1.29 1.21 1.10 1.08 1.02 1.00 0.98 0.94 0.91 0.88
1.78 1.83 1.76 1.74 1.72 1.51 1.60 1.65 1.62 1.68 1.72 1.67 1.68 1.69 1.63 1.57 1.55 1.60 1.68 1.78 1.93 2.14 2.40 2.60 2.69 2.77 2.80 2.65 2.44 2.18 1.85 1.59 1.45 1.33 1.32 1.24 1.14 1.09 1.00 0.93 1.01 0.97 0.90
1.69 1.75 1.76 1.74 1.63 1.57 1.54 1.43 1.44 1.46 1.57 1.63 1.64 1.65 1.51 1.41 1.45 1.40 1.51 1.55 1.56 1.65 1.78 2.02 2.23 2.28 2.46 2.55 2.45 2.13 1.83 1.58 1.39 1.36 1.38 1.30 1.22 1.14 1.04 1.01 1.09 0.95 0.89
1.93 1.91 1.84 1.79 1.75 1.64 1.51 1.37 1.39 1.30 1.35 1.39 1.43 1.46 1.48 1.40 1.40 1.46 1.46 1.37 1.26 1.26 1.34 1.37 1.49 1.73 1.98 2.25 2.32 2.20 2.11 1.84 1.56 1.36 1.30 1.26 1.13 1.06 1.00 0.98 1.06 0.99 0.92
2.01 2.00 1.98 2.00 2.01 1.98 1.87 1.59 1.48 1.41 1.49 1.49 1.48 1.47 1.48 1.38 1.43 1.34 1.30 1.27 1.19 1.15 1.16 1.21 1.28 1.48 1.74 1.94 2.13 2.12 2.05 1.93 1.69 1.41 1.27 1.23 1.12 1.08 1.06 0.98 0.97 0.99 0.92
1.92 1.94 1.91 1.98 1.97 1.99 2.04 1.72 1.49 1.34 1.41 1.45 1.51 1.51 1.53 1.41 1.46 1.38 1.35 1.36 1.27 1.19 1.17 1.16 1.18 1.24 1.32 1.58 1.85 1.85 1.81 1.82 1.69 1.48 1.23 1.22 1.16 1.15 1.16 0.96 0.81 0.79 0.79

GEFSMA_prec_meanprecacc_216.txt.gz
Total_Precipitation_Accumulation
2.58 2.63 2.37 2.26 2.12 2.30 2.52 2.54 2.34 2.45 2.59 2.55 2.31 2.16 2.04 1.79 1.63 1.50 1.62 1.95 1.95 1.95 2.20 2.19 2.09 1.98 1.75 1.52 1.41 1.32 1.26 1.15 1.02 0.83 0.76 0.68 0.58 0.48 0.36 0.30 0.25 0.24 0.25
2.45 2.31 2.31 2.34 2.20 2.31 2.32 2.32 2.37 2.57 2.71 2.77 2.44 2.23 2.11 1.95 1.80 1.73 1.72 2.00 2.05 1.93 2.09 2.39 2.51 2.42 2.30 2.02 1.81 1.69 1.57 1.45 1.21 0.91 0.82 0.77 0.65 0.57 0.51 0.47 0.41 0.33 0.27
2.40 2.39 2.31 2.17 2.18 2.24 2.34 2.40 2.43 2.56 2.47 2.50 2.45 2.32 2.26 2.11 1.98 1.85 1.81 1.81 1.66 1.83 2.03 2.27 2.51 2.57 2.62 2.48 2.35 2.20 1.97 1.69 1.39 1.05 0.83 0.77 0.70 0.59 0.54 0.54 0.53 0.46 0.37
2.16 2.26 2.09 2.05 2.13 2.00 2.01 2.17 2.14 2.19 2.26 2.37 2.37 2.19 2.14 2.16 2.00 1.93 1.80 1.72 1.80 1.57 1.88 2.23 2.44 2.39 2.56 2.78 2.97 2.94 2.50 1.95 1.53 1.22 0.98 0.84 0.78 0.65 0.54 0.49 0.49 0.50 0.41
1.73 1.79 1.76 1.84 1.83 1.80 1.82 1.66 1.97 2.08 2.17 2.21 2.07 2.01 1.90 2.07 2.04 1.87 1.80 1.58 1.75 1.74 1.75 1.88 2.17 2.17 2.40 2.87 3.33 3.45 3.20 2.59 1.97 1.63 1.43 1.26 1.16 0.96 0.72 0.61 0.54 0.51 0.44
1.63 1.58 1.55 1.64 1.58 1.64 1.76 1.82 1.98 1.97 1.90 1.90 1.68 1.76 1.78 1.60 1.68 1.71 1.63 1.62 1.60 1.38 1.49 1.73 2.05 1.81 2.16 2.62 2.99 3.25 3.44 3.29 2.75 2.25 2.00 1.92 1.83 1.49 1.04 0.83 0.72 0.66 0.56
1.54 1.60 1.44 1.55 1.45 1.48 1.50 1.53 1.65 1.66 1.61 1.67 1.82 1.80 1.53 1.32 1.31 1.33 1.42 1.62 1.53 1.49 1.59 1.85 2.00 1.96 1.78 1.88 2.10 2.56 3.21 3.51 3.36 2.85 2.47 2.23 2.16 1.88 1.36 1.09 0.92 0.85 0.79
1.34 1.30 1.40 1.38 1.34 1.47 1.50 1.48 1.54 1.53 1.43 1.47 1.66 1.89 1.63 1.45 1.20 0.96 1.11 1.14 1.22 1.47 1.59 1.64 1.73 1.96 1.84 1.98 1.67 1.84 2.57 3.17 3.61 3.49 3.04 2.54 2.23 1.95 1.61 1.37 1.15 1.00 0.94
1.16 1.21 1.22 1.23 1.33 1.32 1.45 1.47 1.36 1.41 1.44 1.40 1.42 1.70 1.71 1.57 1.33 0.99 0.90 0.99 1.12 1.29 1.36 1.56 1.60 1.68 1.67 1.98 2.15 1.94 1.96 2.24 3.08 3.70 3.66 3.08 2.44 1.97 1.77 1.68 1.56 1.33 1.14
1.11 1.07 1.09 1.10 1.19 1.18 1.38 1.23 1.28 1.43 1.47 1.34 1.26 1.24 1.36 1.41 1.48 1.29 1.03 0.95 1.05 1.13 1.21 1.26 1.42 1.65 1.80 1.93 2.08 1.95 1.64 1.67 2.27 3.03 3.51 3.43 2.92 2.38 2.06 1.99 2.14 2.05 1.69
1.27 1.13 1.15 1.15 1.19 1.15 1.19 1.18 1.41 1.39 1.33 1.27 1.23 1.25 1.30 1.29 1.28 1.32 1.23 1.08 1.02 0.90 0.95 1.08 1.34 1.52 1.59 1.79 2.09 1.90 1.65 1.50 1.64 2.09 2.59 2.90 2.94 2.64 2.33 2.22 2.50 2.70 2.49
1.35 1.22 1.20 1.20 1.15 1.13 1.10 1.08 1.26 1.29 1.34 1.36 1.29 1.20 1.28 1.27 1.26 1.33 1.20 1.06 0.96 0.72 0.71 0.85 1.04 1.18 1.31 1.56 1.70 1.73 1.71 1.67 1.59 1.66 1.79 2.05 2.34 2.40 2.37 2.48 2.79 3.02 3.09
1.10 1.11 1.12 1.14 1.03 1.06 1.15 1.25 1.25 1.25 1.31 1.32 1.23 1.16 1.14 1.02 1.10 1.19 1.10 0.94 0.93 0.78 0.86 0.81 0.86 1.08 1.23 1.55 1.67 1.68 1.58 1.59 1.40 1.33 1.37 1.45 1.59 1.84 2.11 2.32 2.62 2.93 3.24
1.07 1.10 1.12 1.08 1.06 1.09 1.11 1.30 1.20 1.17 1.21 1.19 1.07 1.25 1.20 0.99 1.10 1.17 1.22 1.32 1.19 1.09 1.10 0.93 0.95 1.21 1.52 1.63 1.77 1.74 1.43 1.43 1.28 1.16 1.08 1.11 1.20 1.36 1.50 1.69 1.93 2.12 2.35
1.16 1.22 1.20 1.17 1.18 1.25 1.33 1.41 1.29 1.27 1.32 1.18 1.16 1.34 1.28 1.15 1.18 1.17 1.28 1.47 1.55 1.36 1.24 1.23 1.25 1.28 1.47 1.55 1.68 1.58 1.41 1.47 1.34 1.18 1.07 1.02 1.04 1.11 1.18 1.24 1.33 1.43 1.53
1.21 1.28 1.27 1.22 1.27 1.32 1.41 1.46 1.34 1.37 1.35 1.28 1.32 1.43 1.40 1.29 1.32 1.31 1.31 1.43 1.65 1.63 1.44 1.29 1.33 1.30 1.35 1.24 1.39 1.30 1.31 1.43 1.28 1.19 1.15 1.11 1.07 1.08 1.09 1.14 1.17 1.16 1.16
1.29 1.29 1.28 1.27 1.25 1.31 1.37 1.42 1.35 1.34 1.30 1.32 1.32 1.34 1.34 1.42 1.48 1.47 1.55 1.58 1.64 1.76 1.63 1.36 1.41 1.51 1.50 1.34 1.29 1.26 1.23 1.22 1.19 1.24 1.18 1.15 1.10 1.04 0.98 0.94 0.98 1.01 0.99
1.25 1.30 1.33 1.27 1.17 1.23 1.35 1.37 1.30 1.34 1.36 1.32 1.37 1.50 1.43 1.46 1.54 1.58 1.72 1.68 1.73 1.95 1.94 1.71 1.67 1.73 1.61 1.51 1.43 1.34 1.19 1.12 1.13 1.25 1.18 1.11 1.04 0.97 0.92 0.88 0.86 0.84 0.83
1.34 1.31 1.27 1.19 1.16 1.19 1.23 1.27 1.34 1.45 1.49 1.49 1.54 1.60 1.62 1.74 1.69 1.71 1.77 1.76 1.82 2.03 2.21 2.05 1.94 2.00 1.95 1.72 1.60 1.40 1.26 1.27 1.12 1.17 1.20 1.13 1.07 1.01 0.94 0.94 0.93 0.87 0.80
1.41 1.43 1.42 1.44 1.43 1.38 1.35 1.38 1.46 1.51 1.53 1.56 1.65 1.65 1.66 1.73 1.79 1.87 1.90 1.99 2.13 2.30 2.45 2.37 2.29 2.33 2.32 2.14 1.92 1.59 1.48 1.40 1.28 1.15 1.23 1.21 1.17 1.11 1.02 0.94 0.90 0.89 0.86
1.66 1.77 1.75 1.70 1.72 1.67 1.51 1.58 1.63 1.58 1.67 1.60 1.64 1.65 1.60 1.66 1.73 1.83 1.83 1.99 2.24 2.45 2.62 2.66 2.65 2.77 2.68 2.49 2.19 1.84 1.75 1.66 1.53 1.34 1.25 1.15 1.12 1.06 1.03 1.02 0.97 0.95 0.92
1.85 1.89 1.83 1.80 1.79 1.58 1.67 1.73 1.70 1.75 1.78 1.73 1.74 1.75 1.69 1.63 1.60 1.63 1.71 1.82 1.97 2.17 2.43 2.63 2.72 2.79 2.82 2.68 2.47 2.22 1.90 1.64 1.51 1.38 1.36 1.28 1.17 1.12 1.03 0.96 1.06 1.02 0.96
1.76 1.81 1.83 1.81 1.71 1.66 1.64 1.51 1.52 1.52 1.62 1.69 1.70 1.70 1.56 1.45 1.49 1.42 1.53 1.58 1.59 1.68 1.81 2.05 2.27 2.32 2.50 2.58 2.48 2.16 1.85 1.60 1.41 1.38 1.40 1.33 1.25 1.17 1.08 1.05 1.14 1.02 0.95
2.03 2.02 1.94 1.89 1.87 1.75 1.63 1.47 1.47 1.35 1.39 1.43 1.47 1.51 1.52 1.43 1.42 1.48 1.47 1.39 1.27 1.28 1.37 1.40 1.52 1.77 2.02 2.29 2.35 2.23 2.14 1.86 1.58 1.38 1.32 1.29 1.17 1.10 1.05 1.02 1.12 1.04 0.97
2.14 2.12 2.09 2.12 2.13 2.10 1.98 1.69 1.56 1.46 1.52 1.51 1.51 1.51 1.52 1.40 1.46 1.38 1.33 1.31 1.24 1.19 1.21 1.25 1.31 1.50 1.77 1.97 2.16 2.16 2.07 1.96 1.72 1.44 1.30 1.27 1.16 1.14 1.11 1.03 1.02 1.05 0.99
2.04 2.05 2.00 2.07 2.04 2.05 2.10 1.80 1.56 1.39 1.44 1.47 1.53 1.54 1.57 1.44 1.49 1.41 1.37 1.40 1.31 1.23 1.22 1.20 1.22 1.28 1.36 1.61 1.87 1.87 1.82 1.84 1.72 1.51 1.26 1.25 1.19 1.18 1.21 1.02 0.86 0.84 0.85

GEFSMA_prec_meanprecacc_222.txt.gz
Total_Precipitation_Accumulation
2.73 2.80 2.56 2.47 2.35 2.49 2.67 2.67 2.43 2.52 2.65 2.58 2.33 2.18 2.06 1.81 1.66 1.55 1.66 1.98 1.98 1.98 2.23 2.23 2.15 2.03 1.80 1.55 1.44 1.36 1.29 1.19 1.04 0.84 0.77 0.69 0.60 0.49 0.37 0.31 0.28 0.26 0.27
2.57 2.44 2.47 2.53 2.37 2.43 2.43 2.43 2.44 2.63 2.78 2.82 2.49 2.26 2.15 1.98 1.83 1.78 1.76 2.04 2.08 1.95 2.11 2.44 2.58 2.51 2.39 2.08 1.86 1.74 1.62 1.49 1.24 0.93 0.83 0.78 0.67 0.58 0.52 0.47 0.41 0.33 0.29
2.50 2.49 2.42 2.29 2.28 2.33 2.43 2.47 2.50 2.63 2.53 2.57 2.52 2.38 2.30 2.14 2.01 1.87 1.83 1.84 1.70 1.86 2.06 2.30 2.57 2.65 2.71 2.56 2.42 2.27 2.04 1.74 1.43 1.08 0.85 0.79 0.72 0.60 0.56 0.55 0.54 0.47 0.39
2.25 2.36 2.17 2.14 2.20 2.04 2.07 2.24 2.21 2.27 2.36 2.49 2.48 2.26 2.19 2.21 2.06 1.98 1.84 1.75 1.84 1.62 1.94 2.27 2.48 2.45 2.64 2.89 3.07 3.04 2.60 2.03 1.59 1.28 1.02 0.87 0.81 0.67 0.56 0.52 0.52 0.53 0.44
1.79 1.87 1.84 1.93 1.90 1.84 1.87 1.70 2.02 2.15 2.27 2.32 2.16 2.10 1.96 2.15 2.11 1.91 1.86 1.64 1.80 1.78 1.82 1.94 2.22 2.22 2.46 2.98 3.46 3.58 3.33 2.69 2.05 1.70 1.49 1.32 1.22 1.01 0.76 0.64 0.57 0.53 0.47
1.68 1.64 1.62 1.72 1.64 1.70 1.84 1.90 2.08 2.06 1.99 1.99 1.74 1.82 1.83 1.65 1.73 1.77 1.68 1.68 1.66 1.42 1.53 1.79 2.12 1.86 2.21 2.69 3.08 3.35 3.54 3.38 2.84 2.35 2.10 2.02 1.92 1.58 1.12 0.88 0.75 0.68 0.59
1.62 1.69 1.52 1.64 1.52 1.56 1.59 1.64 1.75 1.76 1.72 1.78 1.94 1.90 1.61 1.37 1.36 1.38 1.47 1.67 1.57 1.52 1.63 1.92 2.08 2.04 1.84 1.93 2.15 2.61 3.28 3.59 3.45 2.96 2.58 2.34 2.27 1.98 1.45 1.16 0.98 0.89 0.83
1.41 1.37 1.50 1.48 1.43 1.58 1.60 1.58 1.66 1.63 1.52 1.55 1.76 1.99 1.73 1.54 1.26 0.99 1.14 1.17 1.25 1.50 1.63 1.68 1.79 2.04 1.92 2.05 1.72 1.88 2.61 3.24 3.69 3.60 3.18 2.70 2.39 2.11 1.77 1.49 1.22 1.04 0.99
1.19 1.25 1.28 1.31 1.42 1.42 1.54 1.57 1.48 1.53 1.56 1.50 1.52 1.81 1.80 1.66 1.41 1.04 0.93 1.01 1.15 1.33 1.39 1.60 1.64 1.73 1.72 2.04 2.20 1.97 2.01 2.30 3.13 3.79 3.79 3.20 2.54 2.07 1.85 1.75 1.62 1.41 1.22
1.12 1.09 1.13 1.18 1.29 1.26 1.45 1.31 1.38 1.54 1.59 1.44 1.36 1.34 1.45 1.50 1.57 1.37 1.08 0.97 1.07 1.15 1.23 1.28 1.45 1.69 1.83 1.97 2.12 1.99 1.68 1.70 2.31 3.08 3.56 3.48 2.98 2.44 2.11 2.04 2.22 2.15 1.78
1.29 1.14 1.18 1.22 1.27 1.21 1.25 1.24 1.49 1.48 1.41 1.35 1.32 1.34 1.38 1.36 1.36 1.40 1.29 1.12 1.05 0.91 0.96 1.10 1.36 1.54 1.62 1.83 2.14 1.95 1.68 1.53 1.66 2.13 2.63 2.95 3.01 2.70 2.39 2.28 2.58 2.79 2.58
1.37 1.23 1.22 1.25 1.21 1.18 1.16 1.15 1.33 1.36 1.41 1.42 1.36 1.27 1.34 1.32 1.30 1.39 1.26 1.10 1.00 0.74 0.73 0.86 1.06 1.20 1.34 1.59 1.73 1.77 1.74 1.70 1.63 1.70 1.82 2.10 2.38 2.45 2.42 2.53 2.84 3.07 3.15
1.12 1.14 1.16 1.19 1.07 1.09 1.19 1.30 1.31 1.31 1.37 1.39 1.29 1.20 1.17 1.06 1.14 1.23 1.15 0.97 0.96 0.80 0.88 0.83 0.87 1.09 1.24 1.56 1.68 1.70 1.59 1.61 1.44 1.37 1.40 1.49 1.62 1.86 2.14 2.35 2.66 2.98 3.30
1.09 1.13 1.15 1.11 1.08 1.12 1.13 1.35 1.26 1.24 1.28 1.24 1.12 1.30 1.24 1.02 1.14 1.20 1.25 1.36 1.22 1.11 1.12 0.95 0.97 1.22 1.53 1.64 1.78 1.75 1.44 1.43 1.28 1.17 1.09 1.12 1.21 1.37 1.51 1.70 1.94 2.14 2.39
1.18 1.24 1.22 1.19 1.19 1.27 1.37 1.46 1.35 1.33 1.37 1.22 1.20 1.39 1.33 1.20 1.21 1.20 1.31 1.50 1.59 1.39 1.26 1.25 1.27 1.29 1.48 1.56 1.69 1.58 1.42 1.47 1.34 1.18 1.08 1.02 1.05 1.12 1.19 1.24 1.33 1.43 1.54
1.24 1.30 1.29 1.24 1.29 1.34 1.44 1.50 1.39 1.42 1.40 1.32 1.36 1.48 1.46 1.34 1.35 1.33 1.34 1.46 1.68 1.66 1.47 1.30 1.34 1.31 1.36 1.25 1.41 1.31 1.33 1.44 1.30 1.20 1.16 1.12 1.08 1.09 1.10 1.15 1.19 1.17 1.18
1.31 1.30 1.29 1.28 1.27 1.33 1.40 1.46 1.38 1.38 1.34 1.36 1.36 1.39 1.39 1.48 1.53 1.51 1.60 1.62 1.68 1.81 1.67 1.38 1.42 1.53 1.51 1.36 1.31 1.28 1.25 1.25 1.22 1.25 1.19 1.16 1.11 1.05 0.99 0.96 1.00 1.03 1.01
1.26 1.31 1.34 1.28 1.19 1.26 1.38 1.40 1.34 1.37 1.39 1.35 1.41 1.55 1.48 1.52 1.59 1.63 1.77 1.73 1.77 2.00 1.97 1.73 1.68 1.75 1.63 1.54 1.45 1.36 1.20 1.14 1.15 1.27 1.19 1.12 1.05 0.98 0.93 0.89 0.87 0.86 0.86
1.35 1.31 1.28 1.19 1.18 1.21 1.27 1.31 1.39 1.50 1.54 1.55 1.60 1.67 1.69 1.81 1.74 1.76 1.81 1.80 1.86 2.08 2.25 2.08 1.95 2.02 1.97 1.73 1.61 1.41 1.27 1.28 1.13 1.17 1.21 1.14 1.08 1.02 0.96 0.96 0.95 0.90 0.82
1.42 1.43 1.42 1.44 1.45 1.40 1.38 1.42 1.52 1.58 1.60 1.65 1.77 1.78 1.79 1.82 1.86 1.94 1.95 2.04 2.17 2.35 2.50 2.40 2.31 2.35 2.34 2.16 1.93 1.60 1.49 1.41 1.29 1.16 1.24 1.22 1.18 1.12 1.04 0.96 0.92 0.91 0.88
1.67 1.78 1.75 1.72 1.74 1.70 1.55 1.62 1.69 1.65 1.75 1.68 1.74 1.78 1.74 1.77 1.82 1.90 1.88 2.04 2.30 2.51 2.66 2.70 2.67 2.80 2.70 2.52 2.22 1.87 1.78 1.69 1.56 1.36 1.27 1.16 1.13 1.07 1.05 1.03 0.99 0.96 0.94
1.87 1.92 1.86 1.85 1.84 1.63 1.74 1.79 1.76 1.80 1.84 1.80 1.81 1.82 1.76 1.70 1.66 1.68 1.75 1.86 2.02 2.23 2.48 2.68 2.75 2.83 2.86 2.71 2.51 2.26 1.93 1.68 1.54 1.41 1.40 1.31 1.19 1.14 1.05 0.98 1.07 1.04 0.98
1.78 1.84 1.86 1.87 1.78 1.74 1.73 1.60 1.60 1.59 1.68 1.74 1.76 1.75 1.60 1.49 1.51 1.45 1.57 1.62 1.62 1.71 1.84 2.10 2.31 2.37 2.54 2.63 2.53 2.20 1.90 1.65 1.46 1.43 1.45 1.37 1.28 1.19 1.09 1.07 1.16 1.03 0.97
2.06 2.06 1.97 1.92 1.92 1.82 1.70 1.54 1.54 1.42 1.44 1.48 1.51 1.55 1.56 1.47 1.47 1.52 1.52 1.44 1.31 1.32 1.41 1.44 1.56 1.81 2.06 2.34 2.40 2.28 2.19 1.91 1.62 1.41 1.35 1.31 1.19 1.12 1.07 1.05 1.14 1.06 0.99
2.18 2.15 2.12 2.15 2.18 2.16 2.05 1.75 1.61 1.49 1.54 1.54 1.53 1.54 1.54 1.43 1.49 1.42 1.37 1.36 1.28 1.23 1.25 1.29 1.35 1.55 1.81 2.02 2.20 2.19 2.11 1.99 1.75 1.46 1.32 1.29 1.19 1.16 1.15 1.07 1.05 1.07 1.00
2.07 2.07 2.02 2.09 2.08 2.10 2.15 1.84 1.60 1.43 1.48 1.50 1.56 1.57 1.60 1.47 1.52 1.45 1.41 1.44 1.34 1.26 1.24 1.23 1.25 1.32 1.39 1.64 1.89 1.89 1.85 1.87 1.74 1.53 1.28 1.26 1.21 1.21 1.24 1.04 0.88 0.86 0.87

GEFSMA_prec_meanprecacc_228.txt.gz
Total_Precipitation_Accumulation
2.80 2.89 2.66 2.58 2.47 2.62 2.78 2.76 2.52 2.60 2.70 2.62 2.37 2.20 2.08 1.84 1.72 1.63 1.72 2.01 1.99 1.99 2.24 2.25 2.18 2.07 1.84 1.58 1.46 1.38 1.32 1.22 1.06 0.86 0.78 0.70 0.61 0.50 0.38 0.32 0.29 0.27 0.28
2.63 2.53 2.58 2.67 2.51 2.53 2.52 2.51 2.53 2.73 2.84 2.87 2.54 2.30 2.21 2.03 1.85 1.80 1.79 2.07 2.10 1.97 2.14 2.47 2.62 2.56 2.44 2.13 1.90 1.78 1.67 1.53 1.27 0.95 0.85 0.79 0.68 0.59 0.52 0.48 0.43 0.35 0.30
2.56 2.57 2.54 2.42 2.39 2.42 2.53 2.56 2.59 2.71 2.60 2.64 2.59 2.43 2.36 2.18 2.04 1.90 1.87 1.89 1.74 1.91 2.10 2.33 2.60 2.68 2.76 2.62 2.49 2.33 2.10 1.80 1.47 1.11 0.87 0.81 0.74 0.62 0.57 0.57 0.56 0.48 0.40
2.31 2.45 2.27 2.24 2.29 2.13 2.16 2.32 2.28 2.35 2.43 2.55 2.54 2.31 2.25 2.28 2.10 2.02 1.89 1.80 1.90 1.69 2.00 2.32 2.51 2.48 2.67 2.94 3.14 3.13 2.69 2.10 1.66 1.32 1.07 0.93 0.85 0.70 0.59 0.55 0.54 0.55 0.46
1.86 1.97 1.93 2.02 1.98 1.92 1.96 1.76 2.09 2.22 2.33 2.39 2.20 2.15 2.02 2.22 2.18 1.97 1.92 1.71 1.88 1.87 1.92 2.03 2.27 2.24 2.49 3.01 3.52 3.66 3.40 2.74 2.10 1.75 1.56 1.39 1.29 1.08 0.82 0.69 0.61 0.58 0.50
1.77 1.75 1.73 1.80 1.71 1.78 1.92 1.97 2.16 2.14 2.06 2.06 1.78 1.88 1.89 1.71 1.80 1.83 1.74 1.74 1.75 1.50 1.63 1.90 2.20 1.90 2.23 2.71 3.12 3.40 3.59 3.42 2.88 2.40 2.16 2.08 2.00 1.66 1.19 0.94 0.81 0.72 0.62
1.71 1.80 1.60 1.72 1.60 1.63 1.67 1.70 1.83 1.84 1.80 1.86 2.02 1.99 1.68 1.44 1.42 1.44 1.53 1.73 1.63 1.57 1.72 2.04 2.19 2.12 1.89 1.95 2.17 2.64 3.32 3.63 3.48 3.00 2.62 2.39 2.32 2.03 1.50 1.20 1.01 0.93 0.87
1.47 1.43 1.57 1.55 1.50 1.66 1.68 1.65 1.73 1.70 1.59 1.64 1.88 2.11 1.83 1.65 1.36 1.05 1.19 1.21 1.31 1.56 1.67 1.74 1.86 2.10 1.97 2.10 1.75 1.90 2.64 3.27 3.72 3.63 3.22 2.74 2.43 2.16 1.81 1.53 1.25 1.09 1.04
1.22 1.29 1.33 1.35 1.48 1.49 1.61 1.65 1.55 1.61 1.63 1.58 1.63 1.94 1.94 1.78 1.52 1.12 0.98 1.03 1.19 1.38 1.43 1.63 1.67 1.77 1.76 2.10 2.25 2.00 2.03 2.32 3.16 3.82 3.82 3.24 2.59 2.11 1.89 1.78 1.66 1.46 1.28
1.15 1.12 1.17 1.22 1.35 1.31 1.52 1.36 1.43 1.62 1.67 1.53 1.46 1.44 1.53 1.59 1.69 1.47 1.16 1.01 1.10 1.19 1.26 1.30 1.47 1.72 1.87 2.01 2.17 2.02 1.70 1.71 2.32 3.09 3.59 3.52 3.02 2.48 2.15 2.07 2.25 2.19 1.82
1.32 1.17 1.22 1.27 1.33 1.26 1.30 1.29 1.56 1.55 1.50 1.43 1.41 1.43 1.45 1.44 1.43 1.48 1.37 1.19 1.11 0.95 0.98 1.10 1.37 1.56 1.66 1.87 2.18 1.98 1.71 1.54 1.68 2.14 2.65 2.98 3.04 2.74 2.42 2.32 2.62 2.83 2.61
1.40 1.26 1.26 1.29 1.25 1.23 1.21 1.19 1.38 1.42 1.48 1.51 1.45 1.35 1.44 1.41 1.39 1.49 1.34 1.17 1.06 0.78 0.75 0.87 1.07 1.21 1.35 1.60 1.75 1.79 1.76 1.72 1.66 1.73 1.84 2.11 2.40 2.47 2.45 2.56 2.87 3.11 3.19
1.14 1.17 1.19 1.23 1.11 1.14 1.23 1.35 1.37 1.36 1.43 1.45 1.37 1.29 1.27 1.16 1.23 1.31 1.24 1.05 1.02 0.85 0.92 0.85 0.89 1.10 1.25 1.57 1.69 1.72 1.60 1.63 1.46 1.39 1.41 1.49 1.63 1.87 2.15 2.37 2.67 3.00 3.33
1.11 1.15 1.17 1.12 1.10 1.14 1.17 1.41 1.31 1.29 1.33 1.30 1.18 1.38 1.32 1.10 1.21 1.25 1.31 1.44 1.31 1.17 1.18 0.99 0.98 1.24 1.55 1.66 1.83 1.79 1.44 1.44 1.29 1.18 1.10 1.12 1.22 1.37 1.52 1.71 1.95 2.15 2.39
1.20 1.25 1.24 1.21 1.21 1.30 1.40 1.52 1.40 1.39 1.43 1.28 1.26 1.45 1.40 1.26 1.26 1.23 1.34 1.55 1.66 1.46 1.33 1.29 1.29 1.31 1.50 1.59 1.74 1.61 1.44 1.49 1.35 1.19 1.08 1.02 1.05 1.12 1.20 1.25 1.34 1.44 1.55
1.26 1.33 1.31 1.27 1.32 1.37 1.47 1.55 1.43 1.47 1.46 1.37 1.41 1.55 1.52 1.40 1.41 1.37 1.38 1.51 1.73 1.71 1.52 1.32 1.36 1.32 1.37 1.27 1.45 1.34 1.36 1.47 1.32 1.22 1.17 1.12 1.08 1.09 1.10 1.16 1.19 1.18 1.18
1.33 1.33 1.33 1.32 1.31 1.37 1.44 1.50 1.42 1.43 1.39 1.42 1.42 1.46 1.46 1.56 1.61 1.59 1.67 1.69 1.75 1.87 1.72 1.41 1.44 1.55 1.53 1.37 1.34 1.30 1.27 1.27 1.23 1.27 1.20 1.17 1.12 1.06 0.99 0.96 1.01 1.04 1.02
1.28 1.33 1.37 1.31 1.21 1.28 1.41 1.42 1.37 1.41 1.45 1.42 1.48 1.62 1.56 1.60 1.68 1.73 1.85 1.79 1.84 2.06 2.03 1.77 1.72 1.79 1.66 1.55 1.48 1.39 1.21 1.16 1.17 1.30 1.21 1.14 1.06 0.98 0.93 0.90 0.87 0.87 0.87
1.36 1.32 1.29 1.21 1.20 1.23 1.29 1.33 1.42 1.54 1.59 1.62 1.69 1.77 1.80 1.94 1.85 1.86 1.91 1.88 1.93 2.14 2.32 2.14 1.99 2.07 2.01 1.77 1.65 1.44 1.29 1.30 1.14 1.19 1.23 1.15 1.09 1.03 0.96 0.96 0.96 0.90 0.83
1.43 1.44 1.44 1.46 1.47 1.41 1.40 1.44 1.55 1.63 1.66 1.73 1.86 1.88 1.90 1.94 1.98 2.07 2.07 2.15 2.28 2.44 2.58 2.46 2.35 2.41 2.39 2.20 1.97 1.64 1.53 1.45 1.33 1.19 1.26 1.24 1.19 1.13 1.04 0.97 0.93 0.92 0.89
1.68 1.79 1.78 1.75 1.77 1.72 1.56 1.65 1.72 1.70 1.81 1.75 1.82 1.86 1.82 1.89 1.93 2.03 2.01 2.17 2.42 2.61 2.73 2.75 2.72 2.86 2.76 2.57 2.25 1.92 1.83 1.74 1.61 1.41 1.32 1.21 1.18 1.12 1.09 1.06 1.01 0.98 0.96
1.89 1.95 1.89 1.88 1.87 1.66 1.76 1.83 1.80 1.86 1.90 1.86 1.88 1.89 1.85 1.81 1.75 1.78 1.84 1.94 2.10 2.30 2.55 2.75 2.82 2.90 2.92 2.78 2.58 2.32 2.00 1.75 1.60 1.47 1.47 1.37 1.25 1.19 1.08 0.99 1.09 1.05 0.99
1.81 1.88 1.90 1.91 1.81 1.77 1.77 1.63 1.63 1.63 1.74 1.81 1.84 1.85 1.68 1.57 1.59 1.52 1.63 1.67 1.66 1.75 1.89 2.16 2.37 2.43 2.63 2.74 2.63 2.29 1.98 1.73 1.54 1.49 1.52 1.43 1.33 1.23 1.11 1.08 1.17 1.05 0.99
2.10 2.10 2.02 1.97 1.96 1.85 1.73 1.57 1.58 1.46 1.51 1.56 1.60 1.64 1.65 1.56 1.53 1.59 1.58 1.47 1.35 1.35 1.45 1.48 1.60 1.85 2.12 2.42 2.50 2.37 2.29 2.00 1.71 1.49 1.44 1.40 1.25 1.16 1.10 1.07 1.16 1.08 1.01
2.24 2.20 2.17 2.19 2.22 2.20 2.09 1.79 1.66 1.53 1.58 1.60 1.60 1.60 1.61 1.48 1.53 1.47 1.42 1.40 1.31 1.26 1.28 1.33 1.39 1.58 1.87 2.09 2.29 2.29 2.21 2.08 1.82 1.53 1.38 1.35 1.23 1.20 1.18 1.09 1.07 1.09 1.01
2.14 2.13 2.07 2.13 2.11 2.13 2.19 1.87 1.64 1.47 1.53 1.55 1.61 1.63 1.66 1.51 1.56 1.48 1.44 1.48 1.38 1.29 1.29 1.27 1.30 1.36 1.44 1.71 1.99 2.00 1.95 1.96 1.81 1.58 1.33 1.31 1.24 1.24 1.27 1.07 0.90 0.87 0.88

GEFSMA_prec_meanprecacc_234.txt.gz
Total_Precipitation_Accumulation
2.83 2.92 2.69 2.62 2.52 2.65 2.80 2.79 2.55 2.63 2.75 2.67 2.41 2.23 2.12 1.89 1.77 1.69 1.77 2.05 2.04 2.03 2.28 2.29 2.22 2.11 1.88 1.62 1.49 1.42 1.36 1.24 1.09 0.89 0.80 0.71 0.62 0.51 0.39 0.33 0.30 0.28 0.29
2.66 2.57 2.64 2.73 2.57 2.57 2.54 2.54 2.57 2.77 2.88 2.90 2.59 2.36 2.25 2.07 1.89 1.85 1.86 2.13 2.17 2.03 2.19 2.53 2.68 2.61 2.49 2.18 1.94 1.83 1.72 1.57 1.32 1.00 0.88 0.82 0.70 0.61 0.54 0.50 0.45 0.37 0.32
2.61 2.62 2.60 2.49 2.46 2.47 2.57 2.61 2.65 2.77 2.65 2.67 2.64 2.47 2.40 2.23 2.10 1.97 1.93 2.00 1.83 1.97 2.17 2.42 2.66 2.73 2.80 2.68 2.54 2.38 2.14 1.84 1.52 1.16 0.92 0.85 0.77 0.64 0.60 0.60 0.59 0.51 0.43
2.37 2.49 2.32 2.28 2.33 2.17 2.20 2.38 2.35 2.41 2.48 2.60 2.59 2.36 2.32 2.37 2.20 2.10 1.96 1.86 1.97 1.75 2.05 2.37 2.55 2.52 2.71 2.99 3.21 3.18 2.73 2.14 1.69 1.35 1.11 0.98 0.90 0.74 0.62 0.58 0.58 0.58 0.48
1.91 2.02 1.98 2.06 2.01 1.97 2.02 1.83 2.16 2.29 2.39 2.43 2.24 2.20 2.08 2.27 2.24 2.01 1.97 1.75 1.93 1.94 1.99 2.09 2.32 2.28 2.53 3.06 3.58 3.73 3.45 2.78 2.13 1.78 1.58 1.42 1.33 1.14 0.87 0.72 0.65 0.61 0.53
1.80 1.79 1.76 1.84 1.75 1.84 2.00 2.04 2.23 2.19 2.10 2.11 1.83 1.93 1.95 1.77 1.85 1.87 1.78 1.78 1.79 1.55 1.68 1.94 2.25 1.95 2.27 2.76 3.17 3.47 3.66 3.47 2.93 2.44 2.18 2.11 2.03 1.69 1.22 0.98 0.85 0.76 0.66
1.74 1.84 1.65 1.77 1.66 1.70 1.74 1.78 1.89 1.88 1.83 1.90 2.07 2.04 1.75 1.53 1.51 1.49 1.57 1.77 1.66 1.61 1.76 2.08 2.23 2.16 1.92 1.98 2.19 2.67 3.37 3.68 3.53 3.04 2.66 2.41 2.35 2.07 1.53 1.23 1.04 0.96 0.90
1.51 1.48 1.63 1.60 1.56 1.72 1.75 1.71 1.77 1.74 1.62 1.68 1.92 2.14 1.86 1.69 1.40 1.08 1.22 1.23 1.32 1.58 1.70 1.76 1.88 2.12 1.99 2.12 1.76 1.92 2.67 3.31 3.76 3.67 3.25 2.77 2.46 2.18 1.83 1.54 1.27 1.12 1.07
1.26 1.33 1.38 1.41 1.54 1.53 1.65 1.70 1.60 1.64 1.67 1.63 1.68 1.99 1.96 1.80 1.54 1.14 1.00 1.06 1.21 1.40 1.44 1.64 1.68 1.79 1.78 2.11 2.27 2.02 2.06 2.36 3.21 3.86 3.86 3.28 2.61 2.14 1.91 1.80 1.69 1.48 1.30
1.18 1.15 1.21 1.27 1.39 1.36 1.55 1.41 1.48 1.67 1.72 1.58 1.53 1.49 1.56 1.62 1.71 1.49 1.18 1.04 1.13 1.21 1.28 1.32 1.49 1.74 1.89 2.04 2.19 2.04 1.73 1.75 2.36 3.14 3.63 3.57 3.06 2.50 2.17 2.10 2.28 2.22 1.85
1.34 1.19 1.26 1.32 1.36 1.30 1.33 1.33 1.60 1.61 1.54 1.47 1.45 1.48 1.49 1.48 1.47 1.51 1.39 1.22 1.15 0.99 1.02 1.13 1.39 1.60 1.71 1.92 2.21 1.99 1.73 1.57 1.70 2.16 2.69 3.03 3.08 2.78 2.46 2.35 2.65 2.86 2.65
1.41 1.27 1.28 1.32 1.27 1.24 1.22 1.22 1.43 1.46 1.50 1.54 1.48 1.38 1.46 1.44 1.42 1.53 1.36 1.19 1.09 0.80 0.78 0.89 1.10 1.26 1.40 1.65 1.77 1.81 1.78 1.76 1.70 1.76 1.88 2.15 2.45 2.52 2.49 2.60 2.90 3.15 3.24
1.15 1.18 1.20 1.24 1.13 1.14 1.24 1.39 1.41 1.39 1.45 1.48 1.39 1.31 1.30 1.18 1.26 1.35 1.26 1.08 1.06 0.87 0.94 0.86 0.92 1.15 1.30 1.61 1.74 1.76 1.63 1.68 1.51 1.42 1.45 1.53 1.66 1.92 2.20 2.42 2.73 3.05 3.37
1.11 1.15 1.17 1.13 1.12 1.16 1.18 1.42 1.33 1.31 1.36 1.32 1.21 1.41 1.35 1.12 1.24 1.30 1.35 1.49 1.37 1.22 1.21 1.01 1.00 1.27 1.59 1.70 1.88 1.86 1.50 1.49 1.33 1.21 1.14 1.18 1.27 1.41 1.55 1.74 1.99 2.19 2.43
1.21 1.27 1.25 1.21 1.22 1.32 1.43 1.54 1.42 1.41 1.45 1.29 1.28 1.48 1.43 1.28 1.29 1.26 1.39 1.60 1.73 1.52 1.37 1.32 1.31 1.33 1.52 1.62 1.77 1.66 1.50 1.55 1.40 1.23 1.12 1.07 1.10 1.16 1.21 1.27 1.36 1.46 1.58
1.28 1.34 1.33 1.28 1.34 1.40 1.50 1.57 1.45 1.50 1.48 1.40 1.44 1.57 1.56 1.44 1.45 1.41 1.44 1.59 1.81 1.79 1.57 1.36 1.39 1.36 1.41 1.30 1.48 1.38 1.41 1.54 1.39 1.27 1.22 1.15 1.11 1.11 1.12 1.17 1.21 1.19 1.20
1.36 1.34 1.34 1.34 1.33 1.39 1.46 1.53 1.45 1.46 1.43 1.44 1.45 1.50 1.50 1.62 1.66 1.63 1.73 1.76 1.83 1.97 1.79 1.46 1.50 1.60 1.58 1.41 1.37 1.33 1.31 1.32 1.27 1.30 1.23 1.20 1.15 1.08 1.01 0.97 1.02 1.05 1.03
1.30 1.34 1.38 1.34 1.24 1.31 1.44 1.45 1.40 1.44 1.48 1.44 1.51 1.67 1.60 1.65 1.73 1.80 1.94 1.86 1.91 2.15 2.10 1.83 1.79 1.86 1.71 1.60 1.54 1.45 1.27 1.20 1.20 1.33 1.24 1.16 1.08 1.01 0.96 0.92 0.89 0.88 0.89
1.37 1.34 1.31 1.23 1.22 1.26 1.32 1.35 1.45 1.56 1.61 1.64 1.72 1.81 1.84 1.98 1.90 1.92 1.97 1.95 2.00 2.22 2.40 2.20 2.05 2.13 2.05 1.81 1.71 1.50 1.35 1.36 1.20 1.25 1.27 1.18 1.11 1.06 0.99 0.99 0.98 0.93 0.85
1.46 1.46 1.45 1.48 1.49 1.44 1.42 1.47 1.58 1.66 1.68 1.75 1.89 1.91 1.93 1.98 2.03 2.13 2.13 2.22 2.36 2.53 2.67 2.54 2.42 2.47 2.45 2.25 2.03 1.68 1.56 1.48 1.37 1.27 1.34 1.28 1.23 1.17 1.09 1.02 0.97 0.95 0.93
1.70 1.82 1.80 1.77 1.80 1.75 1.59 1.67 1.74 1.73 1.83 1.78 1.84 1.88 1.85 1.93 1.99 2.09 2.06 2.23 2.50 2.70 2.83 2.84 2.79 2.92 2.82 2.63 2.30 1.96 1.88 1.78 1.65 1.46 1.39 1.29 1.26 1.18 1.14 1.11 1.06 1.01 0.99
1.93 1.99 1.93 1.92 1.91 1.69 1.80 1.86 1.83 1.89 1.94 1.90 1.91 1.92 1.89 1.86 1.79 1.82 1.89 2.00 2.16 2.37 2.60 2.80 2.87 2.94 2.96 2.83 2.62 2.36 2.05 1.80 1.65 1.52 1.55 1.44 1.33 1.26 1.13 1.05 1.14 1.09 1.03
1.86 1.92 1.95 1.96 1.86 1.81 1.82 1.69 1.69 1.68 1.78 1.85 1.89 1.89 1.73 1.61 1.64 1.56 1.69 1.73 1.72 1.79 1.93 2.19 2.41 2.46 2.66 2.77 2.67 2.33 2.02 1.78 1.59 1.55 1.59 1.50 1.40 1.30 1.20 1.15 1.23 1.09 1.03
2.14 2.14 2.07 2.03 2.00 1.89 1.78 1.63 1.65 1.52 1.56 1.61 1.66 1.70 1.71 1.62 1.60 1.67 1.66 1.55 1.40 1.39 1.49 1.52 1.64 1.88 2.14 2.46 2.54 2.42 2.34 2.05 1.77 1.55 1.52 1.48 1.33 1.24 1.16 1.13 1.22 1.12 1.03
2.30 2.27 2.22 2.24 2.26 2.25 2.15 1.84 1.72 1.59 1.64 1.65 1.64 1.65 1.65 1.52 1.59 1.53 1.49 1.48 1.39 1.32 1.34 1.38 1.43 1.62 1.90 2.13 2.34 2.34 2.25 2.13 1.87 1.58 1.44 1.40 1.29 1.27 1.23 1.14 1.12 1.14 1.05
2.20 2.20 2.13 2.19 2.17 2.19 2.24 1.92 1.70 1.52 1.57 1.61 1.68 1.69 1.71 1.56 1.61 1.56 1.52 1.54 1.45 1.36 1.35 1.32 1.35 1.41 1.48 1.75 2.03 2.04 1.99 2.00 1.84 1.61 1.36 1.36 1.29 1.29 1.31 1.10 0.93 0.90 0.91

GEFSMA_prec_meanprecacc_240.txt.gz
Total_Precipitation_Accumulation
2.86 2.94 2.72 2.65 2.55 2.68 2.83 2.81 2.57 2.66 2.78 2.70 2.44 2.26 2.16 1.92 1.79 1.72 1.83 2.12 2.11 2.10 2.34 2.35 2.28 2.17 1.93 1.67 1.54 1.46 1.39 1.28 1.13 0.92 0.84 0.75 0.65 0.54 0.41 0.35 0.32 0.30 0.31
2.68 2.60 2.69 2.77 2.60 2.59 2.56 2.56 2.59 2.80 2.92 2.94 2.63 2.39 2.28 2.10 1.95 1.92 1.92 2.20 2.26 2.11 2.26 2.61 2.77 2.70 2.55 2.24 1.99 1.87 1.77 1.62 1.35 1.03 0.92 0.86 0.74 0.65 0.57 0.53 0.48 0.40 0.35
2.65 2.66 2.66 2.55 2.49 2.49 2.58 2.62 2.68 2.81 2.69 2.73 2.68 2.51 2.44 2.29 2.17 2.04 2.00 2.05 1.89 2.05 2.27 2.52 2.76 2.82 2.87 2.74 2.61 2.44 2.19 1.88 1.55 1.19 0.95 0.89 0.81 0.68 0.63 0.64 0.63 0.55 0.46
2.41 2.53 2.37 2.33 2.35 2.19 2.24 2.42 2.40 2.45 2.53 2.64 2.63 2.40 2.37 2.42 2.25 2.16 2.03 1.95 2.05 1.80 2.13 2.46 2.63 2.60 2.77 3.05 3.28 3.26 2.77 2.16 1.71 1.37 1.13 1.00 0.93 0.77 0.66 0.62 0.63 0.62 0.51
1.95 2.06 2.03 2.09 2.04 2.00 2.06 1.89 2.21 2.32 2.42 2.48 2.28 2.24 2.13 2.31 2.29 2.08 2.04 1.83 2.00 1.98 2.02 2.13 2.37 2.34 2.59 3.13 3.68 3.82 3.51 2.83 2.17 1.81 1.61 1.45 1.36 1.17 0.90 0.76 0.68 0.64 0.56
1.84 1.83 1.81 1.88 1.79 1.88 2.04 2.11 2.27 2.23 2.14 2.17 1.88 1.96 1.99 1.80 1.88 1.91 1.82 1.81 1.82 1.57 1.70 1.96 2.28 1.98 2.32 2.82 3.26 3.57 3.74 3.54 2.98 2.49 2.22 2.14 2.06 1.72 1.24 1.01 0.87 0.79 0.68
1.77 1.87 1.68 1.82 1.70 1.73 1.80 1.84 1.95 1.94 1.88 1.95 2.11 2.07 1.78 1.56 1.54 1.51 1.59 1.78 1.68 1.63 1.78 2.10 2.25 2.19 1.94 2.01 2.24 2.73 3.42 3.73 3.58 3.10 2.71 2.46 2.39 2.10 1.56 1.25 1.06 0.97 0.92
1.54 1.50 1.67 1.66 1.61 1.75 1.80 1.77 1.83 1.80 1.68 1.73 1.95 2.17 1.89 1.71 1.42 1.09 1.23 1.25 1.34 1.60 1.72 1.77 1.90 2.15 2.01 2.14 1.78 1.96 2.73 3.36 3.81 3.73 3.30 2.81 2.49 2.21 1.86 1.57 1.29 1.13 1.09
1.30 1.37 1.43 1.48 1.60 1.58 1.69 1.75 1.65 1.69 1.72 1.70 1.74 2.03 1.99 1.82 1.56 1.15 1.01 1.08 1.23 1.42 1.46 1.66 1.71 1.81 1.79 2.13 2.28 2.05 2.10 2.41 3.27 3.93 3.93 3.33 2.66 2.18 1.95 1.83 1.71 1.51 1.33
1.22 1.20 1.25 1.33 1.45 1.41 1.59 1.46 1.51 1.70 1.76 1.63 1.58 1.52 1.59 1.64 1.73 1.50 1.19 1.04 1.14 1.23 1.30 1.34 1.52 1.77 1.91 2.05 2.20 2.05 1.74 1.77 2.40 3.20 3.71 3.65 3.12 2.54 2.20 2.13 2.31 2.26 1.89
1.38 1.23 1.29 1.35 1.39 1.33 1.36 1.37 1.64 1.64 1.58 1.53 1.51 1.52 1.52 1.51 1.49 1.53 1.40 1.23 1.16 1.00 1.03 1.14 1.41 1.62 1.73 1.94 2.23 2.01 1.74 1.59 1.73 2.20 2.74 3.10 3.16 2.84 2.51 2.39 2.69 2.91 2.70
1.44 1.32 1.32 1.35 1.29 1.26 1.25 1.26 1.48 1.50 1.54 1.58 1.52 1.42 1.49 1.46 1.43 1.55 1.38 1.20 1.09 0.81 0.78 0.90 1.11 1.28 1.42 1.66 1.80 1.83 1.79 1.77 1.73 1.79 1.91 2.19 2.51 2.61 2.58 2.68 2.98 3.22 3.32
1.17 1.21 1.24 1.28 1.15 1.17 1.27 1.42 1.45 1.43 1.49 1.51 1.42 1.34 1.32 1.20 1.28 1.37 1.28 1.09 1.07 0.88 0.94 0.87 0.92 1.15 1.31 1.63 1.76 1.79 1.64 1.69 1.53 1.45 1.47 1.55 1.70 1.97 2.27 2.49 2.82 3.14 3.46
1.14 1.18 1.20 1.16 1.14 1.19 1.22 1.47 1.37 1.35 1.39 1.35 1.24 1.44 1.38 1.15 1.27 1.32 1.37 1.51 1.38 1.22 1.21 1.01 1.01 1.28 1.60 1.71 1.90 1.89 1.52 1.51 1.35 1.24 1.17 1.21 1.30 1.45 1.59 1.79 2.05 2.27 2.51
1.24 1.29 1.27 1.23 1.24 1.34 1.47 1.59 1.46 1.45 1.50 1.33 1.32 1.51 1.45 1.31 1.33 1.29 1.42 1.63 1.75 1.53 1.37 1.33 1.32 1.35 1.54 1.63 1.78 1.68 1.51 1.57 1.42 1.26 1.15 1.11 1.15 1.23 1.29 1.33 1.42 1.52 1.64
1.31 1.36 1.34 1.29 1.35 1.41 1.53 1.60 1.48 1.54 1.53 1.43 1.47 1.60 1.59 1.48 1.48 1.43 1.47 1.62 1.84 1.81 1.58 1.36 1.40 1.37 1.43 1.33 1.51 1.40 1.43 1.56 1.41 1.30 1.25 1.20 1.15 1.16 1.17 1.23 1.26 1.24 1.24
1.37 1.35 1.35 1.35 1.34 1.40 1.47 1.54 1.47 1.51 1.47 1.47 1.48 1.53 1.53 1.64 1.67 1.65 1.75 1.78 1.86 1.99 1.80 1.47 1.51 1.62 1.61 1.44 1.41 1.37 1.35 1.35 1.31 1.33 1.27 1.23 1.17 1.11 1.05 1.00 1.05 1.07 1.06
1.31 1.35 1.40 1.35 1.25 1.32 1.46 1.48 1.41 1.47 1.51 1.47 1.54 1.70 1.63 1.67 1.74 1.82 1.96 1.88 1.92 2.17 2.13 1.85 1.80 1.87 1.74 1.64 1.60 1.50 1.31 1.24 1.23 1.36 1.27 1.19 1.10 1.03 0.99 0.94 0.92 0.91 0.91
1.39 1.36 1.32 1.25 1.23 1.28 1.35 1.37 1.47 1.58 1.63 1.66 1.74 1.82 1.85 2.00 1.91 1.95 2.00 1.97 2.02 2.24 2.43 2.24 2.07 2.15 2.08 1.85 1.77 1.56 1.39 1.39 1.23 1.28 1.30 1.20 1.13 1.09 1.02 1.02 1.01 0.95 0.88
1.48 1.48 1.47 1.49 1.50 1.45 1.44 1.49 1.60 1.68 1.71 1.77 1.91 1.93 1.94 2.00 2.05 2.16 2.17 2.25 2.39 2.56 2.70 2.58 2.45 2.52 2.52 2.33 2.10 1.75 1.61 1.51 1.40 1.30 1.38 1.32 1.27 1.21 1.12 1.04 1.00 0.99 0.96
1.72 1.83 1.81 1.79 1.83 1.77 1.60 1.70 1.77 1.76 1.86 1.80 1.87 1.91 1.88 1.97 2.02 2.12 2.09 2.26 2.55 2.74 2.87 2.88 2.83 2.98 2.91 2.73 2.39 2.02 1.92 1.81 1.68 1.48 1.42 1.33 1.30 1.22 1.18 1.14 1.09 1.05 1.02
1.97 2.03 1.96 1.95 1.94 1.72 1.84 1.89 1.87 1.93 1.98 1.93 1.93 1.95 1.93 1.90 1.83 1.86 1.93 2.04 2.21 2.41 2.63 2.83 2.90 2.97 3.01 2.88 2.66 2.41 2.08 1.84 1.68 1.55 1.58 1.48 1.37 1.29 1.16 1.08 1.18 1.13 1.07
1.91 1.96 1.98 1.99 1.89 1.84 1.86 1.73 1.74 1.74 1.83 1.89 1.93 1.93 1.76 1.64 1.67 1.60 1.73 1.78 1.77 1.84 1.97 2.23 2.44 2.48 2.69 2.81 2.71 2.36 2.06 1.81 1.62 1.58 1.62 1.53 1.43 1.34 1.23 1.19 1.27 1.14 1.08
2.16 2.17 2.10 2.06 2.03 1.91 1.82 1.68 1.72 1.59 1.63 1.68 1.71 1.74 1.74 1.64 1.62 1.69 1.69 1.59 1.45 1.44 1.54 1.57 1.68 1.91 2.17 2.49 2.59 2.46 2.38 2.10 1.80 1.58 1.54 1.50 1.36 1.27 1.19 1.16 1.27 1.17 1.08
2.33 2.30 2.26 2.28 2.30 2.28 2.19 1.89 1.77 1.64 1.69 1.69 1.68 1.68 1.68 1.54 1.62 1.57 1.52 1.53 1.45 1.38 1.40 1.44 1.49 1.68 1.95 2.18 2.40 2.41 2.30 2.18 1.92 1.62 1.48 1.44 1.33 1.30 1.26 1.17 1.15 1.18 1.09
2.23 2.24 2.18 2.24 2.21 2.23 2.29 1.97 1.74 1.56 1.61 1.65 1.73 1.74 1.76 1.60 1.66 1.60 1.57 1.59 1.50 1.42 1.41 1.39 1.42 1.48 1.55 1.82 2.11 2.09 2.04 2.06 1.89 1.66 1.40 1.40 1.33 1.33 1.34 1.12 0.95 0.93 0.94

GEFSMA_prec_meanprecacc_246.txt.gz
Total_Precipitation_Accumulation
2.93 3.02 2.79 2.73 2.62 2.73 2.88 2.87 2.63 2.73 2.84 2.76 2.49 2.31 2.20 1.96 1.83 1.78 1.90 2.18 2.17 2.15 2.40 2.41 2.34 2.23 1.98 1.72 1.59 1.51 1.44 1.32 1.16 0.95 0.86 0.77 0.68 0.56 0.43 0.37 0.34 0.32 0.32
2.75 2.68 2.76 2.85 2.67 2.65 2.61 2.61 2.65 2.87 2.99 3.01 2.71 2.46 2.35 2.18 2.01 1.98 2.00 2.28 2.34 2.19 2.34 2.69 2.85 2.77 2.62 2.29 2.05 1.91 1.80 1.65 1.38 1.05 0.95 0.89 0.77 0.67 0.60 0.57 0.51 0.42 0.37
2.70 2.71 2.73 2.62 2.55 2.55 2.64 2.69 2.74 2.86 2.77 2.82 2.76 2.58 2.52 2.36 2.23 2.11 2.07 2.13 1.98 2.14 2.36 2.60 2.84 2.89 2.94 2.80 2.67 2.50 2.24 1.90 1.56 1.21 0.97 0.92 0.84 0.71 0.67 0.67 0.66 0.58 0.49
2.46 2.58 2.43 2.38 2.40 2.23 2.29 2.48 2.47 2.51 2.61 2.73 2.71 2.48 2.43 2.47 2.30 2.21 2.09 2.03 2.15 1.90 2.23 2.55 2.71 2.67 2.85 3.13 3.37 3.35 2.83 2.20 1.74 1.40 1.16 1.03 0.95 0.79 0.68 0.65 0.65 0.64 0.53
1.99 2.10 2.09 2.16 2.09 2.06 2.13 1.96 2.27 2.38 2.51 2.57 2.35 2.30 2.17 2.34 2.33 2.12 2.10 1.91 2.10 2.10 2.13 2.21 2.44 2.41 2.65 3.20 3.76 3.90 3.58 2.88 2.22 1.84 1.63 1.47 1.38 1.19 0.94 0.79 0.71 0.66 0.58
1.87 1.89 1.88 1.96 1.86 1.96 2.14 2.23 2.37 2.30 2.21 2.26 1.93 2.00 2.02 1.83 1.91 1.94 1.86 1.87 1.88 1.63 1.75 2.00 2.34 2.05 2.38 2.89 3.35 3.65 3.82 3.61 3.03 2.52 2.24 2.16 2.08 1.74 1.27 1.03 0.89 0.80 0.70
1.80 1.93 1.74 1.92 1.80 1.85 1.93 1.99 2.07 2.03 1.97 2.02 2.17 2.13 1.82 1.60 1.57 1.53 1.60 1.81 1.70 1.66 1.80 2.13 2.29 2.23 1.99 2.06 2.28 2.78 3.49 3.81 3.64 3.15 2.75 2.49 2.42 2.12 1.58 1.28 1.08 0.99 0.94
1.58 1.54 1.74 1.77 1.73 1.89 1.93 1.89 1.96 1.91 1.75 1.79 2.03 2.27 1.96 1.78 1.48 1.14 1.26 1.28 1.36 1.62 1.74 1.79 1.92 2.18 2.05 2.19 1.82 1.99 2.76 3.42 3.88 3.78 3.35 2.85 2.53 2.24 1.90 1.62 1.33 1.16 1.10
1.32 1.40 1.48 1.57 1.72 1.68 1.79 1.87 1.78 1.80 1.82 1.77 1.80 2.11 2.09 1.90 1.64 1.22 1.06 1.11 1.26 1.45 1.49 1.69 1.74 1.84 1.83 2.17 2.33 2.08 2.12 2.45 3.33 3.99 3.98 3.38 2.72 2.24 2.02 1.89 1.77 1.55 1.37
1.25 1.23 1.30 1.39 1.53 1.48 1.69 1.55 1.61 1.80 1.85 1.72 1.67 1.60 1.66 1.73 1.84 1.60 1.25 1.08 1.17 1.26 1.32 1.36 1.54 1.81 1.95 2.09 2.23 2.07 1.76 1.79 2.44 3.27 3.79 3.73 3.20 2.61 2.25 2.18 2.36 2.30 1.94
1.40 1.26 1.31 1.38 1.44 1.39 1.44 1.46 1.75 1.75 1.67 1.61 1.57 1.58 1.58 1.57 1.56 1.61 1.48 1.28 1.19 1.01 1.03 1.15 1.42 1.63 1.75 1.96 2.26 2.03 1.75 1.60 1.74 2.23 2.79 3.15 3.22 2.90 2.55 2.42 2.73 2.96 2.75
1.48 1.36 1.35 1.38 1.33 1.30 1.31 1.34 1.58 1.61 1.63 1.66 1.62 1.50 1.57 1.54 1.49 1.61 1.43 1.25 1.13 0.82 0.79 0.91 1.11 1.28 1.44 1.68 1.81 1.83 1.80 1.78 1.73 1.80 1.93 2.22 2.55 2.65 2.64 2.73 3.03 3.27 3.38
1.21 1.25 1.28 1.34 1.19 1.20 1.32 1.50 1.55 1.52 1.58 1.60 1.51 1.42 1.39 1.26 1.34 1.43 1.34 1.14 1.11 0.90 0.96 0.87 0.93 1.16 1.31 1.65 1.79 1.80 1.65 1.71 1.56 1.48 1.49 1.58 1.73 2.02 2.32 2.57 2.89 3.21 3.52
1.17 1.22 1.23 1.19 1.18 1.22 1.26 1.54 1.46 1.43 1.47 1.43 1.32 1.51 1.44 1.19 1.32 1.36 1.42 1.57 1.42 1.25 1.24 1.02 1.01 1.28 1.61 1.73 1.92 1.91 1.54 1.53 1.37 1.26 1.19 1.24 1.34 1.51 1.64 1.83 2.10 2.32 2.57
1.28 1.33 1.30 1.26 1.26 1.38 1.52 1.65 1.53 1.52 1.56 1.40 1.39 1.58 1.51 1.36 1.37 1.33 1.46 1.68 1.79 1.57 1.41 1.34 1.33 1.35 1.54 1.64 1.80 1.69 1.52 1.59 1.43 1.27 1.18 1.14 1.17 1.25 1.32 1.36 1.45 1.55 1.68
1.34 1.39 1.37 1.31 1.38 1.46 1.59 1.67 1.55 1.60 1.57 1.47 1.50 1.64 1.62 1.51 1.52 1.47 1.50 1.66 1.88 1.85 1.61 1.37 1.41 1.38 1.44 1.34 1.52 1.42 1.44 1.59 1.44 1.33 1.28 1.23 1.18 1.19 1.20 1.25 1.29 1.27 1.28
1.41 1.38 1.37 1.37 1.37 1.44 1.53 1.60 1.51 1.54 1.50 1.50 1.50 1.55 1.56 1.68 1.71 1.68 1.78 1.82 1.91 2.03 1.83 1.49 1.53 1.64 1.62 1.46 1.43 1.39 1.37 1.38 1.33 1.36 1.30 1.27 1.20 1.14 1.07 1.02 1.07 1.11 1.09
1.34 1.38 1.42 1.37 1.28 1.35 1.49 1.51 1.44 1.50 1.53 1.49 1.57 1.72 1.65 1.70 1.77 1.85 1.99 1.91 1.97 2.22 2.17 1.88 1.83 1.90 1.76 1.66 1.62 1.54 1.35 1.27 1.26 1.39 1.30 1.22 1.13 1.06 1.01 0.96 0.94 0.93 0.94
1.44 1.40 1.35 1.28 1.27 1.31 1.37 1.40 1.49 1.61 1.65 1.68 1.76 1.84 1.87 2.03 1.94 1.98 2.03 1.99 2.05 2.28 2.47 2.27 2.09 2.17 2.10 1.88 1.80 1.62 1.49 1.49 1.29 1.32 1.34 1.24 1.16 1.11 1.05 1.04 1.02 0.97 0.90
1.53 1.53 1.50 1.52 1.53 1.48 1.46 1.52 1.63 1.71 1.73 1.79 1.93 1.96 1.97 2.03 2.08 2.19 2.20 2.27 2.43 2.61 2.75 2.61 2.48 2.55 2.55 2.37 2.15 1.82 1.70 1.60 1.47 1.34 1.41 1.34 1.29 1.24 1.14 1.06 1.02 1.00 0.98
1.75 1.87 1.84 1.81 1.85 1.79 1.62 1.72 1.79 1.77 1.88 1.82 1.90 1.95 1.91 2.00 2.06 2.16 2.13 2.31 2.60 2.78 2.91 2.92 2.86 3.00 2.94 2.79 2.44 2.08 1.97 1.86 1.71 1.50 1.43 1.34 1.31 1.23 1.19 1.17 1.11 1.07 1.04
2.00 2.06 1.99 1.98 1.97 1.75 1.86 1.92 1.89 1.95 2.01 1.97 1.97 1.99 1.96 1.93 1.86 1.90 1.98 2.09 2.26 2.46 2.68 2.87 2.94 3.01 3.04 2.93 2.72 2.46 2.13 1.87 1.71 1.57 1.59 1.49 1.38 1.30 1.18 1.10 1.20 1.16 1.09
1.93 1.99 2.01 2.03 1.92 1.87 1.88 1.75 1.76 1.77 1.88 1.95 1.97 1.98 1.81 1.69 1.71 1.63 1.77 1.83 1.82 1.88 2.01 2.28 2.49 2.53 2.74 2.86 2.77 2.42 2.10 1.85 1.66 1.62 1.66 1.56 1.46 1.36 1.24 1.21 1.28 1.15 1.10
2.19 2.19 2.12 2.09 2.06 1.93 1.84 1.70 1.74 1.62 1.67 1.71 1.75 1.78 1.77 1.68 1.66 1.74 1.74 1.62 1.48 1.47 1.58 1.60 1.71 1.96 2.23 2.56 2.65 2.52 2.45 2.16 1.86 1.64 1.59 1.55 1.40 1.30 1.22 1.18 1.28 1.18 1.09
2.35 2.32 2.29 2.31 2.32 2.31 2.22 1.93 1.82 1.67 1.71 1.70 1.70 1.70 1.70 1.57 1.66 1.62 1.57 1.57 1.48 1.40 1.43 1.47 1.53 1.73 2.00 2.24 2.45 2.48 2.37 2.27 2.00 1.68 1.55 1.50 1.38 1.35 1.30 1.19 1.17 1.19 1.11
2.26 2.26 2.21 2.26 2.24 2.27 2.34 2.03 1.80 1.60 1.64 1.68 1.76 1.77 1.79 1.63 1.68 1.63 1.59 1.63 1.54 1.46 1.46 1.44 1.47 1.53 1.60 1.89 2.18 2.19 2.15 2.17 2.01 1.77 1.50 1.49 1.40 1.39 1.38 1.15 0.98 0.95 0.96

GEFSMA_prec_meanprecacc_252.txt.gz
Total_Precipitation_Accumulation
3.01 3.11 2.90 2.85 2.73 2.82 2.95 2.93 2.69 2.81 2.93 2.82 2.55 2.38 2.29 2.05 1.94 1.86 1.95 2.20 2.19 2.17 2.42 2.43 2.37 2.26 2.01 1.75 1.63 1.54 1.48 1.36 1.20 0.98 0.89 0.81 0.71 0.59 0.46 0.40 0.37 0.34 0.34
2.85 2.78 2.87 2.96 2.76 2.75 2.71 2.69 2.71 2.96 3.09 3.09 2.78 2.55 2.47 2.31 2.14 2.10 2.09 2.33 2.37 2.21 2.36 2.71 2.87 2.82 2.66 2.35 2.10 1.94 1.82 1.67 1.40 1.08 0.97 0.92 0.81 0.72 0.64 0.60 0.54 0.44 0.39
2.79 2.80 2.82 2.69 2.61 2.62 2.72 2.76 2.81 2.94 2.84 2.90 2.86 2.70 2.63 2.48 2.37 2.24 2.22 2.24 2.04 2.18 2.38 2.63 2.88 2.94 2.98 2.85 2.71 2.53 2.26 1.92 1.59 1.23 1.00 0.94 0.87 0.74 0.70 0.70 0.69 0.61 0.52
2.52 2.65 2.51 2.44 2.46 2.30 2.35 2.54 2.52 2.58 2.70 2.84 2.83 2.59 2.54 2.56 2.38 2.31 2.21 2.14 2.23 1.97 2.27 2.58 2.76 2.74 2.91 3.18 3.41 3.39 2.87 2.24 1.77 1.43 1.18 1.06 0.98 0.81 0.70 0.67 0.67 0.67 0.55
2.01 2.15 2.15 2.24 2.16 2.12 2.17 2.01 2.34 2.47 2.61 2.69 2.45 2.38 2.24 2.41 2.38 2.17 2.18 1.98 2.16 2.18 2.20 2.27 2.52 2.49 2.73 3.25 3.81 3.96 3.64 2.93 2.24 1.86 1.65 1.49 1.40 1.21 0.96 0.82 0.72 0.67 0.59
1.90 1.93 1.94 2.03 1.92 2.02 2.20 2.29 2.46 2.40 2.32 2.38 2.03 2.07 2.07 1.86 1.93 1.97 1.90 1.90 1.92 1.70 1.85 2.12 2.45 2.13 2.44 2.94 3.40 3.70 3.89 3.66 3.06 2.54 2.26 2.18 2.10 1.76 1.28 1.04 0.91 0.82 0.71
1.84 1.98 1.82 2.01 1.85 1.91 2.00 2.06 2.16 2.16 2.08 2.14 2.31 2.25 1.91 1.64 1.60 1.55 1.63 1.84 1.74 1.71 1.89 2.26 2.42 2.35 2.09 2.13 2.33 2.84 3.55 3.86 3.68 3.17 2.77 2.51 2.44 2.14 1.60 1.30 1.11 1.03 0.97
1.62 1.60 1.82 1.84 1.80 1.96 2.01 1.96 2.06 2.04 1.89 1.91 2.17 2.40 2.10 1.93 1.57 1.16 1.28 1.30 1.38 1.65 1.79 1.86 2.01 2.26 2.13 2.27 1.88 2.03 2.80 3.46 3.92 3.82 3.38 2.87 2.55 2.26 1.92 1.66 1.38 1.23 1.17
1.37 1.47 1.56 1.65 1.81 1.75 1.89 1.95 1.87 1.92 1.96 1.90 1.92 2.24 2.22 2.05 1.75 1.28 1.10 1.15 1.31 1.50 1.52 1.71 1.77 1.88 1.87 2.22 2.38 2.11 2.15 2.48 3.37 4.05 4.03 3.42 2.74 2.27 2.05 1.93 1.81 1.60 1.41
1.31 1.29 1.35 1.45 1.61 1.56 1.79 1.62 1.73 1.92 1.99 1.85 1.80 1.72 1.76 1.84 1.96 1.69 1.32 1.13 1.23 1.29 1.33 1.38 1.56 1.83 1.97 2.12 2.26 2.09 1.77 1.81 2.47 3.31 3.84 3.78 3.25 2.65 2.29 2.21 2.39 2.34 1.98
1.46 1.31 1.38 1.44 1.50 1.45 1.51 1.54 1.85 1.86 1.78 1.72 1.68 1.69 1.68 1.67 1.64 1.69 1.54 1.33 1.23 1.03 1.05 1.17 1.43 1.64 1.76 1.98 2.29 2.04 1.77 1.62 1.76 2.25 2.82 3.20 3.26 2.94 2.59 2.46 2.77 3.01 2.81
1.55 1.41 1.41 1.45 1.38 1.36 1.37 1.41 1.67 1.70 1.73 1.77 1.73 1.61 1.67 1.61 1.56 1.70 1.51 1.32 1.19 0.86 0.82 0.92 1.12 1.29 1.45 1.68 1.82 1.84 1.82 1.80 1.75 1.81 1.95 2.26 2.59 2.69 2.67 2.76 3.06 3.31 3.42
1.29 1.32 1.37 1.44 1.27 1.27 1.39 1.57 1.65 1.64 1.69 1.69 1.60 1.51 1.49 1.34 1.41 1.52 1.42 1.21 1.18 0.95 0.99 0.89 0.93 1.16 1.32 1.66 1.80 1.82 1.66 1.72 1.57 1.49 1.50 1.59 1.76 2.05 2.36 2.60 2.92 3.25 3.57
1.29 1.34 1.36 1.34 1.26 1.28 1.32 1.63 1.55 1.54 1.60 1.55 1.42 1.62 1.54 1.27 1.39 1.44 1.49 1.64 1.49 1.31 1.29 1.06 1.02 1.29 1.62 1.74 1.96 1.95 1.56 1.55 1.38 1.26 1.20 1.25 1.35 1.52 1.66 1.85 2.13 2.36 2.61
1.38 1.43 1.40 1.35 1.34 1.45 1.60 1.76 1.63 1.62 1.69 1.52 1.51 1.70 1.61 1.45 1.46 1.42 1.55 1.75 1.86 1.62 1.45 1.38 1.35 1.37 1.56 1.66 1.83 1.71 1.55 1.61 1.44 1.28 1.19 1.15 1.19 1.28 1.34 1.38 1.47 1.58 1.70
1.44 1.50 1.49 1.45 1.53 1.56 1.68 1.77 1.64 1.70 1.70 1.61 1.65 1.79 1.77 1.63 1.62 1.55 1.58 1.72 1.94 1.90 1.65 1.41 1.44 1.41 1.49 1.38 1.55 1.43 1.46 1.60 1.46 1.35 1.30 1.25 1.20 1.21 1.22 1.28 1.32 1.30 1.31
1.49 1.47 1.50 1.51 1.51 1.55 1.62 1.68 1.59 1.63 1.62 1.65 1.66 1.71 1.70 1.80 1.82 1.75 1.86 1.91 1.98 2.09 1.89 1.54 1.57 1.69 1.70 1.50 1.45 1.40 1.39 1.40 1.36 1.39 1.32 1.28 1.23 1.16 1.09 1.05 1.11 1.14 1.13
1.38 1.44 1.48 1.45 1.37 1.45 1.60 1.59 1.52 1.61 1.63 1.59 1.68 1.83 1.74 1.80 1.86 1.92 2.08 1.98 2.03 2.29 2.24 1.94 1.89 1.98 1.87 1.74 1.68 1.57 1.36 1.29 1.29 1.44 1.34 1.25 1.16 1.07 1.02 0.98 0.97 0.97 0.99
1.46 1.43 1.40 1.33 1.33 1.40 1.47 1.48 1.56 1.66 1.70 1.73 1.81 1.90 1.93 2.10 2.01 2.05 2.10 2.06 2.11 2.35 2.55 2.33 2.15 2.24 2.19 1.96 1.90 1.69 1.54 1.55 1.35 1.38 1.39 1.28 1.19 1.13 1.06 1.05 1.05 1.00 0.94
1.56 1.56 1.54 1.57 1.58 1.53 1.53 1.59 1.67 1.74 1.76 1.82 1.97 2.00 2.00 2.07 2.13 2.26 2.26 2.35 2.50 2.68 2.82 2.68 2.54 2.61 2.62 2.46 2.24 1.89 1.78 1.67 1.54 1.40 1.45 1.37 1.32 1.25 1.16 1.08 1.03 1.03 1.01
1.77 1.89 1.88 1.86 1.90 1.84 1.66 1.77 1.84 1.81 1.92 1.86 1.94 1.98 1.94 2.04 2.10 2.21 2.17 2.36 2.67 2.85 2.98 3.00 2.94 3.08 3.02 2.87 2.53 2.16 2.07 1.95 1.79 1.56 1.48 1.37 1.34 1.25 1.21 1.19 1.13 1.08 1.05
2.02 2.09 2.02 2.03 2.03 1.80 1.91 1.96 1.94 2.00 2.05 2.01 2.02 2.03 1.99 1.97 1.89 1.93 2.01 2.14 2.33 2.53 2.76 2.97 3.05 3.13 3.15 3.04 2.84 2.57 2.23 1.98 1.79 1.63 1.65 1.53 1.41 1.33 1.20 1.12 1.23 1.18 1.11
1.97 2.03 2.05 2.07 1.97 1.92 1.93 1.79 1.80 1.82 1.93 1.99 2.02 2.02 1.85 1.72 1.75 1.67 1.81 1.88 1.87 1.93 2.08 2.37 2.58 2.63 2.86 2.98 2.88 2.52 2.21 1.94 1.72 1.66 1.72 1.60 1.49 1.38 1.26 1.23 1.31 1.19 1.12
2.24 2.24 2.16 2.13 2.10 1.99 1.88 1.73 1.78 1.66 1.71 1.76 1.80 1.82 1.81 1.71 1.70 1.79 1.78 1.66 1.51 1.50 1.62 1.65 1.75 2.00 2.30 2.63 2.73 2.59 2.53 2.24 1.92 1.68 1.64 1.59 1.44 1.33 1.24 1.21 1.32 1.22 1.13
2.40 2.37 2.34 2.36 2.37 2.36 2.27 1.98 1.87 1.71 1.75 1.75 1.74 1.74 1.72 1.59 1.71 1.65 1.60 1.60 1.51 1.43 1.45 1.50 1.55 1.75 2.04 2.29 2.49 2.52 2.43 2.34 2.06 1.74 1.61 1.55 1.42 1.39 1.34 1.23 1.20 1.23 1.14
2.34 2.33 2.27 2.32 2.30 2.32 2.39 2.09 1.86 1.65 1.69 1.72 1.80 1.81 1.82 1.67 1.73 1.66 1.62 1.65 1.56 1.48 1.48 1.47 1.49 1.55 1.62 1.91 2.21 2.22 2.20 2.25 2.10 1.86 1.58 1.56 1.45 1.45 1.44 1.20 1.02 0.99 1.01